[[{"header":{"parameterUnit":"m.s-1","parameterCategory":1,"la1":30.6,"la2":29.2853,"lo1":-89.7004,"lo2":-87.6739,"dy":0.0162,"dx":0.0183,"nx":112,"ny":82,"refTime":"2024-07-28T06:00:00:Z","depth":0,"parameterNumber":2,"parameterNumberName":"U-component_of_WINDS"},"data":[0.0,0.0,0.0,0.0,0.0,0.0,0.0,0.0,0.0,0.0,0.0,0.0,0.0,0.0,0.0,0.0,0.0,0.0,0.0,0.0,0.0,0.0,0.0,0.0,0.0,0.0,0.0,0.0,0.0,0.0,0.0,0.0,0.0,0.0,0.0,0.0,0.0,0.0,0.0,0.0,0.0,0.0,0.0,0.0,0.0,0.0,0.0,0.0,0.0,0.0,0.0,0.0,0.0,0.0,0.0,0.0,0.0,0.0,0.0,0.0,0.0,0.0,0.0,0.0,0.0,0.0,0.0,0.0,0.0,0.0,0.0,0.0,0.0,0.0,0.0,0.0,0.0,0.0,0.0,0.0,0.0,0.0,0.0,0.0,0.0,0.0,0.0,0.0,0.0,0.0,-2.5881,-2.5814,-2.5671,-2.5892,-2.6631,-2.6028,-2.5505,-2.5311,0.0,0.0,0.0,0.0,0.0,0.0,0.0,0.0,0.0,0.0,0.0,0.0,0.0,0.0,0.0,0.0,0.0,0.0,0.0,0.0,0.0,0.0,0.0,0.0,0.0,0.0,0.0,0.0,0.0,0.0,0.0,0.0,0.0,0.0,0.0,0.0,0.0,0.0,0.0,0.0,0.0,0.0,0.0,0.0,0.0,0.0,0.0,0.0,0.0,0.0,0.0,0.0,0.0,0.0,0.0,0.0,0.0,0.0,0.0,0.0,0.0,0.0,0.0,0.0,0.0,0.0,0.0,0.0,0.0,0.0,0.0,0.0,0.0,0.0,0.0,0.0,0.0,0.0,0.0,0.0,0.0,0.0,0.0,0.0,0.0,0.0,0.0,0.0,0.0,0.0,0.0,0.0,0.0,0.0,0.0,0.0,0.0,0.0,0.0,0.0,0.0,0.0,0.0,0.0,-2.6784,-2.671,-2.6037,-2.5659,-2.5795,-2.5679,-2.5253,-2.4444,0.0,0.0,0.0,0.0,0.0,0.0,0.0,0.0,0.0,0.0,0.0,0.0,0.0,0.0,0.0,0.0,0.0,0.0,0.0,0.0,0.0,0.0,0.0,0.0,0.0,0.0,0.0,0.0,0.0,0.0,0.0,0.0,0.0,0.0,0.0,0.0,0.0,0.0,0.0,0.0,0.0,0.0,0.0,0.0,0.0,0.0,0.0,0.0,0.0,0.0,0.0,0.0,0.0,0.0,0.0,0.0,0.0,0.0,0.0,0.0,0.0,0.0,0.0,0.0,0.0,0.0,0.0,0.0,0.0,0.0,0.0,0.0,0.0,0.0,0.0,0.0,0.0,0.0,0.0,0.0,0.0,0.0,0.0,0.0,0.0,0.0,0.0,0.0,0.0,0.0,0.0,0.0,0.0,0.0,0.0,0.0,0.0,0.0,0.0,0.0,0.0,0.0,0.0,-2.6913,-2.6757,-2.6257,-2.5842,-2.5601,-2.5601,-2.5601,-2.5182,-2.42,-2.3354,0.0,0.0,0.0,0.0,0.0,0.0,0.0,0.0,0.0,0.0,0.0,0.0,0.0,0.0,0.0,0.0,0.0,0.0,0.0,0.0,0.0,0.0,0.0,0.0,0.0,0.0,0.0,0.0,0.0,0.0,0.0,0.0,0.0,0.0,0.0,0.0,0.0,0.0,0.0,0.0,0.0,0.0,0.0,0.0,0.0,0.0,0.0,0.0,0.0,0.0,0.0,0.0,0.0,0.0,0.0,0.0,0.0,0.0,0.0,0.0,0.0,0.0,0.0,0.0,0.0,0.0,0.0,0.0,0.0,0.0,0.0,0.0,0.0,0.0,0.0,0.0,0.0,0.0,0.0,0.0,0.0,0.0,0.0,0.0,0.0,0.0,0.0,0.0,0.0,0.0,0.0,0.0,0.0,0.0,0.0,0.0,0.0,0.0,0.0,0.0,0.0,0.0,-2.6992,-2.6782,-2.5726,-2.5609,-2.5601,-2.5601,-2.5589,-2.5233,-2.445,-2.3438,0.0,0.0,0.0,0.0,0.0,0.0,0.0,0.0,0.0,0.0,0.0,0.0,0.0,0.0,0.0,0.0,0.0,0.0,0.0,0.0,0.0,0.0,0.0,0.0,0.0,0.0,0.0,0.0,0.0,0.0,0.0,0.0,0.0,0.0,0.0,0.0,0.0,0.0,0.0,0.0,0.0,0.0,0.0,0.0,0.0,0.0,0.0,0.0,0.0,0.0,0.0,0.0,0.0,0.0,0.0,0.0,0.0,0.0,0.0,0.0,0.0,0.0,0.0,0.0,0.0,0.0,0.0,0.0,0.0,0.0,0.0,0.0,0.0,0.0,0.0,0.0,0.0,0.0,0.0,0.0,0.0,0.0,0.0,0.0,0.0,0.0,0.0,0.0,0.0,0.0,0.0,0.0,0.0,0.0,0.0,0.0,0.0,0.0,0.0,0.0,0.0,0.0,-2.7148,-2.7468,-2.5785,-2.5609,-2.5601,-2.5601,-2.5538,-2.5461,-2.5318,-2.3724,0.0,0.0,0.0,0.0,0.0,0.0,0.0,0.0,0.0,0.0,0.0,0.0,0.0,0.0,0.0,0.0,0.0,0.0,0.0,0.0,0.0,0.0,0.0,0.0,0.0,0.0,0.0,0.0,0.0,0.0,0.0,0.0,0.0,0.0,0.0,0.0,0.0,0.0,0.0,0.0,0.0,0.0,0.0,0.0,0.0,0.0,0.0,0.0,0.0,0.0,0.0,0.0,0.0,0.0,0.0,0.0,0.0,0.0,0.0,0.0,0.0,0.0,0.0,0.0,0.0,0.0,0.0,0.0,0.0,0.0,0.0,0.0,0.0,0.0,0.0,0.0,0.0,0.0,0.0,0.0,0.0,0.0,0.0,0.0,0.0,0.0,0.0,0.0,0.0,0.0,0.0,0.0,0.0,0.0,0.0,0.0,0.0,0.0,0.0,0.0,0.0,0.0,-2.6691,-2.6932,-2.574,-2.561,-2.5387,-2.4838,-2.4723,-2.4667,-2.4596,0.0,0.0,0.0,0.0,0.0,0.0,0.0,0.0,0.0,0.0,0.0,0.0,0.0,0.0,0.0,0.0,0.0,0.0,0.0,0.0,0.0,0.0,0.0,0.0,0.0,0.0,0.0,0.0,0.0,0.0,0.0,0.0,0.0,0.0,0.0,0.0,0.0,0.0,0.0,0.0,0.0,0.0,0.0,0.0,0.0,0.0,0.0,0.0,0.0,0.0,0.0,0.0,0.0,0.0,0.0,0.0,0.0,0.0,0.0,0.0,0.0,0.0,0.0,0.0,0.0,0.0,0.0,0.0,0.0,0.0,0.0,0.0,0.0,0.0,0.0,0.0,0.0,0.0,0.0,0.0,0.0,0.0,0.0,0.0,0.0,0.0,0.0,0.0,0.0,0.0,0.0,0.0,0.0,0.0,0.0,0.0,0.0,0.0,0.0,0.0,0.0,0.0,-2.576,-2.6154,-2.6268,-2.566,-2.5342,-2.4935,-2.4315,-2.3948,-2.3844,-2.406,0.0,0.0,0.0,0.0,0.0,0.0,0.0,0.0,0.0,0.0,0.0,0.0,0.0,0.0,0.0,0.0,0.0,0.0,0.0,0.0,0.0,0.0,0.0,0.0,0.0,0.0,0.0,0.0,0.0,0.0,0.0,0.0,0.0,0.0,0.0,0.0,0.0,0.0,0.0,0.0,0.0,0.0,0.0,0.0,0.0,0.0,0.0,0.0,0.0,0.0,0.0,0.0,0.0,0.0,0.0,0.0,0.0,0.0,0.0,0.0,0.0,0.0,0.0,0.0,0.0,0.0,0.0,0.0,0.0,0.0,0.0,0.0,0.0,0.0,0.0,0.0,0.0,0.0,0.0,0.0,0.0,0.0,0.0,0.0,0.0,0.0,0.0,0.0,0.0,0.0,0.0,0.0,0.0,0.0,0.0,0.0,0.0,0.0,0.0,0.0,0.0,0.0,-2.5702,-2.5631,-2.559,-2.5601,-2.4817,-2.4263,-2.418,-2.333,-2.3124,0.0,0.0,0.0,0.0,0.0,0.0,0.0,0.0,0.0,0.0,0.0,0.0,0.0,0.0,0.0,0.0,0.0,0.0,0.0,0.0,0.0,0.0,0.0,0.0,0.0,0.0,0.0,0.0,0.0,0.0,0.0,0.0,0.0,0.0,0.0,0.0,0.0,0.0,0.0,0.0,0.0,0.0,0.0,0.0,0.0,0.0,0.0,0.0,0.0,0.0,0.0,0.0,0.0,0.0,0.0,0.0,0.0,0.0,0.0,0.0,0.0,0.0,0.0,0.0,0.0,0.0,0.0,0.0,0.0,0.0,0.0,0.0,0.0,0.0,0.0,0.0,0.0,0.0,0.0,0.0,0.0,0.0,0.0,0.0,0.0,0.0,0.0,0.0,0.0,0.0,0.0,0.0,0.0,0.0,0.0,0.0,0.0,0.0,0.0,0.0,0.0,0.0,0.0,-2.5541,-2.5086,-2.4929,-2.5532,-2.4272,-2.3351,-2.3282,-2.246,-2.2034,-2.2228,0.0,0.0,0.0,0.0,0.0,0.0,0.0,0.0,0.0,0.0,0.0,0.0,0.0,0.0,0.0,0.0,0.0,0.0,0.0,0.0,0.0,0.0,0.0,0.0,0.0,0.0,0.0,0.0,0.0,0.0,0.0,0.0,0.0,0.0,0.0,0.0,0.0,0.0,0.0,0.0,0.0,0.0,0.0,0.0,0.0,0.0,0.0,0.0,0.0,0.0,0.0,0.0,0.0,0.0,0.0,0.0,0.0,0.0,0.0,0.0,0.0,0.0,0.0,0.0,0.0,0.0,0.0,0.0,0.0,0.0,0.0,0.0,0.0,0.0,0.0,0.0,0.0,0.0,0.0,0.0,0.0,0.0,0.0,0.0,0.0,0.0,0.0,0.0,0.0,0.0,0.0,0.0,0.0,0.0,0.0,0.0,0.0,0.0,0.0,0.0,0.0,0.0,-2.4974,-2.4023,-2.36,-2.4475,-2.3318,-2.2455,-2.2384,-2.1562,-2.1166,-2.1435,0.0,0.0,0.0,0.0,0.0,0.0,0.0,0.0,0.0,0.0,0.0,0.0,0.0,0.0,0.0,0.0,0.0,0.0,0.0,0.0,0.0,0.0,0.0,0.0,0.0,0.0,0.0,0.0,0.0,0.0,0.0,0.0,0.0,0.0,0.0,0.0,0.0,0.0,0.0,0.0,0.0,0.0,0.0,0.0,0.0,0.0,0.0,0.0,0.0,0.0,0.0,0.0,0.0,0.0,0.0,0.0,0.0,0.0,0.0,0.0,0.0,0.0,0.0,0.0,0.0,0.0,0.0,0.0,0.0,0.0,0.0,0.0,0.0,0.0,0.0,0.0,0.0,0.0,0.0,0.0,0.0,0.0,0.0,0.0,0.0,0.0,0.0,0.0,0.0,0.0,0.0,0.0,0.0,0.0,0.0,0.0,0.0,0.0,0.0,0.0,0.0,0.0,-2.4183,-2.2702,-2.1944,-2.2896,-2.2144,-2.1578,-2.1582,-2.0731,-2.0504,-2.1225,0.0,0.0,0.0,0.0,0.0,0.0,0.0,0.0,0.0,0.0,0.0,0.0,0.0,0.0,0.0,0.0,0.0,0.0,0.0,0.0,0.0,0.0,0.0,0.0,0.0,0.0,0.0,0.0,0.0,0.0,0.0,0.0,0.0,0.0,0.0,0.0,0.0,0.0,0.0,0.0,0.0,0.0,0.0,0.0,0.0,0.0,0.0,0.0,0.0,0.0,0.0,0.0,0.0,0.0,0.0,0.0,0.0,0.0,0.0,0.0,-2.7769,0.0,0.0,0.0,0.0,0.0,0.0,0.0,0.0,0.0,0.0,0.0,0.0,0.0,0.0,0.0,0.0,0.0,0.0,0.0,0.0,0.0,0.0,0.0,0.0,0.0,0.0,0.0,0.0,0.0,0.0,0.0,0.0,0.0,0.0,0.0,0.0,0.0,0.0,0.0,0.0,0.0,-2.4101,-2.2235,-2.1313,-2.2772,-2.1578,-2.0921,-2.1482,-2.0699,-2.0209,-2.0226,-1.988,0.0,0.0,0.0,0.0,0.0,0.0,0.0,0.0,0.0,0.0,0.0,0.0,0.0,0.0,0.0,0.0,0.0,0.0,0.0,0.0,0.0,0.0,0.0,0.0,0.0,0.0,0.0,0.0,0.0,0.0,0.0,0.0,0.0,0.0,0.0,0.0,0.0,0.0,0.0,0.0,0.0,0.0,0.0,0.0,0.0,0.0,0.0,0.0,0.0,0.0,0.0,0.0,0.0,0.0,0.0,0.0,0.0,0.0,0.0,0.0,-2.7241,0.0,0.0,0.0,0.0,0.0,0.0,0.0,0.0,0.0,0.0,0.0,0.0,0.0,0.0,0.0,0.0,0.0,0.0,0.0,0.0,0.0,0.0,0.0,0.0,0.0,0.0,0.0,0.0,0.0,0.0,0.0,0.0,0.0,0.0,0.0,0.0,0.0,0.0,0.0,0.0,-2.3567,-2.1794,-2.0762,-2.161,-2.0849,-2.0472,-2.0834,-2.0427,-2.0079,-1.9918,-1.9774,0.0,0.0,0.0,0.0,0.0,0.0,0.0,0.0,0.0,0.0,0.0,0.0,0.0,0.0,0.0,0.0,0.0,0.0,0.0,0.0,0.0,0.0,0.0,0.0,0.0,0.0,0.0,0.0,0.0,0.0,0.0,0.0,0.0,0.0,0.0,0.0,0.0,0.0,0.0,0.0,0.0,0.0,0.0,0.0,0.0,0.0,0.0,0.0,0.0,0.0,0.0,0.0,0.0,-3.0468,-3.0722,-3.0565,-2.9686,-2.9219,-2.8944,-2.668,-2.6602,-2.7967,-2.6521,0.0,0.0,0.0,0.0,0.0,0.0,0.0,0.0,0.0,0.0,0.0,0.0,0.0,0.0,0.0,0.0,0.0,0.0,0.0,0.0,0.0,0.0,0.0,0.0,-2.9088,-2.9333,0.0,0.0,0.0,0.0,0.0,0.0,0.0,0.0,0.0,0.0,0.0,0.0,-2.2998,-2.146,-2.0385,-2.0366,-2.0265,-2.0203,-2.0175,-2.0134,-2.0021,-1.9885,-1.9762,-1.9694,0.0,0.0,0.0,0.0,0.0,0.0,0.0,0.0,0.0,0.0,0.0,0.0,0.0,0.0,0.0,0.0,0.0,0.0,0.0,0.0,0.0,0.0,0.0,0.0,0.0,0.0,0.0,0.0,0.0,0.0,0.0,0.0,-2.3538,-2.4648,0.0,0.0,0.0,0.0,0.0,0.0,0.0,0.0,0.0,0.0,0.0,0.0,0.0,-2.9784,-3.0546,-3.0605,-3.0622,-3.0632,-3.0749,-3.0437,-2.9736,-2.8856,-2.8055,-2.7272,-2.6161,0.0,-2.7155,-2.6921,0.0,0.0,0.0,0.0,0.0,0.0,0.0,0.0,0.0,0.0,0.0,0.0,0.0,0.0,0.0,0.0,0.0,0.0,0.0,0.0,0.0,0.0,-2.8578,-3.0092,-2.9961,-2.9649,0.0,-2.9234,-2.8168,-2.8051,-2.7425,0.0,0.0,0.0,0.0,0.0,0.0,0.0,-2.2927,-2.1442,-2.036,-2.0242,-2.02,-2.0186,-2.0116,-2.0117,-1.9991,-1.9738,-1.9713,-1.9902,-2.0349,-1.9898,0.0,0.0,0.0,0.0,0.0,0.0,0.0,0.0,0.0,0.0,0.0,0.0,0.0,0.0,0.0,0.0,0.0,0.0,0.0,0.0,0.0,0.0,0.0,0.0,0.0,0.0,0.0,0.0,0.0,-2.2654,-2.4686,-2.5118,-2.6436,-2.7345,0.0,0.0,0.0,0.0,0.0,0.0,0.0,0.0,0.0,-3.0251,-3.0312,-3.0507,-3.0895,-3.0874,-3.0831,-3.0782,-3.0333,-2.9943,-2.9554,-2.8186,-2.7366,-2.6958,-2.6078,-2.5896,-2.6214,-2.6249,-2.6305,-2.6331,0.0,0.0,0.0,0.0,-2.5542,-2.5537,-2.551,-2.609,0.0,-2.5788,0.0,0.0,0.0,0.0,0.0,0.0,0.0,0.0,0.0,0.0,-2.7906,-2.9649,-2.9374,-2.8942,-2.9797,-2.9016,-2.8145,0.0,-2.7463,-2.6743,-2.6256,0.0,0.0,0.0,0.0,-2.2982,-2.2914,-2.1391,-2.0301,-2.02,-2.0169,-2.0134,-2.0098,-2.004,-1.9918,-1.9713,-1.9638,-1.9653,-1.9819,-1.9802,-2.0335,0.0,0.0,0.0,0.0,0.0,0.0,0.0,0.0,0.0,0.0,0.0,0.0,0.0,0.0,0.0,0.0,0.0,0.0,0.0,0.0,0.0,0.0,0.0,0.0,0.0,0.0,0.0,0.0,-2.4018,-2.5571,-2.6098,-2.7347,-2.8221,0.0,0.0,0.0,0.0,0.0,0.0,-2.9639,-2.9659,-3.0,-3.0879,-3.0898,-3.0896,-3.0895,-3.0889,-3.0845,-3.0782,-3.0196,-2.9689,-2.922,-2.7913,-2.7095,-2.6624,-2.5954,-2.5645,-2.5601,-2.5651,-2.6013,-2.6485,-2.5838,-2.5542,-2.5498,-2.5486,-2.548,-2.5473,-2.5453,-2.6029,-2.6631,-2.5732,0.0,-2.6321,-2.5667,0.0,0.0,0.0,0.0,-2.5751,-2.6604,-2.6669,-2.6961,-2.867,-2.8397,-2.7949,-2.8822,-2.8337,-2.7801,0.0,-2.7446,-2.6689,-2.601,0.0,0.0,0.0,0.0,-2.2927,-2.2861,-2.1343,-2.025,-2.0186,-2.0107,-2.005,-2.005,-1.9928,-1.9797,-1.9663,-1.9572,-1.9434,-1.9243,-1.9646,-2.0191,-2.0888,0.0,0.0,0.0,0.0,0.0,0.0,0.0,0.0,0.0,0.0,0.0,0.0,0.0,0.0,0.0,0.0,0.0,0.0,0.0,0.0,0.0,0.0,0.0,0.0,0.0,0.0,0.0,0.0,0.0,-2.8507,-2.8849,0.0,0.0,0.0,0.0,-2.9166,-2.8553,-2.8875,-3.0555,-2.997,-3.0,-3.0879,-3.0897,-3.0895,-3.0895,-3.0847,-3.0801,-3.0801,-3.0762,-2.9904,-2.8362,-2.8264,-2.7327,-2.5763,-2.5658,-2.5601,-2.5601,-2.5601,-2.5595,-2.5568,-2.5523,-2.5504,-2.5492,-2.5425,-2.5414,-2.5406,-2.5331,-2.5916,-2.6544,-2.561,-2.5387,-2.5461,-2.5418,-2.5453,0.0,0.0,-2.541,-2.5608,-2.6417,-2.6041,-2.5906,-2.7575,-2.7315,-2.691,-2.7788,-2.7296,-2.6964,0.0,-2.7446,-2.6871,-2.6757,0.0,-2.5488,-2.5432,-2.3937,-2.2794,-2.2716,-2.1238,-2.0186,-2.0107,-1.9981,-1.9918,-1.9918,-1.9786,-1.9663,-1.9513,-1.9499,-1.9357,-1.9031,-1.8966,-1.9255,-1.9866,-2.0537,0.0,0.0,0.0,0.0,0.0,0.0,0.0,0.0,0.0,0.0,0.0,0.0,0.0,0.0,0.0,0.0,0.0,0.0,0.0,0.0,0.0,0.0,0.0,0.0,0.0,0.0,0.0,0.0,-2.8811,-2.9481,0.0,-3.0037,-2.9322,-2.9193,-3.0064,-2.9419,-2.9492,-3.0707,-3.0562,-3.0586,-3.0898,-3.0896,-3.0894,-3.0891,-3.0825,-3.0801,-3.0782,-2.9708,-2.9162,-2.9103,-2.793,-2.7062,-2.6461,-2.6393,-2.6034,-2.5473,-2.5473,-2.546,-2.5432,-2.5432,-2.5403,-2.5365,-2.533,-2.534,-2.534,-2.5322,-2.5524,-2.5735,-2.5418,-2.5313,-2.534,-2.5331,-2.5385,-2.5414,-2.534,-2.5376,-2.5476,-2.5751,-2.5599,-2.555,-2.6157,-2.5627,-2.5241,-2.6099,-2.5608,-2.5269,-2.6188,-2.6138,-2.5936,-2.5893,-2.5642,-2.5239,-2.4643,-2.3554,-2.2593,-2.1996,-2.0922,-2.0159,-2.0098,-1.9981,-1.9907,-1.9907,-1.9713,-1.954,-1.9499,-1.9419,-1.932,-1.92,-1.9345,-1.9722,-2.0375,-2.0818,-2.1276,0.0,0.0,0.0,0.0,0.0,0.0,0.0,0.0,0.0,0.0,0.0,0.0,0.0,0.0,0.0,0.0,0.0,0.0,0.0,0.0,0.0,0.0,0.0,0.0,0.0,-2.6811,-2.7866,-2.8868,-2.9506,-2.9944,-3.0144,-2.9901,-2.9986,-3.0548,-3.0119,-3.0119,-3.0726,-3.0855,-3.0898,-3.0897,-3.0896,-3.0892,-3.0907,-3.0823,-3.0801,-3.0782,-2.9659,-2.9132,-2.9123,-2.8154,-2.7255,-2.6478,-2.6669,-2.6253,-2.5406,-2.5382,-2.5365,-2.5365,-2.5365,-2.535,-2.5303,-2.5303,-2.5303,-2.5303,-2.5303,-2.5303,-2.5303,-2.5303,-2.5303,-2.5303,-2.5302,-2.5313,-2.5312,-2.5283,-2.5293,-2.5331,-2.5322,-2.5101,-2.4899,-2.488,-2.4225,-2.3744,-2.4331,-2.3995,-2.3755,-2.4341,-2.4974,-2.5378,-2.5379,-2.537,-2.5149,-2.4572,-2.3485,-2.2525,-2.1952,-2.0868,-2.0152,-2.0098,-1.9939,-1.9832,-1.9832,-1.9599,-1.9434,-1.9434,-1.9286,-1.9164,-1.9102,-1.9252,-1.9577,-2.013,-2.0584,-2.1042,-2.1505,0.0,0.0,0.0,0.0,0.0,0.0,0.0,0.0,0.0,0.0,0.0,0.0,0.0,0.0,0.0,0.0,0.0,0.0,0.0,0.0,0.0,0.0,0.0,-2.738,-2.7494,-2.7866,-2.8836,-2.895,-2.9033,-2.9235,-3.0017,-3.052,-3.052,-3.0601,-3.0652,-3.0652,-3.0811,-3.0898,-3.0897,-3.0896,-3.0892,-3.0907,-3.0823,-3.0799,-3.0799,-3.0708,-2.9831,-2.8357,-2.8991,-2.7931,-2.5671,-2.6384,-2.6199,-2.5398,-2.5331,-2.5303,-2.5303,-2.5303,-2.5303,-2.5303,-2.5303,-2.5303,-2.5303,-2.5303,-2.5303,-2.5303,-2.5303,-2.5303,-2.5303,-2.5302,-2.5252,-2.5201,-2.5198,-2.5195,-2.5191,-2.5172,-2.453,-2.39,-2.3842,-2.3174,-2.2562,-2.2562,-2.2562,-2.2562,-2.2601,-2.4072,-2.5302,-2.5264,-2.5282,-2.5261,-2.5145,-2.367,0.0,-2.2524,-2.111,-2.0088,-2.0088,-1.9855,-1.9701,-1.9701,-1.9448,-1.9305,-1.9305,-1.9113,-1.8912,-1.8698,-1.8658,-1.8752,-1.9015,-1.9655,-2.0002,-2.0002,0.0,0.0,0.0,0.0,0.0,0.0,0.0,0.0,0.0,0.0,0.0,0.0,0.0,0.0,0.0,0.0,0.0,0.0,0.0,0.0,0.0,-2.6205,-2.6508,-2.738,-2.7533,-2.7687,-2.8025,-2.8145,-2.825,-2.8345,-2.8567,-2.8736,-2.8771,-2.9385,-2.9788,-2.9838,-3.0504,-3.0898,-3.0897,-3.0896,-3.0892,-3.0907,-3.0823,-3.0771,-3.0728,-3.0126,-2.9567,-2.9074,-2.857,-2.7648,-2.6417,-2.6562,-2.6121,-2.5331,-2.5322,-2.5303,-2.5303,-2.5303,-2.5303,-2.5303,-2.5303,-2.5303,-2.5303,-2.5303,-2.5303,-2.5303,-2.5303,-2.5303,-2.5303,-2.5302,-2.5252,-2.5201,-2.5198,-2.5195,-2.5057,-2.4415,-2.4091,-2.3594,-2.2371,-2.1904,-2.1732,-2.1732,-2.1732,-2.1904,-2.2486,-2.3024,-2.3562,-2.4192,-2.4823,-2.4793,-2.3509,-2.2906,0.0,-2.0938,-2.0404,-2.0088,-2.0088,-1.9855,-1.9701,-1.9701,-1.9448,-1.9305,-1.9305,-1.9117,-1.8948,-1.8843,-1.8999,-1.9297,-1.9705,-1.9925,-2.0002,0.0,0.0,0.0,0.0,0.0,0.0,0.0,0.0,0.0,0.0,0.0,0.0,0.0,0.0,0.0,0.0,0.0,0.0,0.0,0.0,0.0,0.0,-2.6374,-2.642,-2.7286,-2.721,-2.7084,-2.7194,-2.7283,-2.7383,-2.7456,-2.7793,-2.8012,-2.8066,-2.8893,-2.9418,-2.9458,-3.0367,-3.0898,-3.0897,-3.0896,-3.0894,-3.0907,-3.0494,-3.0264,-3.0185,-2.9323,-2.8707,-2.8307,-2.8064,-2.7294,0.0,-2.6477,-2.612,-2.5303,-2.5303,-2.5303,0.0,0.0,0.0,0.0,0.0,-2.5101,-2.4851,-2.5168,-2.5082,-2.4851,-2.5187,-2.5303,-2.5303,-2.5312,-2.5273,-2.5241,-2.522,-2.4938,-2.4553,-2.4033,-2.3384,-2.2601,-2.1636,-2.112,-2.0862,-2.0862,-2.0862,-2.0996,-2.1454,-2.1855,0.0,-2.2772,-2.3537,-2.3881,-2.3231,-2.2543,-2.1741,-2.0766,-2.0327,-2.0079,-2.0011,-1.9821,-1.9676,-1.9625,-1.9343,0.0,0.0,0.0,-1.8861,-1.8789,-1.9025,0.0,0.0,0.0,0.0,0.0,0.0,0.0,0.0,-2.3762,-2.4867,0.0,0.0,0.0,0.0,0.0,0.0,0.0,0.0,0.0,0.0,0.0,0.0,0.0,0.0,0.0,0.0,-2.6472,-2.6167,-2.704,-2.6579,-2.6206,-2.6339,-2.6428,-2.6486,-2.6566,-2.7252,-2.7716,-2.7716,-2.8682,-2.9269,-2.9269,0.0,0.0,0.0,0.0,-3.0817,-3.0616,-2.9833,-2.9313,-2.9059,-2.8221,-2.7349,-2.6527,-2.718,-2.6612,-2.5139,-2.5967,-2.589,-2.5168,-2.5264,-2.5245,-2.5168,-2.5264,-2.5245,-2.5149,-2.5149,-2.4659,-2.4072,-2.4774,0.0,0.0,-2.4909,-2.5091,-2.5053,-2.5245,-2.5178,-2.5013,-2.5069,-2.4443,-2.3741,-2.3643,-2.2505,-2.1388,-2.1273,-2.0652,-2.0088,-2.0088,-2.0088,-2.0088,-2.0088,-2.0709,-2.1273,-2.1388,-2.2066,-2.283,-2.3518,-2.2352,-2.1369,-2.1253,-2.0556,-2.003,-1.9877,0.0,0.0,-1.9499,-1.9191,-1.9081,-1.9259,-1.8948,-1.8697,-1.8528,-1.8736,-1.8631,-1.8086,-1.8535,-1.8454,-1.7811,-1.9191,-2.0331,-2.1237,-2.2963,-2.4313,0.0,0.0,0.0,0.0,0.0,0.0,0.0,0.0,0.0,0.0,0.0,0.0,0.0,0.0,0.0,-2.628,-2.5605,-2.5252,-2.6129,-2.5717,-2.5347,-2.545,-2.561,-2.5727,-2.5735,-2.5878,-2.5975,-2.5975,-2.7501,-2.8435,-2.8435,-2.9993,-3.0898,-3.0898,-3.0898,-3.0213,-2.8826,-2.8645,-2.7811,-2.6342,0.0,0.0,-2.4636,-2.4771,-2.4273,-2.3339,-2.4206,-2.4495,-2.4379,-2.5024,-2.4928,-2.4399,-2.5063,-2.4909,-2.4341,-2.4341,-2.3802,-2.3062,-2.3235,-2.3178,-2.3178,-2.4052,-2.3851,-2.3543,-2.488,-2.4351,0.0,-2.4053,-2.3591,-2.2776,-2.2077,-2.1646,-2.1216,-2.0518,-2.0232,-2.0088,-2.0088,-2.0088,-2.0088,-2.0088,-2.0251,-2.0575,-2.1273,-2.2066,-2.2429,-2.1961,-2.1617,-2.111,-2.0283,-2.0034,-1.9896,-1.975,-1.9625,-1.9526,-1.9499,-1.9191,-1.9014,-1.9064,-1.8698,-1.8365,-1.8117,-1.8124,-1.8058,-1.7949,-1.7991,-1.7946,-1.7811,-1.8691,-1.9824,-2.1254,-2.2756,-2.3901,0.0,0.0,0.0,0.0,0.0,0.0,0.0,0.0,0.0,0.0,0.0,-2.4725,-2.5124,0.0,-2.5149,-2.5921,-2.5236,-2.4746,-2.5225,-2.4776,-2.4422,-2.4495,-2.4706,-2.4691,-2.4234,-2.4196,-2.4196,-2.4196,-2.5479,-2.6451,-2.688,-2.8626,-2.9609,-2.9609,-2.9609,-2.8964,-2.7655,-2.6774,-2.5885,-2.495,-2.4475,-2.3989,-2.3499,-2.3493,-2.324,-2.2812,-2.3263,-2.3456,-2.3514,-2.4351,-2.4447,-2.4149,-2.4543,-2.4178,-2.3456,-2.3456,-2.2889,-2.2216,-2.2639,-2.2504,-2.2293,-2.3167,-2.3148,-2.2966,-2.3793,-2.3457,-2.2871,-2.3295,-2.2777,-2.201,-2.157,-2.113,-2.069,-2.025,-2.0126,-2.0088,-2.0088,-2.0088,-2.0079,-2.0001,-1.9991,-2.0114,-2.0478,-2.0884,-2.1172,-2.1276,-2.0872,-2.0369,-1.9866,-1.9797,-1.975,-1.9606,-1.954,-1.9472,-1.9405,-1.9143,-1.8964,-1.8913,-1.8622,-1.8365,-1.8218,-1.8074,-1.7966,-1.7905,-1.7878,-1.7816,-1.7811,-1.8538,-1.9283,-2.0078,-2.1583,-2.2885,0.0,0.0,0.0,0.0,0.0,0.0,0.0,-2.4678,-2.4341,-2.5139,-2.4666,-2.4304,-2.4981,-2.4902,-2.4945,-2.5555,-2.4862,-2.4275,-2.4323,-2.379,-2.3303,-2.3046,-2.3563,-2.3671,-2.297,-2.29,-2.29,-2.29,-2.3777,-2.4608,-2.5301,-2.6906,-2.7793,-2.7793,-2.7793,-2.7305,-2.6268,-2.4862,-2.3959,-2.3564,-2.2851,-2.2501,-2.2429,-2.2411,-2.2381,-2.2318,-2.2474,-2.2639,-2.2851,-2.3571,-2.3744,-2.359,-2.359,-2.3071,-2.2331,-2.2485,-2.2004,-2.137,-2.2062,-2.185,-2.1408,-2.2274,-2.2447,-2.237,-2.2697,-2.2562,-2.235,-2.2506,-2.1921,-2.125,-2.1252,-2.0736,-2.0201,-2.0174,-2.0108,-2.0069,-2.005,-2.004,-1.9991,-1.9877,-1.9855,-1.9821,-1.9713,-1.9676,-1.9939,-2.0781,-2.0219,-1.9688,-1.9663,-1.9663,-1.9612,-1.949,-1.9429,-1.9328,-1.9164,-1.8998,-1.8843,-1.8678,-1.8524,-1.8423,-1.8363,-1.8197,-1.8031,-1.7922,-1.7922,-1.7878,-1.7811,-1.8403,-1.8758,-1.8927,-2.0162,-2.1559,-2.3216,-2.1922,-2.1109,-2.3396,-2.2948,-2.2532,0.0,-2.4678,-2.4341,-2.5139,-2.5197,-2.5128,-2.5107,-2.4994,-2.487,-2.4835,-2.4004,-2.3351,-2.3368,-2.2795,-2.1832,-2.042,-2.1895,-2.301,-2.2917,-2.2898,-2.2905,-2.29,-2.3764,-2.435,-2.444,-2.543,-2.5992,-2.5996,-2.5996,-2.5234,-2.3633,-2.3378,-2.2499,-2.1013,-2.0841,-2.0781,-2.0763,-2.0642,-2.0585,-2.0618,-2.1344,-2.2081,-2.2812,-2.2908,-2.2485,-2.1793,-2.1793,-2.1293,-2.0677,-2.1389,-2.1139,-2.0446,-2.0562,-2.0523,-2.0581,-2.1389,-2.1158,-2.0869,-2.235,-2.1754,-2.0735,-2.1438,-2.1026,-2.0345,-2.0337,-2.0263,-2.0171,-2.0041,-2.001,-1.9988,-1.9858,-1.9793,-1.9738,-1.9726,-1.9726,-1.9713,-1.9701,-1.9593,-1.9604,-1.9826,-1.977,-1.9663,-1.9526,-1.9513,-1.9458,-1.935,-1.9162,-1.893,-1.8622,-1.8582,-1.8465,-1.8277,-1.8253,-1.8232,-1.8215,-1.8134,-1.807,-1.7983,-1.7922,-1.7878,-1.7811,-1.7873,-1.8268,-1.8894,-1.908,-1.9976,-2.1413,-2.2021,-2.2552,-2.2586,-2.2772,-2.3237,-2.4293,-2.4274,-2.4254,-2.4985,-2.508,-2.5006,-2.4842,-2.4731,-2.4476,-2.3929,-2.3475,-2.2868,-2.194,-2.1195,-2.0314,-1.9193,-1.9886,-2.0495,-2.0566,-2.0573,-2.0807,-2.1359,-2.1801,-2.2269,-2.2822,-2.3691,-2.4194,-2.4199,-2.4199,-2.3633,-2.2441,-2.1914,-2.1289,-2.0605,-2.0562,-2.0533,-2.0499,-2.0398,-2.0332,-2.0318,-2.0666,-2.1273,-2.2043,-2.2043,-2.1831,-2.1504,-2.1504,-2.0952,-2.0237,-2.0653,-2.06,-2.0312,-2.0312,-2.0312,-2.0369,-2.0696,-2.0581,-2.0411,-2.1041,-2.0736,-2.0248,-2.0593,-2.042,-2.0161,-2.0249,-2.0241,-2.018,-2.0125,-2.003,-1.9958,-1.9969,-1.9896,-1.9786,-1.9713,-1.9701,-1.965,-1.949,-1.9419,-1.9405,-1.9462,-1.9462,-1.9448,-1.939,-1.9376,-1.9316,-1.9146,-1.8964,-1.8825,-1.8696,-1.8563,-1.8445,-1.8383,-1.8256,-1.8211,-1.8211,-1.8151,-1.8005,-1.7766,-1.7704,-1.7549,-1.7337,-1.7479,-1.7716,-1.804,-1.862,-1.9249,-2.0662,-2.1876,-2.2754,-2.1922,-2.247,-2.3271,-2.3471,-2.3528,-2.3678,-2.4163,-2.4219,-2.4124,-2.3964,-2.4076,-2.3901,-2.3015,-2.2868,-2.2386,-2.0994,-2.0164,-1.937,-1.8546,-1.8527,-1.8646,-1.8781,-1.906,-1.9508,-2.0183,-2.032,-2.0687,-2.1374,-2.2023,-2.2372,-2.2382,-2.2402,-2.2129,-2.1523,-2.0918,-2.0586,-2.0566,-2.0565,-2.0558,-2.0497,-2.0426,-2.0357,-2.03,-2.03,-2.0619,-2.1177,-2.1177,-2.1177,-2.1177,-2.1177,-2.0751,-2.0162,-2.0269,-2.0277,-2.026,-2.0285,-2.0312,-2.0312,-2.0312,-2.0312,-2.0277,-2.0171,-2.0153,-2.0153,-2.0153,-2.0153,-2.019,-2.0277,-2.0269,-2.0225,-2.018,-2.006,-1.9931,-2.0001,-1.9928,-1.9809,-1.9676,-1.9676,-1.9612,-1.935,-1.9335,-1.935,-1.9305,-1.9305,-1.9305,-1.9305,-1.9305,-1.9212,-1.8964,-1.886,-1.877,-1.8641,-1.8505,-1.8423,-1.8423,-1.8277,-1.8168,-1.8087,-1.8027,-1.7816,-1.7496,-1.7415,-1.7272,-1.6993,-1.7191,-1.7288,-1.7305,-1.8052,-1.8399,-2.1814,-2.105,-2.0386,-2.1903,-2.1733,-2.1386,-2.2161,-2.2351,-2.2351,-2.2388,-2.2388,-2.2369,-2.229,-2.2918,-2.312,-2.2195,-2.2033,-2.1755,-2.0919,-2.0117,-1.9281,-1.8414,-1.8315,-1.8348,-1.8493,-1.9458,-2.0086,-2.0101,-2.0241,-2.0344,-2.0441,-2.0536,-2.0572,-2.0575,-2.0643,-2.0624,-2.0536,-2.0585,-2.0565,-2.0497,-2.0497,-2.0504,-2.0503,-2.043,-2.0353,-2.0304,-2.0304,-2.0308,-2.035,-2.035,-2.035,-2.035,-2.035,-2.0323,-2.0285,-2.0304,-2.0216,-2.0107,-2.026,-2.0312,-2.0312,-2.0312,-2.0312,-2.0304,-2.0304,-2.0285,-2.0285,-2.0285,-2.0285,-2.0285,-2.0304,-2.0304,-2.0269,-2.0135,-2.006,-1.9952,-1.9843,-1.9743,-1.9676,-1.9526,-1.9606,-1.9612,-1.935,-1.9405,-1.9462,-1.932,-1.9305,-1.9305,-1.9305,-1.9305,-1.918,-1.8843,-1.8807,-1.8639,-1.8236,-1.8211,-1.8211,-1.8211,-1.8211,-1.8087,-1.7811,-1.7749,-1.7549,-1.7216,-1.715,-1.7076,-1.6993,-1.7018,-1.7018,-1.7018,-1.7034,-1.7075,-1.7726,-1.8809,-1.9896,-2.0119,-2.037,-2.0641,-2.0982,-2.1038,-2.1176,-2.1607,-2.1752,-2.1719,-2.1569,-2.1789,-2.1734,-2.0878,-2.0733,-2.0477,-1.9707,-1.8904,-1.8334,-1.8122,-1.8529,-1.8837,-1.8879,-1.8989,-1.9303,-1.9926,-2.0012,-2.0088,-2.0266,-2.0297,-2.0366,-2.0492,-2.0521,-2.0529,-2.0495,-2.052,-2.0546,-2.0565,-2.052,-2.0192,-1.963,-1.9565,-1.9204,-1.8666,-1.9206,-1.9449,-1.9492,-2.0062,-2.0312,-2.0312,-2.0312,-2.0252,-2.019,-2.0269,-2.0216,-2.0126,-2.026,-2.0312,-2.0312,-2.0312,-2.0312,-2.0277,-2.0199,-2.0162,-2.0162,-2.0162,-2.0162,-2.0199,-2.0277,-2.0265,-2.023,-2.0178,-2.0079,-1.9991,-1.9928,-1.9858,-1.972,-1.9526,-1.9526,-1.9518,-1.9335,-1.935,-1.9301,-1.913,-1.9097,-1.9097,-1.9097,-1.8913,-1.8734,-1.862,-1.8465,-1.836,-1.8211,-1.8211,-1.8211,-1.8211,-1.8211,-1.8168,-1.8065,-1.7816,-1.7549,-1.7216,-1.6952,-1.6696,-1.6463,-1.6649,-1.6738,-1.6738,-1.6917,-1.6993,-1.4405,-1.597,-1.7349,-1.7275,-1.7772,-1.8377,-1.8824,-1.9055,-1.9397,-2.0117,-2.0279,-2.0297,-2.018,-2.0489,-2.0475,-1.9593,-1.9756,-1.9704,-1.8878,-1.8323,-1.8054,-1.8139,-1.8823,-1.9326,-1.9396,-1.9423,-1.9759,-2.0552,-2.0464,-2.0442,-2.0627,-2.0366,-2.0274,-2.0453,-2.0467,-2.0486,-2.0506,-2.0492,-2.0524,-2.0565,-2.0196,-1.974,-1.9188,-1.8813,-1.8327,-1.7831,-1.8352,-1.8724,-1.9037,-1.9607,-1.9988,-2.0225,-2.0225,-2.0144,-2.004,-2.0126,-2.0098,-2.006,-2.0244,-2.0312,-2.0312,-2.0312,-2.0312,-2.0277,-2.0199,-2.0162,-2.0153,-2.0098,-2.0088,-2.0126,-2.0208,-2.0152,-2.0106,-2.0142,-2.006,-1.996,-1.9958,-1.9881,-1.9757,-1.9604,-1.9585,-1.9545,-1.9368,-1.9323,-1.9243,-1.9031,-1.8964,-1.893,-1.893,-1.8752,-1.8582,-1.8505,-1.8383,-1.8277,-1.8211,-1.8211,-1.8211,-1.8211,-1.8108,-1.8005,-1.7917,-1.7595,-1.732,-1.7117,-1.6747,-1.6501,-1.6382,-1.6436,-1.6463,-1.6463,-1.6633,-1.6712,-1.1836,-1.2563,-1.2983,-1.3657,-1.4154,-1.4743,-1.5925,-1.6564,-1.7142,-1.7959,-1.8173,-1.8194,-1.8255,-1.9069,-1.9434,-1.8448,-1.9114,-1.942,-1.8467,-1.8344,-1.8366,-1.8366,-1.9089,-1.9666,-1.9917,-2.0652,-2.1277,-2.1803,0.0,-2.1208,-2.1366,-2.0616,-2.0244,-2.0385,-2.0398,-2.0406,-2.0438,-2.0447,-2.0428,-2.036,-1.9591,-1.9161,-1.9044,-1.8154,-1.7711,-1.7675,-1.7727,-1.8172,-1.8878,-1.8917,-1.9358,-1.9983,-1.9983,-1.9926,-1.9852,-1.9852,-1.989,-1.996,-2.0208,-2.0285,-2.0277,-2.0277,-2.0277,-2.0277,-2.0277,-2.0277,-2.0269,-2.0135,-2.0088,-2.0088,-2.0088,-1.9991,-1.9939,-2.0069,-2.0,-1.9915,-1.9904,-1.9862,-1.9774,-1.9712,-1.9732,-1.9688,-1.9435,-1.9323,-1.9212,-1.9014,-1.886,-1.877,-1.877,-1.877,-1.8678,-1.8485,-1.8465,-1.8383,-1.819,-1.8168,-1.8151,-1.819,-1.7939,-1.7658,-1.7432,-1.7076,-1.6901,-1.6885,-1.6501,-1.6421,-1.667,-1.6371,-1.6194,-1.6194,-1.6194,-1.6194,-0.6768,-0.8667,-1.0659,-1.1477,-1.1984,-1.2719,-1.4374,-1.5216,-1.5952,-1.6997,-1.7675,-1.7996,-1.7753,-1.8393,-1.8816,-1.83,-1.8643,-1.8909,-1.8711,-1.8256,-1.7963,-1.8017,-1.8771,-1.9321,-1.9408,-2.024,-2.0852,-2.1001,-2.0751,-2.0715,-2.0935,-2.0274,-1.9993,-2.0165,-2.021,-1.9991,-1.9457,-1.9563,-1.9273,-1.8632,-1.9013,-1.8549,-1.7339,-1.7031,-1.6545,-1.5974,-1.657,-1.6943,-1.7182,-1.7851,-1.8216,-1.8388,-1.8393,-1.8724,-1.9227,-1.9238,-1.9632,-2.0208,-2.0277,-2.0162,-1.9991,-1.9991,-1.9991,-1.9991,-1.9991,-2.0069,-2.0144,-2.0117,-2.0088,-2.0088,-2.0088,-1.9991,-1.9939,-2.0069,-2.0069,-2.002,-1.9926,-1.9892,-1.9793,-1.9518,-1.9442,-1.938,-1.9214,-1.9033,-1.8843,-1.8659,-1.8465,-1.8403,-1.8563,-1.8443,-1.826,-1.8009,-1.7988,-1.7883,-1.7635,-1.7612,-1.7681,-1.7895,-1.7658,-1.7566,-1.7681,-1.7175,-1.6876,-1.6841,-1.6474,-1.6301,-1.6344,-1.6234,-1.6194,-1.6194,-1.6194,-1.6067,-0.3502,-0.5369,-0.7253,-0.784,-0.8739,-0.991,-1.159,-1.2711,-1.3884,-1.5535,-1.6332,-1.6817,-1.7136,-1.7778,-1.8167,-1.7896,-1.8255,-1.8437,-1.8097,-1.7759,-1.7436,-1.7231,-1.7939,-1.8493,-1.8665,-1.9566,-2.0244,-2.0425,-2.0341,-2.0383,-2.0611,-2.0055,-1.9778,-1.9964,-1.9687,-1.9196,-1.8499,-1.8629,-1.8441,-1.7953,-1.8027,-1.7575,-1.6638,-1.6249,-1.5783,-1.5338,0.0,-1.6169,-1.6538,-1.704,-1.7414,-1.772,-1.7713,-1.7953,-1.8343,-1.8737,-1.9188,-1.9647,-2.0002,-2.003,-1.9928,-2.004,-2.0069,-2.0069,-2.0069,-2.0135,-2.019,-2.0126,-2.0088,-2.0088,-2.0088,-1.9991,-1.9939,-2.0069,-2.006,-1.9981,-1.9907,-1.9896,-1.9786,-1.9419,-1.9331,-1.924,-1.9016,-1.886,-1.8734,-1.8524,-1.8403,-1.8339,-1.838,-1.8155,-1.7961,-1.7811,-1.7681,-1.7566,-1.7408,-1.7384,-1.7455,-1.7612,-1.7361,-1.7288,-1.7432,-1.7002,-1.6815,-1.6892,-1.649,-1.6246,-1.6243,-1.6095,-1.6011,-1.5968,-1.5926,-1.5826,-0.1235,-0.2442,-0.3462,-0.3799,-0.5143,-0.6755,-0.838,-0.9804,-1.1438,-1.3722,-1.4605,-1.5277,-1.6298,-1.7016,-1.743,-1.7338,-1.7812,-1.7961,-1.7319,-1.712,-1.6857,-1.6332,-1.68,-1.7305,-1.7615,-1.8432,-1.9118,-1.9471,-1.9569,-1.9812,-2.027,-1.9778,-1.9529,-1.9616,-1.8799,-1.8081,-1.7501,-1.7633,-1.7652,-1.7535,-1.6907,-1.6543,-1.6426,-1.5729,-1.5368,-1.5303,-1.5316,0.0,-1.6338,-1.6333,-1.6713,-1.7308,-1.7305,-1.7289,-1.7394,-1.826,-1.865,-1.8859,-1.9667,-1.9941,-1.9991,-2.0171,-2.0252,-2.0252,-2.0252,-2.026,-2.0252,-2.0135,-2.0088,-2.0088,-2.0088,-1.9991,-1.9939,-2.0069,-1.9991,-1.9907,-1.9907,-1.9866,-1.9762,-1.9425,-1.9291,-1.9191,-1.886,-1.8789,-1.8678,-1.8485,-1.8463,-1.8403,-1.8232,-1.7922,-1.7749,-1.7704,-1.7432,-1.7264,-1.7216,-1.7199,-1.724,-1.7264,-1.7018,-1.6876,-1.6917,-1.6659,-1.6607,-1.6799,-1.6355,-1.612,-1.6181,-1.5924,-1.574,-1.5667,-1.5624,-1.5595,0.1302,0.0335,-0.0798,-0.1624,-0.2633,-0.4043,-0.6424,-0.8058,-0.9674,-1.1704,-1.3235,-1.4305,-1.4671,-1.5595,-1.6407,-1.6766,-1.6995,-1.7277,-1.7713,-1.6863,-1.6162,-1.6045,-1.5772,-1.5639,-1.5682,-1.5989,-1.6235,-1.6276,-1.6753,-1.7813,-1.9568,-1.9201,-1.8849,-1.8657,-1.7281,-1.6524,-1.6456,-1.6654,-1.6381,-1.5676,-1.6303,-1.6252,-1.56,-1.5469,-1.5386,-1.5374,-1.5375,0.0,-1.5585,-1.5539,-1.5613,-1.578,-1.5715,-1.6119,-1.6836,-1.7664,-1.8376,-1.9069,-1.9931,-2.0238,-2.0195,-2.0021,-1.9971,-1.9971,-1.9971,-2.005,-2.0135,-2.0117,-2.0088,-2.0088,-2.0088,-1.9991,-1.9939,-2.0069,-1.9991,-1.9907,-1.9907,-1.9732,-1.9569,-1.955,-1.932,-1.9081,-1.8913,-1.8697,-1.8485,-1.8277,-1.8236,-1.8253,-1.8211,-1.776,-1.7406,-1.7248,-1.6834,-1.6485,-1.6258,-1.6231,-1.634,-1.6549,-1.6324,-1.6285,-1.6496,-1.6191,-1.5983,-1.5838,-1.5696,-1.5551,-1.5477,-1.5623,-1.5609,-1.5374,-1.587,-1.5697,0.2279,0.1368,0.0368,-0.0103,-0.111,-0.2437,-0.4276,-0.5914,-0.7727,-0.9926,-1.1238,-1.2292,-1.3216,-1.4075,-1.4829,-1.5337,-1.6088,-1.6579,-1.6592,-1.6258,-1.5747,-1.495,-1.4648,-1.437,-1.4187,-1.4384,-1.4617,-1.4857,-1.5343,-1.6229,-1.7601,-1.7501,-1.7188,-1.6698,-1.6036,-1.5529,-1.5204,-1.5451,-1.5348,-1.496,-1.5497,-1.5575,-1.5198,-1.5335,-1.537,-1.5351,-1.538,0.0,-1.5409,-1.5377,-1.5379,-1.5407,-1.5355,-1.5854,-1.6704,-1.7551,-1.8377,-1.9202,-1.9986,-2.02,-2.0115,-1.9982,-1.9979,-1.9991,-1.9928,-2.0031,-2.015,-2.015,-2.015,-2.015,-2.015,-2.0031,-1.9928,-1.9981,-1.9869,-1.9752,-1.9752,-1.9569,-1.9368,-1.9256,-1.9079,-1.8859,-1.8624,-1.8238,-1.8044,-1.8215,-1.7777,-1.7499,-1.776,-1.7117,-1.677,-1.706,-1.6757,-1.6512,-1.6394,-1.6351,-1.6405,-1.6565,-1.6432,-1.6313,-1.6203,-1.5868,-1.5725,-1.5811,-1.5477,-1.53,-1.5359,-1.5344,-1.527,-1.5165,-1.527,-1.5134,0.2655,0.1888,0.1151,0.1109,0.015,-0.1096,-0.2333,-0.3817,-0.5647,-0.808,-0.9152,-1.0136,-1.1666,-1.2366,-1.2931,-1.3585,-1.46,-1.5254,-1.5139,-1.5344,-1.5122,-1.4022,-1.3716,-1.3435,-1.3029,-1.3128,-1.3362,-1.3735,-1.4045,-1.472,-1.5824,-1.5781,-1.5506,-1.5017,-1.4934,-1.4706,-1.4283,-1.4497,-1.4635,-1.4682,-1.4847,-1.4954,-1.4999,-1.5209,-1.5305,-1.5277,-1.531,0.0,0.0,-1.5562,-1.5597,-1.5699,-1.5823,-1.6173,-1.6748,-1.7786,-1.8601,-1.9296,-2.0001,-2.0167,-2.0072,-2.0058,-2.006,-2.006,-1.9982,-2.0086,-2.0241,-2.0241,-2.0241,-2.0241,-2.0241,-2.0129,-2.0012,-1.9964,-1.9846,-1.9692,-1.9489,-1.9327,-1.9099,-1.8716,-1.8555,-1.8387,-1.8139,-1.7693,-1.7528,-1.791,-1.7254,-1.6855,-1.7214,-1.6533,-1.6219,-1.6709,-1.6533,-1.6405,-1.6405,-1.6405,-1.6405,-1.6405,-1.6405,-1.6215,-1.587,-1.5609,-1.5551,-1.5667,-1.5211,-1.5015,-1.5043,-1.4907,-1.4814,-1.4735,-1.4596,-1.4578,0.2854,0.2609,0.2304,0.2108,0.1501,0.055,-0.1026,-0.2154,-0.3591,-0.6055,-0.7333,-0.8377,-0.9564,-1.0212,-1.0903,-1.195,-1.2135,-1.2594,-1.4006,-1.3838,-1.3718,-1.4212,-1.3374,-1.2701,-1.2424,-1.2073,-1.19,-1.1936,-1.1982,-1.3039,-1.5423,-1.4851,-1.4521,-1.4641,-1.395,-1.378,-1.4204,-1.4288,-1.4441,-1.4605,-1.47,-1.4798,-1.4916,-1.4998,-1.5091,-1.521,-1.51,0.0,0.0,-1.609,-1.6204,-1.6621,-1.7181,-1.7108,-1.6883,-1.8481,-1.9136,-1.9308,-2.011,-2.0371,-2.034,-2.0214,-2.0106,-2.0035,-2.0137,-2.0263,-2.0386,-2.0386,-2.0386,-2.0386,-2.0386,-2.0376,-2.0316,-2.0205,-2.0167,-1.9934,-1.9136,-1.8941,-1.8713,-1.7954,-1.7606,-1.744,-1.7411,-1.7197,-1.7028,-1.6962,-1.6846,-1.6795,-1.6754,-1.6423,-1.6034,-1.5675,-1.5521,-1.5418,-1.5418,-1.5418,-1.5418,-1.5418,-1.5418,-1.5418,-1.5373,-1.5328,-1.5102,-1.4658,-1.4596,-1.4356,-1.3941,-1.4168,-1.4136,-1.3908,-1.4456,-1.4392,0.3135,0.2954,0.2793,0.2506,0.1969,0.1194,0.0043,-0.141,-0.2976,-0.4597,-0.598,-0.7104,-0.763,-0.8453,-0.931,-1.014,-1.0822,-1.1599,-1.2474,-1.2807,-1.2898,-1.2574,-1.2331,-1.1895,-1.1266,-1.1085,-1.102,-1.1073,-1.1326,-1.1749,-1.2337,-1.2501,-1.2586,-1.2672,-1.2597,-1.2659,-1.2856,-1.2975,-1.3234,-1.3634,-1.3752,-1.3871,-1.3998,-1.4391,-1.4718,-1.4963,-1.4733,0.0,0.0,-1.594,-1.6063,-1.6669,-1.6903,-1.7169,-1.7541,-1.8494,-1.9171,-1.969,-2.0215,-2.0347,-2.0262,-2.0169,-2.0134,-2.0122,-2.0137,-2.0218,-2.0331,-2.0342,-2.0342,-2.0342,-2.0342,-2.0272,-2.0212,-2.014,-2.0058,-1.9865,-1.9517,-1.6529,-1.382,-1.3489,-1.223,-1.1487,-1.2303,-1.3959,-1.5561,-1.6636,-1.5525,-1.4979,-1.6134,-1.5154,-1.459,-1.5301,-1.5227,-1.5122,-1.5122,-1.5301,-1.5345,-1.5122,-1.5506,-1.5507,-1.5025,-1.4808,-1.47,-1.4686,-1.4356,-1.4227,-1.4241,-1.4342,-1.4232,-1.398,-1.413,-1.4,0.3375,0.3222,0.3093,0.2909,0.2371,0.1686,0.081,-0.0716,-0.2305,-0.3545,-0.5018,-0.6167,-0.646,-0.7295,-0.8141,-0.8721,-0.954,-1.0297,-1.0864,-1.1477,-1.1751,-1.1323,-1.145,-1.1296,-1.0514,-1.0303,-1.0286,-1.0437,-1.0504,-1.038,-0.9959,-1.0242,-1.054,-1.0888,-1.122,-1.1429,-1.1527,-1.1734,-1.2034,-1.2433,-1.2621,-1.2908,-1.3295,-1.3775,-1.427,-1.4722,-1.4575,0.0,0.0,-1.5321,-1.5235,-1.5518,-1.5708,-1.6034,-1.6493,-1.7049,-1.766,-1.8213,-1.8449,-1.848,-1.8387,-1.8338,-1.8352,-1.8398,-1.8331,-1.9199,-2.0147,-2.0019,-1.8787,-1.7521,-1.7536,-1.6244,-1.4914,-1.4914,-1.4813,-1.4651,-1.4407,-1.0946,-0.7823,-0.7578,-0.6235,-0.5434,-0.6384,-0.9338,-1.1984,-1.3263,-1.2,-1.1737,-1.4165,-1.2239,-1.1449,-1.3591,-1.3604,-1.3893,-1.5003,-1.5316,-1.536,-1.5093,-1.555,-1.555,-1.4963,-1.4651,-1.4525,-1.4651,-1.4163,-1.4,-1.4117,-1.4117,-1.4019,-1.3835,-1.3728,-1.3607,0.3612,0.3463,0.3306,0.3392,0.2945,0.2258,0.1314,0.0146,-0.1216,-0.3044,-0.4404,-0.5538,-0.6258,-0.6965,-0.7521,-0.7847,-0.7942,-0.8285,-0.9283,-0.9582,-1.0031,-1.0875,-1.1046,-1.0896,-1.0341,-0.9822,-0.9597,-0.9776,-0.9196,0.0,-0.9105,-0.8431,-0.8558,-0.9679,-0.9841,-1.0081,-1.0399,-1.0739,-1.0995,-1.1129,-1.1459,-1.2097,-1.3014,-1.3207,-1.3779,0.0,0.0,0.0,0.0,-1.4161,-1.3597,-1.3005,-1.3602,-1.3467,-1.3057,-1.3852,-1.4165,-1.4165,-1.4149,-1.417,-1.417,-1.4153,-1.4153,-1.4153,-1.4161,-1.6859,-1.9801,-1.9344,-1.5256,-1.1006,-1.1086,-0.6961,-0.2782,-0.2782,-0.2782,-0.2557,-0.1765,-0.1547,-0.1251,-0.0455,-0.0294,-0.0265,-0.0294,-0.3393,-0.5812,-0.5629,-0.5635,-0.694,-1.0412,-0.7357,-0.6299,-0.9948,-1.003,-1.1311,-1.4982,-1.5313,-1.5313,-1.5313,-1.5313,-1.5313,-1.5313,-1.4963,-1.4651,-1.43,-1.3914,-1.3547,-1.3198,-1.3198,-1.3198,-1.3198,-1.3198,-1.3198,0.3141,0.2934,0.2571,0.2571,0.2213,0.1707,0.1233,0.0,-0.142,-0.2676,-0.4178,-0.5404,-0.5939,-0.671,-0.7395,-0.7715,-0.7967,-0.8334,-0.9088,-0.9272,-0.9405,-0.9672,-0.9577,-0.9426,-0.9251,-0.8818,-0.8477,-0.8382,-0.8182,-0.7976,-0.774,-0.7251,-0.7398,-0.8377,-0.8582,-0.8659,-0.8612,-0.8718,-0.8971,-0.933,-0.9624,-0.9951,-1.034,-1.0873,-1.1413,0.0,0.0,0.0,0.0,-1.1648,-1.1761,-1.277,-1.2028,-1.1432,-1.1051,-1.1625,-1.1102,-1.011,-1.0436,-1.0749,-1.0973,-1.0649,-1.098,-1.1394,-1.0744,-1.3204,-1.6194,-1.6212,-1.492,-1.3563,-1.3593,-1.02,-0.6773,-0.6773,-0.4635,-0.2527,-0.2274,0.0988,0.3934,0.4202,0.55,0.6253,0.5306,0.2068,-0.0716,-0.1598,-0.09,-0.1015,-0.3079,-0.1311,-0.1686,-0.6392,-0.6773,-0.8018,-1.1284,-1.266,-1.3283,-1.3061,-1.4464,-1.5192,-1.4963,-1.4871,-1.4746,-1.4651,-1.4388,-1.4181,-1.4084,-1.398,-1.3728,-1.3323,-1.3391,-1.3391,0.2636,0.2622,0.2305,0.2222,0.1679,0.1131,0.0874,-0.0415,-0.1843,-0.2739,-0.4144,-0.5377,-0.5914,-0.665,-0.7222,-0.7427,-0.767,-0.7924,-0.8419,-0.8522,-0.8695,-0.8971,-0.8798,-0.8643,-0.8598,-0.8129,-0.7722,-0.7447,-0.712,-0.6789,-0.6531,-0.6153,-0.6168,-0.6604,-0.7147,-0.7442,-0.7499,-0.748,-0.7621,-0.7889,-0.8028,-0.8191,-0.8425,-0.8925,-0.9371,0.0,0.0,0.0,0.0,-0.8891,-0.8816,-0.936,-0.8474,-0.7985,-0.7784,-0.8031,-0.7466,-0.6602,-0.669,-0.704,-0.7345,-0.6652,-0.6846,-0.7235,-0.6746,-0.9193,-1.2127,-1.2195,-1.068,-0.9087,-0.9194,-0.5747,-0.2251,-0.2251,-0.0301,0.1647,0.2006,0.5397,0.8489,0.8828,1.047,1.1526,1.0665,0.7431,0.4695,0.3862,0.4485,0.4274,0.2047,0.3798,0.3519,-0.109,-0.1573,-0.2329,-0.4187,-0.8965,-1.1191,-0.9585,-1.2064,-1.35,-1.3283,-1.3162,-1.3095,-1.3095,-1.2858,-1.2722,-1.2722,-1.2643,-1.2692,-1.2879,-1.2319,-1.2354,0.0,0.2395,0.2321,0.209,0.1349,0.0586,0.0373,-0.0981,0.0,-0.3176,-0.4385,-0.5487,-0.6168,-0.6712,-0.7095,-0.7128,-0.7133,-0.7219,-0.741,-0.7672,-0.8016,-0.8609,-0.8459,-0.83,-0.8234,-0.7674,-0.7196,-0.6881,-0.6047,-0.5578,-0.5578,-0.5125,-0.4834,-0.4692,-0.5589,-0.6329,-0.6818,-0.6752,-0.6737,-0.6737,-0.6651,-0.6797,-0.7168,-0.7332,-0.7614,0.0,0.0,0.0,0.0,-0.5903,-0.5084,-0.385,-0.363,-0.3587,-0.363,-0.3493,-0.345,-0.332,-0.2832,-0.3011,-0.3317,-0.2428,-0.2074,-0.2029,-0.2283,-0.4932,-0.7774,-0.762,-0.3788,0.0176,-0.0087,0.4008,0.8198,0.818,0.841,0.8851,0.9722,1.0874,1.2032,1.2895,1.411,1.4979,1.4934,1.2039,0.9783,1.0008,0.9975,0.8818,0.5686,0.8255,0.8997,0.537,0.4972,0.5002,0.5098,-0.4101,-0.8405,-0.4958,-0.8298,-1.0417,-1.0417,-1.0352,-1.0358,-1.0358,-1.003,-0.9877,-0.9839,-0.9839,-1.0542,-1.1812,-1.0391,-1.0514,0.1202,0.0,0.1169,0.0631,0.0324,0.0,0.0,-0.1471,-0.2491,-0.3704,-0.4624,-0.5588,-0.69,-0.7099,-0.7203,-0.7569,-0.7628,-0.7715,-0.7951,-0.7876,-0.7783,-0.7688,-0.7595,-0.7321,-0.6704,-0.6555,-0.6146,-0.5361,-0.5211,-0.513,-0.513,-0.4391,-0.4069,-0.4367,-0.401,-0.422,-0.5156,-0.5145,-0.5182,-0.5311,-0.5458,-0.5606,-0.5693,-0.5704,-0.5722,0.0,0.0,0.0,-0.4435,-0.3175,-0.3048,-0.3493,-0.2502,-0.1624,-0.1006,-0.1093,-0.0044,0.1367,0.146,0.115,0.0663,0.0532,0.119,0.2014,0.1968,-0.0886,-0.4077,-0.4217,-0.2834,-0.1397,-0.1511,0.2367,0.6265,0.5939,0.8428,1.0856,1.0878,1.1119,1.141,1.1628,1.1932,1.1947,1.1213,1.0355,1.0148,1.1177,1.1352,1.1712,1.2701,1.3577,1.2758,0.921,0.8818,0.8842,0.8898,0.3037,-0.0266,0.0621,-0.3913,-0.6604,-0.6604,-0.9243,-1.0667,-1.0667,-1.0604,-1.045,-1.02,-1.02,-1.021,-1.0316,-1.021,-1.022,0.01,0.0467,0.0749,0.0163,-0.0221,-0.0615,-0.1286,-0.1986,-0.2843,-0.4103,-0.4656,-0.5354,-0.6618,-0.6783,-0.6874,-0.7349,-0.7406,-0.7544,-0.7957,-0.779,-0.7542,-0.7345,-0.71,-0.6681,-0.607,-0.5634,-0.5173,-0.4508,-0.4132,-0.3957,-0.4041,-0.3337,-0.3028,-0.3287,-0.2846,-0.3083,-0.4198,-0.4032,-0.3992,-0.4077,-0.3882,-0.3714,-0.3549,-0.3367,-0.3228,0.0,0.0,0.0,-0.2209,-0.133,-0.1149,-0.132,-0.0575,0.0177,0.0751,0.0751,0.1463,0.2455,0.2593,0.2551,0.237,0.1878,0.2366,0.3161,0.3161,0.1583,-0.0174,0.0,0.0086,0.0086,0.0,0.1937,0.3922,0.376,0.5698,0.7676,0.7965,0.8866,0.9759,1.0302,1.0939,1.1222,1.071,1.0628,1.0673,1.0861,1.1251,1.1694,1.2121,1.2555,1.1938,0.9614,0.9308,0.9778,1.1002,0.8495,0.6619,0.6069,0.1787,-0.072,-0.072,-0.2611,-0.3674,-0.3674,-0.3674,-0.3939,-0.4438,-0.3759,-0.3663,-0.4173,-0.5383,-0.5285,-0.0853,-0.0151,0.0479,-0.011,-0.0669,-0.1174,-0.179,-0.2465,-0.3193,-0.4187,-0.4567,-0.4956,-0.5863,-0.6146,-0.6382,-0.683,-0.6984,-0.7155,-0.7485,-0.7402,-0.7208,-0.711,-0.6559,-0.6053,-0.5662,-0.4861,-0.419,-0.3847,-0.3034,-0.2593,-0.2721,-0.2186,-0.1921,-0.1966,-0.1876,-0.2271,-0.3228,-0.3055,-0.2964,-0.2917,-0.2306,-0.1823,-0.156,-0.1246,-0.0937,-0.0626,0.0,0.0,0.0045,0.0134,0.0581,0.1253,0.1387,0.1654,0.1964,0.2055,0.2097,0.2097,0.2322,0.2682,0.2951,0.2457,0.2768,0.3306,0.3262,0.3217,0.335,0.3803,0.3499,0.2993,0.3001,0.2958,0.3005,0.3032,0.3423,0.3961,0.473,0.6364,0.8052,0.9074,1.0213,1.0991,1.0847,1.0816,1.0524,0.9669,1.0219,1.0267,0.8993,0.9395,0.9583,0.8993,0.8566,0.9297,1.1652,1.1625,1.1199,1.0557,0.7396,0.5275,0.4736,0.47,0.47,0.47,0.47,0.4093,0.2838,0.4097,0.4053,0.2779,0.0925,0.1028,-0.0785,-0.0655,-0.0718,-0.1381,-0.1588,-0.1846,-0.241,-0.2747,-0.3081,-0.3741,-0.4346,-0.4823,-0.53,-0.5962,-0.643,-0.6329,-0.6844,-0.7037,-0.6423,-0.6539,-0.645,-0.5724,-0.5481,-0.5126,-0.4416,-0.3887,-0.328,-0.2642,-0.2186,-0.1964,-0.1964,-0.1295,-0.1073,-0.1432,-0.0807,-0.0718,-0.1165,-0.1741,-0.1912,-0.1684,-0.1552,-0.1465,-0.1421,-0.0798,-0.0488,-0.0399,0.0,0.1115,0.1204,0.1563,0.1832,0.1966,0.1966,0.2275,0.2721,0.2637,0.2815,0.3129,0.2946,0.3252,0.369,0.3303,0.4041,0.5077,0.4817,0.4774,0.481,0.5079,0.5207,0.5434,0.5976,0.6949,0.7726,0.744,0.7553,0.769,0.7551,0.77,0.7916,0.8106,0.8341,0.8211,0.7405,0.7272,0.7547,0.8257,0.8489,0.9101,1.0579,1.0206,1.0067,1.0784,0.9422,0.898,1.023,0.9587,0.992,1.1777,1.0315,0.7959,0.4843,0.47,0.47,0.47,0.47,0.4602,0.4373,0.4602,0.4602,0.4337,0.3998,0.403,-0.1628,-0.1662,-0.1786,-0.2158,-0.2047,-0.1959,-0.2577,-0.2747,-0.297,-0.3466,-0.3796,-0.4089,-0.4492,-0.49,-0.5235,-0.5397,-0.5835,-0.6043,-0.5793,-0.5801,-0.5661,-0.5263,0.0,-0.4499,-0.4059,-0.3256,-0.266,-0.233,-0.1698,-0.134,-0.1431,-0.0851,-0.0538,-0.0583,-0.0269,0.0,0.0179,-0.0179,-0.0491,-0.0759,-0.0401,-0.0133,0.0133,0.0311,0.049,0.0713,0.0,0.1253,0.1431,0.1654,0.2055,0.2544,0.2544,0.2857,0.3262,0.322,0.3265,0.3398,0.3262,0.3344,0.3476,0.3347,0.4017,0.479,0.442,0.4591,0.4965,0.5286,0.5397,0.5533,0.6021,0.6723,0.7289,0.7217,0.747,0.7685,0.7462,0.7727,0.8024,0.8136,0.817,0.7807,0.6729,0.7092,0.7254,0.646,0.7286,0.7985,0.791,0.7853,0.7776,0.7731,0.6757,0.6641,0.7941,0.7596,0.8112,1.0038,1.2081,1.1225,0.6785,0.9243,1.022,0.9203,1.0511,1.1372,1.1708,1.1708,1.1708,1.1697,0.9672,0.9617,-0.2338,-0.2401,-0.2462,-0.2644,-0.2352,-0.2127,-0.2577,-0.2691,-0.2802,-0.3135,-0.3302,-0.3469,-0.3633,-0.3825,-0.4097,-0.4602,-0.4905,-0.5063,-0.5034,-0.4971,-0.483,-0.4718,-0.4306,-0.3929,-0.3579,-0.2637,-0.2035,-0.1927,-0.1072,-0.0582,-0.0671,-0.0179,0.018,0.0314,0.0359,0.0538,0.094,0.1073,0.0806,0.018,0.0627,0.1072,0.1383,0.1343,0.1523,0.1837,0.1524,0.1612,0.1923,0.1925,0.2368,0.3078,0.3078,0.3306,0.3588,0.3656,0.3614,0.3494,0.3481,0.3537,0.3533,0.3449,0.389,0.4432,0.3975,0.423,0.4739,0.525,0.5372,0.5415,0.5894,0.6216,0.6488,0.677,0.71,0.7388,0.7394,0.7909,0.8393,0.8575,0.8579,0.8254,0.7337,0.7662,0.7419,0.5498,0.6368,0.665,0.5109,0.5211,0.5195,0.4684,0.3924,0.3967,0.5137,0.5687,0.6184,0.6718,1.137,1.2323,0.8406,1.197,1.3339,1.1923,1.3764,1.4988,1.549,1.625,1.6604,1.6519,1.3683,1.3629,-0.2244,-0.2352,-0.2462,-0.2644,-0.2691,-0.2635,-0.2691,-0.2691,-0.2691,-0.2747,-0.3079,-0.3302,-0.2858,-0.3268,-0.3798,-0.4271,-0.4561,-0.4512,-0.3822,-0.4018,-0.4017,-0.3409,-0.33,-0.3032,-0.2481,-0.1838,-0.1303,-0.085,0.0045,0.0582,0.0582,0.1254,0.1524,0.121,0.139,0.1344,0.1074,0.1654,0.1698,0.1299,0.1344,0.1389,0.1433,0.1794,0.2196,0.264,0.2771,0.312,0.352,0.3486,0.349,0.3534,0.3534,0.3578,0.3612,0.3887,0.3897,0.3748,0.3788,0.4126,0.4519,0.4235,0.4534,0.4971,0.4714,0.4466,0.4514,0.525,0.5663,0.6049,0.6996,0.75,0.7894,0.8495,0.8547,0.8639,0.9117,0.9155,0.9096,0.9124,0.9026,0.8928,0.8862,0.7876,0.6976,0.6528,0.5677,0.4954,0.4492,0.3729,0.3529,0.4237,0.2733,0.174,0.1847,0.3912,0.424,0.2055,0.6328,0.8768,0.8392,0.8619,0.8703,0.8637,0.8812,0.8921,0.8974,1.1902,1.3351,1.3333,1.3066,1.3059,-0.2233,-0.2348,-0.2462,-0.2644,-0.2691,-0.2691,-0.2691,-0.2691,-0.2691,-0.2691,-0.2858,-0.2914,-0.2747,-0.2886,-0.3078,-0.3249,-0.3416,-0.3378,-0.3157,-0.325,-0.3129,-0.2548,-0.2447,-0.2247,-0.1747,-0.1175,-0.0805,-0.0716,-0.009,0.0403,0.0671,0.0985,0.1254,0.1614,0.1703,0.1703,0.1703,0.1927,0.2059,0.2103,0.2235,0.2499,0.2763,0.2635,0.2591,0.2724,0.2765,0.2854,0.299,0.3262,0.353,0.3806,0.3813,0.3915,0.3965,0.3982,0.3982,0.399,0.4341,0.4656,0.4853,0.5104,0.5679,0.6052,0.5278,0.5282,0.5503,0.5139,0.5122,0.5515,0.688,0.7535,0.7978,0.819,0.8196,0.8196,0.8302,0.8084,0.8031,0.8573,0.8408,0.8131,0.7966,0.7528,0.6892,0.5951,0.5407,0.5116,0.4996,0.4485,0.43,0.4638,0.3323,0.243,0.2373,0.3413,0.3306,0.1654,0.6013,0.7254,0.4111,0.694,0.8035,0.6888,0.8303,0.9248,0.9669,1.0779,1.1319,1.1319,1.1319,1.1102,-0.2233,-0.2368,-0.2497,-0.2652,-0.2691,-0.2691,-0.2691,-0.2691,-0.2691,-0.2691,-0.2691,-0.2691,-0.2691,-0.2691,-0.2691,-0.2691,-0.2691,-0.2715,-0.2728,-0.2768,-0.259,-0.1965,-0.1947,-0.1729,-0.1078,-0.0716,-0.0403,-0.0224,0.0179,0.0627,0.0,0.1297,0.1611,0.2152,0.2152,0.2196,0.2333,0.2509,0.2684,0.2904,0.3252,0.3426,0.3385,0.3031,0.2943,0.2984,0.2943,0.2946,0.3037,0.3306,0.3643,0.4021,0.4091,0.4174,0.4285,0.423,0.4182,0.4198,0.4652,0.477,0.4821,0.5229,0.5728,0.602,0.5212,0.5276,0.5505,0.4979,0.4745,0.4951,0.6157,0.6804,0.7261,0.7506,0.76,0.7664,0.7771,0.7439,0.7326,0.7925,0.7646,0.7202,0.7042,0.6661,0.6063,0.5023,0.459,0.4316,0.421,0.4019,0.3893,0.3899,0.3069,0.2544,0.2507,0.2713,0.2515,0.1722,0.477,0.499,0.1495,0.4598,0.5823,0.4533,0.6091,0.7125,0.7591,0.8504,0.8938,0.8938,0.8938,0.8667,-0.2233,-0.2465,-0.263,-0.2668,-0.2691,-0.2691,-0.2691,-0.2691,-0.2691,-0.2691,-0.2691,-0.2691,-0.2691,-0.2691,-0.2691,-0.2691,-0.2691,-0.266,-0.262,-0.2713,-0.2536,-0.1772,-0.1851,-0.1543,-0.0494,-0.0447,-0.0089,0.085,0.1208,0.0,0.0,0.2595,0.2912,0.2912,0.2912,0.2912,0.2912,0.3439,0.3697,0.37,0.4312,0.4001,0.2898,0.2898,0.3164,0.3605,0.3483,0.3663,0.4064,0.3972,0.4029,0.4196,0.4353,0.4466,0.4511,0.4628,0.4642,0.4527,0.4522,0.4519,0.4519,0.4519,0.4519,0.4519,0.4519,0.4308,0.4224,0.4747,0.4678,0.4594,0.4969,0.5344,0.5788,0.6571,0.696,0.7241,0.7765,0.754,0.7261,0.7315,0.6822,0.6387,0.6387,0.5307,0.433,0.4048,0.2954,0.2073,0.1797,0.1797,0.1774,0.1713,0.1653,0.1642,0.1702,0.1707,0.1733,0.1793,0.1797,0.1688,0.1419,0.1364,0.1285,0.1279,0.128,0.1302,0.1346,0.4432,0.5951,0.5951,0.5951,0.5871,-0.2266,-0.2465,-0.263,-0.2668,-0.2691,-0.2691,-0.2691,-0.2691,-0.2691,-0.2691,-0.2691,-0.2691,-0.2691,-0.2691,-0.2691,-0.2691,-0.2691,-0.2548,-0.203,-0.1975,-0.1658,-0.0621,-0.0556,-0.0363,0.018,0.0224,0.0448,0.0985,0.103,0.0,0.0,0.2415,0.2595,0.2912,0.3217,0.3214,0.2912,0.3306,0.3571,0.3697,0.3873,0.4008,0.4012,0.4092,0.3913,0.3609,0.4012,0.4012,0.3788,0.4052,0.4363,0.4638,0.4546,0.4711,0.4931,0.4867,0.4816,0.4834,0.516,0.5289,0.5344,0.5609,0.5719,0.5609,0.5171,0.5027,0.4892,0.4508,0.4326,0.4334,0.4535,0.4765,0.5058,0.5375,0.5788,0.6109,0.6268,0.6209,0.6204,0.6573,0.6293,0.6072,0.6338,0.5358,0.4491,0.4326,0.2841,0.1623,0.1066,0.129,0.1441,0.1444,0.1295,0.1353,0.1655,0.2223,0.2318,0.1852,0.2569,0.2601,0.1744,0.1688,0.1641,0.1659,0.1548,0.1885,0.2726,0.2678,0.2957,0.3429,0.2658,0.2073,-0.2419,-0.2549,-0.2621,-0.2508,-0.2521,-0.2465,-0.2352,-0.2521,-0.2691,-0.2691,-0.2691,-0.2635,-0.2408,-0.2352,-0.224,-0.2015,-0.1959,-0.1825,-0.1389,-0.134,-0.0993,-0.0096,0.0,0.0224,0.0807,0.0853,0.1076,0.1701,0.0,0.0,0.0,0.2679,0.2771,0.2998,0.3258,0.3211,0.2951,0.3394,0.366,0.3788,0.4056,0.4364,0.4631,0.4622,0.4395,0.4001,0.4364,0.4276,0.3917,0.4184,0.4442,0.4662,0.4685,0.4833,0.5089,0.4988,0.4956,0.5011,0.523,0.5344,0.5344,0.5559,0.5614,0.55,0.5117,0.5007,0.4897,0.4467,0.4301,0.4336,0.4301,0.4399,0.4563,0.4819,0.5128,0.5399,0.5344,0.5175,0.5117,0.5487,0.5214,0.4995,0.5261,0.4663,0.4116,0.3895,0.2621,0.1455,0.0841,0.101,0.1113,0.1145,0.1053,0.1113,0.1363,0.1821,0.1898,0.1402,0.2179,0.2289,0.1572,0.1685,0.1797,0.1797,0.1741,0.2017,0.2676,0.1903,0.168,0.206,0.1399,0.0842,-0.2561,-0.2676,-0.2635,-0.2296,-0.2183,-0.2127,-0.1846,-0.2184,-0.2577,-0.2577,-0.2521,-0.2352,-0.179,-0.1675,-0.1504,-0.0949,-0.0892,-0.0827,-0.0752,-0.0672,-0.0448,0.0096,0.0184,0.0536,0.1387,0.1389,0.1744,0.0,0.0,0.0,0.0,0.3258,0.3258,0.3258,0.3208,0.3164,0.3123,0.37,0.3968,0.3968,0.4635,0.4898,0.4801,0.4709,0.4618,0.4618,0.4539,0.4451,0.432,0.4316,0.4427,0.4517,0.4735,0.4918,0.5104,0.512,0.5128,0.5124,0.4956,0.4901,0.4901,0.4743,0.4743,0.4688,0.4574,0.4519,0.4515,0.4519,0.4519,0.4463,0.4304,0.4249,0.4323,0.4658,0.49,0.5014,0.4901,0.4567,0.4288,0.4233,0.391,0.3638,0.3585,0.3585,0.3471,0.3074,0.2404,0.1623,0.0953,0.0897,0.0897,0.0842,0.0842,0.0842,0.0898,0.0842,0.0785,0.0729,0.1066,0.1178,0.1066,0.1515,0.1797,0.1797,0.1797,0.1853,0.1964,0.1853,0.1796,0.1738,0.1628,0.1347,-0.2597,-0.2676,-0.2635,-0.2296,-0.2015,-0.1846,-0.179,-0.1621,-0.1454,-0.1454,-0.1174,-0.0894,-0.095,-0.0875,-0.0757,-0.0723,-0.0765,-0.0649,-0.0111,0.0157,0.0501,0.1097,0.1449,0.1741,0.1921,0.1921,0.0,0.0,0.0,0.0,0.335,0.37,0.3869,0.3734,0.443,0.4565,0.4008,0.4408,0.4495,0.0,0.4456,0.4675,0.4941,0.4941,0.4849,0.4753,0.4622,0.4535,0.4456,0.4535,0.4602,0.4696,0.4885,0.5073,0.5266,0.5233,0.5242,0.5242,0.5124,0.5069,0.5014,0.4901,0.4846,0.4846,0.4846,0.4791,0.4791,0.4688,0.4632,0.4632,0.4463,0.4408,0.4401,0.4371,0.4553,0.4743,0.4629,0.4739,0.4791,0.4288,0.4125,0.3962,0.3638,0.3585,0.3357,0.2736,0.2569,0.2068,0.0897,0.1008,0.1008,0.0561,0.0393,0.0505,0.0842,0.0561,0.0505,0.0842,0.0842,0.0842,0.0785,0.1459,0.1797,0.1797,0.1797,0.224,0.3118,0.224,0.2071,0.2613,0.1621,0.0954,-0.2597,-0.2511,-0.2298,-0.1624,-0.1232,-0.1008,-0.0784,-0.0392,-0.0056,-0.0056,-0.0276,-0.0382,-0.0218,-0.0159,-0.0052,0.0159,0.0157,0.0261,0.0639,0.0965,0.1272,0.1571,0.1953,0.2277,0.2455,0.2499,0.0,0.0,0.0,0.3353,0.3792,0.4052,0.4268,0.4434,0.4826,0.4913,0.4526,0.4797,0.4845,0.4583,0.4762,0.4893,0.499,0.499,0.4941,0.4801,0.4709,0.4622,0.4539,0.4574,0.4631,0.4649,0.4897,0.5091,0.5238,0.5267,0.5387,0.5407,0.5238,0.5183,0.5183,0.5014,0.5011,0.4956,0.4901,0.4897,0.4901,0.4794,0.4794,0.4739,0.4629,0.4408,0.4128,0.3965,0.419,0.4415,0.4298,0.4408,0.4463,0.407,0.4015,0.3907,0.3638,0.3585,0.3357,0.2681,0.2402,0.19,0.0897,0.0728,0.056,0.0224,0.0168,0.0224,0.0449,0.0224,0.0168,0.0336,0.0505,0.0505,0.0449,0.1066,0.1403,0.1459,0.1234,0.1512,0.2343,0.1512,0.1287,0.1615,0.0951,0.0505,-0.2557,-0.2271,-0.1779,-0.0896,-0.0393,0.0,0.0336,0.0785,0.1122,0.1122,0.0436,0.0,0.0479,0.0566,0.065,0.1159,0.1303,0.1351,0.136,0.1753,0.2042,0.2,0.2294,0.2677,0.2987,0.3031,0.0,0.0,0.0,0.3755,0.4144,0.4316,0.4618,0.5005,0.5048,0.5043,0.5,0.5183,0.5145,0.4975,0.5241,0.529,0.512,0.512,0.5029,0.4845,0.4845,0.4757,0.4618,0.4661,0.4661,0.464,0.4842,0.5039,0.5237,0.5332,0.5464,0.5622,0.5407,0.5352,0.5352,0.5183,0.5128,0.5128,0.5011,0.4956,0.4956,0.4956,0.4956,0.4901,0.4743,0.4298,0.3796,0.3683,0.3799,0.3968,0.3913,0.3968,0.3965,0.3741,0.3574,0.3463,0.3469,0.3469,0.3302,0.2905,0.2404,0.1847,0.1121,0.0616,0.0224,0.0,0.0,0.0,0.0,0.0,-0.0056,-0.0168,0.0112,0.0224,0.0112,0.0505,0.0785,0.0954,0.0617,0.0617,0.101,0.0617,0.0336,0.0224,0.0224,0.0168,-0.2411,-0.1825,-0.108,-0.078,-0.0168,0.0336,0.0393,0.0785,0.1122,0.1122,0.1256,0.1385,0.1385,0.136,0.1359,0.1356,0.1666,0.1889,0.1954,0.2629,0.3086,0.3089,0.3342,0.352,0.3609,0.0,0.0,0.0,0.3581,0.3622,0.3711,0.4447,0.4923,0.5009,0.5755,0.6062,0.5847,0.5847,0.5761,0.5593,0.5636,0.5636,0.5593,0.5593,0.5376,0.4985,0.4985,0.4893,0.4801,0.4893,0.4893,0.4776,0.4983,0.5182,0.5376,0.5426,0.5624,0.5736,0.5622,0.5567,0.5513,0.5352,0.5297,0.5242,0.5242,0.5242,0.5242,0.5124,0.5069,0.5069,0.4901,0.4408,0.3965,0.3796,0.3405,0.313,0.3413,0.3858,0.3968,0.3299,0.2683,0.2348,0.2738,0.2794,0.2961,0.3413,0.3416,0.2965,0.1846,0.1623,0.1175,0.0112,0.0,0.0,0.0,0.0,0.0,0.0,-0.0112,-0.0112,-0.0168,-0.0224,-0.0056,0.0336,0.0561,0.0673,0.0729,0.0505,0.0393,0.0393,0.0393,0.0336,-0.1738,-0.1333,-0.0824,0.0056,0.0561,0.0842,0.1122,0.1347,0.1515,0.1515,0.1584,0.1696,0.1557,0.1534,0.1568,0.1748,0.1952,0.2171,0.249,0.306,0.3468,0.3501,0.3753,0.3917,0.3964,0.0,0.0,0.0,0.4016,0.4232,0.4748,0.5178,0.5394,0.5394,0.6062,0.6233,0.5836,0.6105,0.611,0.5847,0.5766,0.568,0.568,0.568,0.5593,0.5376,0.5246,0.5154,0.5067,0.5029,0.4985,0.4907,0.4995,0.5227,0.5515,0.5453,0.5632,0.59,0.5736,0.5677,0.5567,0.5513,0.5407,0.5297,0.5297,0.5297,0.5297,0.5242,0.5187,0.5183,0.5069,0.457,0.4015,0.3519,0.3128,0.285,0.2629,0.3297,0.3744,0.3355,0.2907,0.2573,0.2348,0.2293,0.246,0.3019,0.2796,0.2517,0.2348,0.2014,0.1623,0.1064,0.1008,0.0896,0.0561,0.084,0.084,0.0505,0.0449,0.056,0.0896,0.056,0.056,0.1064,0.0448,0.0336,0.0896,0.056,0.0393,0.0393,0.0336,0.0112,-0.1339,-0.1017,-0.0602,0.0614,0.1122,0.1347,0.1741,0.1797,0.1853,0.202,0.1978,0.1975,0.2058,0.1884,0.1907,0.2284,0.2449,0.2663,0.3034,0.3476,0.3784,0.3859,0.4003,0.4118,0.4153,0.0,0.0,0.0,0.4451,0.4792,0.548,0.5653,0.5696,0.5696,0.6142,0.6233,0.5873,0.6233,0.6288,0.611,0.5938,0.5895,0.5895,0.5895,0.5895,0.5852,0.555,0.5371,0.5285,0.5159,0.5029,0.499,0.499,0.524,0.5609,0.5506,0.571,0.6005,0.59,0.5786,0.5677,0.5618,0.5513,0.5352,0.5352,0.5352,0.5352,0.5352,0.5352,0.5352,0.5183,0.4736,0.4125,0.3516,0.3072,0.2681,0.2293,0.2681,0.3128,0.2963,0.2685,0.235,0.1903,0.1849,0.1959,0.246,0.2125,0.1958,0.2237,0.1846,0.1568,0.1568,0.1568,0.1456,0.1177,0.1568,0.1623,0.1177,0.1121,0.1344,0.179,0.1344,0.1344,0.179,0.0728,0.0504,0.1229,0.084,0.0616,0.0616,0.0503,0.0224,-0.1587,-0.0861,-0.0155,0.0331,0.1122,0.1797,0.1797,0.1797,0.1964,0.2516,0.2676,0.2811,0.3298,0.2878,0.2578,0.3,0.3404,0.3681,0.3581,0.3961,0.4276,0.4288,0.4156,0.4112,0.412,0.0,0.0,0.0,0.4797,0.5053,0.5053,0.5437,0.5696,0.5696,0.6142,0.6367,0.6373,0.6367,0.6416,0.6373,0.6373,0.6373,0.6373,0.6373,0.6373,0.6331,0.5895,0.555,0.5285,0.5285,0.5159,0.499,0.499,0.524,0.5609,0.5609,0.5822,0.6173,0.6059,0.6005,0.595,0.5677,0.5567,0.5567,0.5567,0.5567,0.5567,0.5567,0.5567,0.5513,0.5352,0.4908,0.4405,0.4181,0.3289,0.2567,0.2625,0.2235,0.1846,0.1733,0.1232,0.0953,0.129,0.1346,0.1514,0.1959,0.2015,0.1736,0.1065,0.0953,0.0953,0.0953,0.0953,0.1177,0.1734,0.179,0.179,0.1734,0.1734,0.179,0.179,0.179,0.179,0.179,0.1734,0.1621,0.1566,0.1342,0.123,0.123,0.1229,0.1229,-0.1061,-0.0544,-0.0102,0.0965,0.1467,0.1749,0.1788,0.1797,0.202,0.2683,0.2736,0.3003,0.4053,0.367,0.3289,0.3658,0.3879,0.4104,0.4336,0.4427,0.4491,0.4601,0.4369,0.428,0.4351,0.0,0.0,0.0,0.0,0.5486,0.6056,0.6179,0.6087,0.5787,0.619,0.6416,0.6416,0.6416,0.6416,0.6416,0.6416,0.6416,0.6416,0.6416,0.6416,0.6373,0.6239,0.5981,0.5717,0.5593,0.542,0.5203,0.5203,0.5377,0.5609,0.5609,0.5873,0.6178,0.5841,0.5668,0.5555,0.5445,0.534,0.5348,0.5626,0.5736,0.5736,0.5622,0.534,0.5066,0.5238,0.4908,0.446,0.4233,0.3345,0.2456,0.2404,0.2125,0.1902,0.1734,0.1567,0.1288,0.0953,0.0898,0.1065,0.1514,0.1569,0.1569,0.1737,0.1737,0.1681,0.1624,0.1624,0.168,0.179,0.2179,0.2402,0.2516,0.2516,0.2738,0.3183,0.285,0.2794,0.3072,0.3072,0.2847,0.2291,0.2235,0.2178,0.2178,0.2122,0.1843,-0.1185,-0.0582,-0.01,0.0894,0.1438,0.1722,0.1783,0.1964,0.2296,0.3016,0.3236,0.3624,0.4677,0.4483,0.4154,0.4415,0.4491,0.4572,0.4763,0.461,0.4542,0.4702,0.4455,0.4321,0.4442,0.0,0.0,0.0,0.0,0.0,0.6672,0.6575,0.6349,0.605,0.6276,0.641,0.6453,0.641,0.6416,0.6416,0.6416,0.6416,0.6416,0.6416,0.6416,0.6373,0.6233,0.6105,0.5976,0.5852,0.5636,0.542,0.542,0.5601,0.5849,0.5658,0.5817,0.6064,0.5791,0.5454,0.5171,0.5281,0.5175,0.5073,0.5513,0.5622,0.5622,0.5508,0.5226,0.4893,0.4853,0.4684,0.4405,0.407,0.3566,0.3014,0.2404,0.2015,0.1736,0.1624,0.1624,0.1456,0.1009,0.0898,0.0954,0.1122,0.1178,0.1289,0.1568,0.1624,0.1624,0.1736,0.1792,0.1792,0.1902,0.2293,0.2571,0.2683,0.2683,0.2905,0.3352,0.3019,0.3019,0.3574,0.3574,0.3294,0.2792,0.2905,0.3019,0.3019,0.2905,0.2569,0.0,0.0,0.0,0.0,0.0902,0.1663,0.1781,0.2235,0.2841,0.3458,0.4067,0.4622,0.5187,0.5297,0.5241,0.5108,0.5193,0.5186,0.4849,0.4622,0.4513,0.4513,0.4398,0.4332,0.0,0.0,0.0,0.0,0.6355,0.6836,0.6715,0.6568,0.6477,0.6477,0.6404,0.6404,0.6483,0.6404,0.6367,0.6367,0.6373,0.6373,0.6373,0.6367,0.6367,0.6367,0.5922,0.5836,0.6024,0.5976,0.5895,0.5723,0.5723,0.6005,0.632,0.5746,0.571,0.6005,0.5845,0.5403,0.4952,0.5171,0.5011,0.4743,0.5171,0.5277,0.5277,0.5281,0.5281,0.5058,0.4187,0.4242,0.4349,0.3735,0.407,0.4125,0.279,0.1902,0.1346,0.1291,0.1291,0.1291,0.1291,0.1291,0.1234,0.0954,0.0898,0.0785,0.0449,0.0449,0.0617,0.1234,0.129,0.1514,0.2128,0.2183,0.2183,0.2184,0.2184,0.2184,0.224,0.224,0.2462,0.3074,0.3074,0.3019,0.2905,0.3357,0.3583,0.3527,0.3527,0.3244,-0.2056,0.0,0.0,0.0,0.0,0.0,0.1066,0.1482,0.2107,0.2932,0.3447,0.4006,0.471,0.5234,0.54,0.5161,0.5194,0.5263,0.5156,0.5048,0.4934,0.4934,0.4771,0.4609,0.0,0.0,0.0,0.0,0.5696,0.613,0.6386,0.6349,0.6093,0.5653,0.5927,0.6062,0.6002,0.5964,0.5922,0.5873,0.5529,0.5404,0.5399,0.575,0.5873,0.5922,0.6099,0.6239,0.6282,0.5922,0.5836,0.5938,0.5938,0.6095,0.6369,0.6223,0.6161,0.6105,0.5786,0.5238,0.4743,0.4849,0.4739,0.4629,0.5014,0.5066,0.5007,0.4904,0.457,0.407,0.3519,0.3744,0.4021,0.3683,0.3738,0.3738,0.3403,0.3125,0.2627,0.1514,0.1291,0.1291,0.1291,0.1291,0.129,0.1178,0.1178,0.1178,0.1066,0.0954,0.0954,0.101,0.0898,0.1065,0.1514,0.157,0.1793,0.2352,0.241,0.2464,0.2571,0.2571,0.2571,0.2687,0.2687,0.2575,0.2406,0.2852,0.2796,0.2293,0.2293,0.246,-0.2647,-0.2055,-0.1563,-0.0944,0.0,0.0,0.0695,0.1216,0.1883,0.2652,0.3185,0.3758,0.4494,0.4901,0.5148,0.5156,0.5218,0.5242,0.5242,0.508,0.4995,0.5072,0.4918,0.4763,0.0,0.473,0.4864,0.5063,0.5451,0.5782,0.5953,0.5916,0.575,0.5399,0.5572,0.5707,0.5663,0.5793,0.5744,0.5524,0.5443,0.5275,0.5053,0.5313,0.5437,0.5394,0.5491,0.5626,0.5798,0.5313,0.5534,0.6153,0.597,0.6225,0.6659,0.6175,0.6054,0.6041,0.5504,0.4904,0.4467,0.4632,0.4522,0.4353,0.4739,0.4791,0.468,0.4519,0.4018,0.3463,0.3186,0.3463,0.3796,0.3627,0.3683,0.3685,0.3461,0.3572,0.335,0.2127,0.1903,0.1793,0.1572,0.1515,0.1515,0.1459,0.1403,0.1403,0.1291,0.1234,0.1234,0.1401,0.1345,0.1512,0.2014,0.2015,0.2183,0.2631,0.235,0.2238,0.2347,0.2069,0.2125,0.2573,0.2573,0.2629,0.2683,0.2627,0.2404,0.1959,0.1959,0.2181,-0.3565,-0.2818,-0.2235,-0.1728,-0.1082,0.0,0.0327,0.1021,0.1691,0.2356,0.2971,0.3624,0.4191,0.4316,0.4535,0.505,0.5055,0.5028,0.508,0.4938,0.4897,0.506,0.4954,0.0,0.4836,0.5027,0.519,0.5148,0.5434,0.5572,0.5448,0.5448,0.5404,0.5361,0.5308,0.5308,0.5404,0.5712,0.5663,0.5216,0.5577,0.5496,0.4971,0.5014,0.5014,0.4923,0.4574,0.4618,0.4966,0.4491,0.5058,0.6196,0.5787,0.6203,0.6919,0.5829,0.5636,0.5896,0.5164,0.457,0.4132,0.4522,0.4356,0.4079,0.4353,0.4463,0.4405,0.4181,0.3683,0.3132,0.313,0.3297,0.3516,0.3516,0.3741,0.3799,0.3297,0.3519,0.3683,0.2959,0.2736,0.2571,0.202,0.1853,0.1741,0.1629,0.1628,0.1572,0.1403,0.1347,0.1514,0.2073,0.2128,0.2293,0.2843,0.2792,0.2738,0.2683,0.2069,0.1734,0.179,0.1288,0.1512,0.2681,0.2681,0.2903,0.3345,0.2516,0.2127,0.2184,0.2071,0.2015,-0.4538,-0.3996,-0.3444,-0.2912,-0.2323,0.0,-0.1073,-0.0199,0.0589,0.1021,0.1807,0.2578,0.2863,0.331,0.3779,0.4059,0.4249,0.455,0.5028,0.5048,0.5039,0.5076,0.5177,0.0,0.5039,0.5097,0.5002,0.4658,0.4951,0.514,0.5096,0.5096,0.4923,0.4535,0.4879,0.5009,0.4932,0.5019,0.4927,0.4744,0.4447,0.4232,0.4144,0.453,0.4622,0.4539,0.4923,0.5091,0.5058,0.4578,0.4753,0.527,0.5183,0.5613,0.6255,0.577,0.5695,0.5772,0.5391,0.4846,0.4408,0.4519,0.4356,0.4193,0.4245,0.4132,0.3907,0.3747,0.3638,0.3413,0.3188,0.313,0.313,0.2912,0.3297,0.3627,0.3516,0.3962,0.4184,0.3572,0.3125,0.285,0.2683,0.2186,0.1797,0.1741,0.1741,0.1741,0.1685,0.1628,0.1572,0.1684,0.157,0.1514,0.1624,0.1625,0.1569,0.1457,0.1289,0.1401,0.179,0.1679,0.1958,0.2681,0.2681,0.2736,0.2847,0.1899,0.1734,0.2183,0.1176,0.1009,-0.5496,-0.4967,-0.4535,-0.3726,-0.3141,0.0,0.0,-0.1135,-0.0457,0.0053,0.0826,0.1518,0.1904,0.253,0.3131,0.3574,0.386,0.4139,0.4473,0.4868,0.5117,0.5206,0.5245,0.0,0.5226,0.5137,0.4966,0.4694,0.4692,0.4767,0.4767,0.4675,0.4535,0.4316,0.453,0.4622,0.4539,0.4797,0.4748,0.4447,0.4447,0.4272,0.4016,0.4232,0.4276,0.4188,0.4487,0.4574,0.4491,0.4184,0.4184,0.4355,0.4574,0.5094,0.5708,0.5207,0.5237,0.5392,0.4908,0.4616,0.4519,0.4519,0.4408,0.4356,0.4249,0.4079,0.3855,0.3747,0.3691,0.3635,0.3413,0.3357,0.3302,0.3193,0.3244,0.335,0.335,0.3796,0.4073,0.3738,0.3516,0.3294,0.3125,0.2907,0.2798,0.2798,0.2742,0.2573,0.2296,0.2184,0.2127,0.2127,0.235,0.246,0.246,0.2627,0.2627,0.2296,0.1849,0.1737,0.2015,0.1736,0.1792,0.2348,0.2569,0.2681,0.2681,0.19,0.1845,0.246,0.1845,0.1734,-0.6612,-0.6023,-0.5433,-0.4567,-0.3935,-0.3342,0.0,0.0,0.0,-0.0865,-0.0159,0.0519,0.1027,0.1665,0.0,0.2968,0.0,0.0,0.0,0.4404,0.0,0.5177,0.5257,0.0,0.5297,0.519,0.5019,0.4869,0.4694,0.4534,0.4501,0.4406,0.4308,0.432,0.4316,0.4316,0.4316,0.4661,0.4661,0.4316,0.4661,0.4622,0.4152,0.4152,0.406,0.3928,0.3968,0.3968,0.3928,0.3836,0.3744,0.3788,0.4052,0.4581,0.5125,0.4574,0.4646,0.4968,0.439,0.4341,0.4519,0.4519,0.4519,0.4463,0.4249,0.4138,0.4024,0.3852,0.3796,0.3744,0.3638,0.3585,0.3585,0.3585,0.3413,0.3188,0.3188,0.3574,0.3852,0.3852,0.4018,0.4015,0.3622,0.3624,0.3738,0.3849,0.3738,0.3514,0.3012,0.2903,0.2903,0.2903,0.3347,0.3624,0.3624,0.3901,0.3904,0.3411,0.2685,0.2294,0.235,0.1905,0.1849,0.2183,0.2571,0.2736,0.2736,0.2291,0.2237,0.2514,0.2402,0.2347,-0.837,-0.7357,-0.6195,-0.5701,-0.5042,-0.4409,-0.3812,0.0,-0.2293,-0.1963,0.0,-0.0477,-0.023,0.0,0.0,0.0,0.0,0.0,0.3119,0.3795,0.4389,0.4815,0.51,0.0,0.0,0.519,0.5072,0.5052,0.4877,0.4706,0.4509,0.4481,0.4442,0.432,0.4316,0.4316,0.4316,0.436,0.436,0.4316,0.436,0.436,0.4276,0.4276,0.4188,0.4064,0.4188,0.4192,0.4064,0.4064,0.3972,0.388,0.3711,0.3983,0.4365,0.4018,0.423,0.4703,0.4355,0.4341,0.4519,0.4519,0.4519,0.4463,0.4249,0.4193,0.4138,0.3852,0.3796,0.3744,0.3638,0.3585,0.3585,0.3585,0.3583,0.3527,0.3527,0.3852,0.4177,0.4177,0.4846,0.5179,0.446,0.379,0.3511,0.3898,0.3953,0.395,0.384,0.3735,0.3685,0.3685,0.3627,0.3624,0.3624,0.3624,0.3569,0.3345,0.279,0.2625,0.2963,0.2907,0.2907,0.2963,0.3019,0.3019,0.285,0.2907,0.2571,0.1902,0.1344,0.1121,-0.9162,-0.8059,-0.6794,-0.6303,-0.5441,-0.4615,-0.444,0.0,-0.3206,0.0,0.0,0.0,0.0,0.0,0.0,0.0,0.1167,0.0,0.0,0.0,0.4091,0.0,0.0,0.0,0.0,0.0,0.0,0.0,0.5068,0.4934,0.4861,0.4614,0.4465,0.4434,0.4329,0.4316,0.4316,0.4316,0.4316,0.4316,0.4316,0.4316,0.4316,0.4316,0.4276,0.4236,0.4276,0.4276,0.4188,0.4152,0.4064,0.4016,0.384,0.384,0.3891,0.3736,0.3957,0.4275,0.4144,0.4267,0.4519,0.4519,0.4519,0.4463,0.4408,0.4356,0.4301,0.4079,0.4024,0.4024,0.3858,0.3858,0.3858,0.3858,0.3858,0.3858,0.3858,0.391,0.407,0.4349,0.4622,0.4846,0.5124,0.4787,0.445,0.4401,0.4346,0.4233,0.4122,0.4067,0.4012,0.3901,0.4122,0.4122,0.3738,0.3959,0.3959,0.3514,0.3236,0.3236,0.3405,0.2959,0.2736,0.2736,0.2294,0.2017,0.1961,0.2017,0.1849,0.1513,0.1903,0.2014,-0.9747,0.0,0.0,0.0,0.0,0.0,0.0,0.0,0.0,0.0,0.0,0.0,0.0,0.0,-0.079,-0.0379,0.0,0.1008,0.0,0.2488,0.0,0.0,0.0,0.0,0.0,0.0,0.0,0.0,0.0,0.5133,0.5084,0.4836,0.4598,0.4501,0.4418,0.4325,0.4316,0.4316,0.4316,0.4316,0.4316,0.4316,0.4316,0.4316,0.4316,0.4316,0.4316,0.4316,0.4272,0.4192,0.4152,0.4108,0.3972,0.384,0.3667,0.3667,0.383,0.4014,0.4058,0.4268,0.4519,0.4519,0.4519,0.4519,0.4519,0.4519,0.4463,0.4249,0.4193,0.4193,0.4024,0.4024,0.4024,0.4024,0.4024,0.4024,0.4024,0.4021,0.4132,0.4463,0.4512,0.4677,0.5179,0.534,0.534,0.5128,0.5018,0.4904,0.4787,0.4732,0.4673,0.456,0.4838,0.4842,0.4405,0.4625,0.457,0.3956,0.3901,0.3846,0.3683,0.3125,0.2845,0.279,0.2237,0.1903,0.1903,0.1903,0.1903,0.1847,0.2293,0.2404,0.0,0.0,0.0,-0.8521,0.0,0.0,0.0,0.0,-0.553,0.0,0.0,0.0,-0.3132,-0.2652,-0.2126,-0.1436,-0.057,0.0,0.0,0.0,0.0,0.0,0.0,0.0,0.0,0.0,0.0,0.0,0.0,0.0,0.5092,0.5072,0.4905,0.4509,0.4493,0.4451,0.432,0.4316,0.4316,0.4316,0.4316,0.4316,0.4316,0.4316,0.4316,0.4316,0.4316,0.4316,0.4316,0.4272,0.4236,0.4108,0.4108,0.4016,0.388,0.388,0.3942,0.4015,0.4171,0.4323,0.4519,0.4519,0.4519,0.4519,0.4519,0.4519,0.4463,0.4249,0.4193,0.4193,0.4024,0.4024,0.4024,0.4024,0.4024,0.4024,0.4024,0.4356,0.4688,0.4688,0.5011,0.5117,0.4625,0.5124,0.5732,0.6119,0.6123,0.6123,0.6119,0.6005,0.5946,0.5946,0.5845,0.5736,0.574,0.5626,0.5289,0.4728,0.4673,0.4398,0.3796,0.3796,0.3683,0.3569,0.3516,0.3514,0.3514,0.3514,0.3403,0.3231,0.1958,0.1346,0.0,0.0,-0.8095,-0.8676,0.0,0.0,0.0,0.0,0.0,0.0,0.0,0.0,0.0,-0.3559,-0.3048,-0.237,-0.1822,-0.1074,0.0,0.0,0.0,0.0,0.3821,0.4133,0.0,0.0,0.0,0.0,0.5018,0.0,0.0,0.4396,0.4088,0.3739,0.3553,0.3435,0.3389,0.3388,0.3517,0.3829,0.3829,0.4005,0.4316,0.4316,0.4316,0.4316,0.4316,0.4316,0.4316,0.4316,0.4276,0.4232,0.4232,0.4188,0.4144,0.3968,0.3987,0.4073,0.4282,0.4457,0.4632,0.4632,0.4632,0.4632,0.4632,0.4574,0.4463,0.4408,0.4408,0.4408,0.4353,0.4353,0.4353,0.4353,0.4353,0.4353,0.4353,0.4356,0.4467,0.4794,0.4849,0.4904,0.5011,0.5226,0.534,0.5226,0.5614,0.605,0.6317,0.6312,0.6372,0.6707,0.6381,0.6223,0.6223,0.5622,0.5069,0.4625,0.4846,0.4846,0.4684,0.457,0.4512,0.4457,0.4067,0.3843,0.3843,0.3843,0.3843,0.3732,0.3287,0.2901,-0.914,-0.8361,0.0,-0.8329,-0.7969,0.0,-0.8355,0.0,-0.7142,0.0,0.0,0.0,0.0,-0.4151,-0.3811,-0.3022,-0.2537,-0.1724,0.0,0.1131,0.0,0.247,0.3094,0.3632,0.3935,0.4262,0.4512,0.4684,0.4794,0.0,0.0,0.0,0.3708,0.3295,0.3145,0.2975,0.2892,0.2909,0.3033,0.3341,0.3341,0.3517,0.3785,0.3785,0.3785,0.3785,0.3785,0.3785,0.3829,0.3965,0.4052,0.4049,0.4228,0.4316,0.4276,0.41,0.4157,0.4293,0.4397,0.44,0.4467,0.4688,0.4577,0.4408,0.4632,0.4632,0.4574,0.4574,0.4629,0.4625,0.4625,0.4629,0.4574,0.4574,0.4519,0.4519,0.4519,0.4408,0.4411,0.468,0.4684,0.4684,0.4901,0.5117,0.5222,0.4948,0.5496,0.6041,0.6312,0.6524,0.675,0.7079,0.6815,0.6598,0.6436,0.5891,0.5399,0.5066,0.5289,0.5399,0.5399,0.5175,0.5011,0.4956,0.4457,0.4288,0.445,0.4395,0.4508,0.4725,0.4673,0.4453]},{"header":{"parameterUnit":"m.s-1","parameterCategory":1,"la1":30.6,"la2":29.2853,"lo1":-89.7004,"lo2":-87.6739,"dy":0.0162,"dx":0.0183,"nx":112,"ny":82,"refTime":"2024-07-28T06:00:00:Z","depth":0,"parameterNumber":3,"parameterNumberName":"V-component_of_WINDS"},"data":[0.0,0.0,0.0,0.0,0.0,0.0,0.0,0.0,0.0,0.0,0.0,0.0,0.0,0.0,0.0,0.0,0.0,0.0,0.0,0.0,0.0,0.0,0.0,0.0,0.0,0.0,0.0,0.0,0.0,0.0,0.0,0.0,0.0,0.0,0.0,0.0,0.0,0.0,0.0,0.0,0.0,0.0,0.0,0.0,0.0,0.0,0.0,0.0,0.0,0.0,0.0,0.0,0.0,0.0,0.0,0.0,0.0,0.0,0.0,0.0,0.0,0.0,0.0,0.0,0.0,0.0,0.0,0.0,0.0,0.0,0.0,0.0,0.0,0.0,0.0,0.0,0.0,0.0,0.0,0.0,0.0,0.0,0.0,0.0,0.0,0.0,0.0,0.0,0.0,0.0,0.096,-0.0563,-0.1908,-0.2721,-0.2799,-0.2736,-0.285,-0.3164,0.0,0.0,0.0,0.0,0.0,0.0,0.0,0.0,0.0,0.0,0.0,0.0,0.0,0.0,0.0,0.0,0.0,0.0,0.0,0.0,0.0,0.0,0.0,0.0,0.0,0.0,0.0,0.0,0.0,0.0,0.0,0.0,0.0,0.0,0.0,0.0,0.0,0.0,0.0,0.0,0.0,0.0,0.0,0.0,0.0,0.0,0.0,0.0,0.0,0.0,0.0,0.0,0.0,0.0,0.0,0.0,0.0,0.0,0.0,0.0,0.0,0.0,0.0,0.0,0.0,0.0,0.0,0.0,0.0,0.0,0.0,0.0,0.0,0.0,0.0,0.0,0.0,0.0,0.0,0.0,0.0,0.0,0.0,0.0,0.0,0.0,0.0,0.0,0.0,0.0,0.0,0.0,0.0,0.0,0.0,0.0,0.0,0.0,0.0,0.0,0.0,0.0,0.0,0.0,0.0818,-0.0699,-0.1992,-0.2697,-0.2711,-0.2699,-0.2821,-0.3164,0.0,0.0,0.0,0.0,0.0,0.0,0.0,0.0,0.0,0.0,0.0,0.0,0.0,0.0,0.0,0.0,0.0,0.0,0.0,0.0,0.0,0.0,0.0,0.0,0.0,0.0,0.0,0.0,0.0,0.0,0.0,0.0,0.0,0.0,0.0,0.0,0.0,0.0,0.0,0.0,0.0,0.0,0.0,0.0,0.0,0.0,0.0,0.0,0.0,0.0,0.0,0.0,0.0,0.0,0.0,0.0,0.0,0.0,0.0,0.0,0.0,0.0,0.0,0.0,0.0,0.0,0.0,0.0,0.0,0.0,0.0,0.0,0.0,0.0,0.0,0.0,0.0,0.0,0.0,0.0,0.0,0.0,0.0,0.0,0.0,0.0,0.0,0.0,0.0,0.0,0.0,0.0,0.0,0.0,0.0,0.0,0.0,0.0,0.0,0.0,0.0,0.0,0.0,0.1057,-0.0117,-0.0802,-0.1977,-0.2691,-0.2691,-0.2691,-0.2925,-0.3509,-0.349,0.0,0.0,0.0,0.0,0.0,0.0,0.0,0.0,0.0,0.0,0.0,0.0,0.0,0.0,0.0,0.0,0.0,0.0,0.0,0.0,0.0,0.0,0.0,0.0,0.0,0.0,0.0,0.0,0.0,0.0,0.0,0.0,0.0,0.0,0.0,0.0,0.0,0.0,0.0,0.0,0.0,0.0,0.0,0.0,0.0,0.0,0.0,0.0,0.0,0.0,0.0,0.0,0.0,0.0,0.0,0.0,0.0,0.0,0.0,0.0,0.0,0.0,0.0,0.0,0.0,0.0,0.0,0.0,0.0,0.0,0.0,0.0,0.0,0.0,0.0,0.0,0.0,0.0,0.0,0.0,0.0,0.0,0.0,0.0,0.0,0.0,0.0,0.0,0.0,0.0,0.0,0.0,0.0,0.0,0.0,0.0,0.0,0.0,0.0,0.0,0.0,0.0,0.0059,-0.0877,-0.0898,-0.1959,-0.2691,-0.2691,-0.2802,-0.3154,-0.3818,-0.3712,0.0,0.0,0.0,0.0,0.0,0.0,0.0,0.0,0.0,0.0,0.0,0.0,0.0,0.0,0.0,0.0,0.0,0.0,0.0,0.0,0.0,0.0,0.0,0.0,0.0,0.0,0.0,0.0,0.0,0.0,0.0,0.0,0.0,0.0,0.0,0.0,0.0,0.0,0.0,0.0,0.0,0.0,0.0,0.0,0.0,0.0,0.0,0.0,0.0,0.0,0.0,0.0,0.0,0.0,0.0,0.0,0.0,0.0,0.0,0.0,0.0,0.0,0.0,0.0,0.0,0.0,0.0,0.0,0.0,0.0,0.0,0.0,0.0,0.0,0.0,0.0,0.0,0.0,0.0,0.0,0.0,0.0,0.0,0.0,0.0,0.0,0.0,0.0,0.0,0.0,0.0,0.0,0.0,0.0,0.0,0.0,0.0,0.0,0.0,0.0,0.0,0.0,0.0059,-0.0839,-0.09,-0.1959,-0.2691,-0.2691,-0.3079,-0.3522,-0.3953,-0.4023,0.0,0.0,0.0,0.0,0.0,0.0,0.0,0.0,0.0,0.0,0.0,0.0,0.0,0.0,0.0,0.0,0.0,0.0,0.0,0.0,0.0,0.0,0.0,0.0,0.0,0.0,0.0,0.0,0.0,0.0,0.0,0.0,0.0,0.0,0.0,0.0,0.0,0.0,0.0,0.0,0.0,0.0,0.0,0.0,0.0,0.0,0.0,0.0,0.0,0.0,0.0,0.0,0.0,0.0,0.0,0.0,0.0,0.0,0.0,0.0,0.0,0.0,0.0,0.0,0.0,0.0,0.0,0.0,0.0,0.0,0.0,0.0,0.0,0.0,0.0,0.0,0.0,0.0,0.0,0.0,0.0,0.0,0.0,0.0,0.0,0.0,0.0,0.0,0.0,0.0,0.0,0.0,0.0,0.0,0.0,0.0,0.0,0.0,0.0,0.0,0.0,0.0,-0.0641,-0.147,-0.1462,-0.2184,-0.2668,-0.2665,-0.2981,-0.3412,-0.3896,0.0,0.0,0.0,0.0,0.0,0.0,0.0,0.0,0.0,0.0,0.0,0.0,0.0,0.0,0.0,0.0,0.0,0.0,0.0,0.0,0.0,0.0,0.0,0.0,0.0,0.0,0.0,0.0,0.0,0.0,0.0,0.0,0.0,0.0,0.0,0.0,0.0,0.0,0.0,0.0,0.0,0.0,0.0,0.0,0.0,0.0,0.0,0.0,0.0,0.0,0.0,0.0,0.0,0.0,0.0,0.0,0.0,0.0,0.0,0.0,0.0,0.0,0.0,0.0,0.0,0.0,0.0,0.0,0.0,0.0,0.0,0.0,0.0,0.0,0.0,0.0,0.0,0.0,0.0,0.0,0.0,0.0,0.0,0.0,0.0,0.0,0.0,0.0,0.0,0.0,0.0,0.0,0.0,0.0,0.0,0.0,0.0,0.0,0.0,0.0,0.0,0.0,0.0281,-0.097,-0.1779,-0.1794,-0.2329,-0.2676,-0.277,-0.3047,-0.351,-0.4026,0.0,0.0,0.0,0.0,0.0,0.0,0.0,0.0,0.0,0.0,0.0,0.0,0.0,0.0,0.0,0.0,0.0,0.0,0.0,0.0,0.0,0.0,0.0,0.0,0.0,0.0,0.0,0.0,0.0,0.0,0.0,0.0,0.0,0.0,0.0,0.0,0.0,0.0,0.0,0.0,0.0,0.0,0.0,0.0,0.0,0.0,0.0,0.0,0.0,0.0,0.0,0.0,0.0,0.0,0.0,0.0,0.0,0.0,0.0,0.0,0.0,0.0,0.0,0.0,0.0,0.0,0.0,0.0,0.0,0.0,0.0,0.0,0.0,0.0,0.0,0.0,0.0,0.0,0.0,0.0,0.0,0.0,0.0,0.0,0.0,0.0,0.0,0.0,0.0,0.0,0.0,0.0,0.0,0.0,0.0,0.0,0.0,0.0,0.0,0.0,0.0,0.0,0.0224,-0.0839,-0.1677,-0.179,-0.228,-0.2711,-0.3076,-0.3383,-0.3818,0.0,0.0,0.0,0.0,0.0,0.0,0.0,0.0,0.0,0.0,0.0,0.0,0.0,0.0,0.0,0.0,0.0,0.0,0.0,0.0,0.0,0.0,0.0,0.0,0.0,0.0,0.0,0.0,0.0,0.0,0.0,0.0,0.0,0.0,0.0,0.0,0.0,0.0,0.0,0.0,0.0,0.0,0.0,0.0,0.0,0.0,0.0,0.0,0.0,0.0,0.0,0.0,0.0,0.0,0.0,0.0,0.0,0.0,0.0,0.0,0.0,0.0,0.0,0.0,0.0,0.0,0.0,0.0,0.0,0.0,0.0,0.0,0.0,0.0,0.0,0.0,0.0,0.0,0.0,0.0,0.0,0.0,0.0,0.0,0.0,0.0,0.0,0.0,0.0,0.0,0.0,0.0,0.0,0.0,0.0,0.0,0.0,0.0,0.0,0.0,0.0,0.0,0.0,-0.0557,-0.1589,-0.2346,-0.2402,-0.2444,-0.2609,-0.3014,-0.3257,-0.3588,-0.407,0.0,0.0,0.0,0.0,0.0,0.0,0.0,0.0,0.0,0.0,0.0,0.0,0.0,0.0,0.0,0.0,0.0,0.0,0.0,0.0,0.0,0.0,0.0,0.0,0.0,0.0,0.0,0.0,0.0,0.0,0.0,0.0,0.0,0.0,0.0,0.0,0.0,0.0,0.0,0.0,0.0,0.0,0.0,0.0,0.0,0.0,0.0,0.0,0.0,0.0,0.0,0.0,0.0,0.0,0.0,0.0,0.0,0.0,0.0,0.0,0.0,0.0,0.0,0.0,0.0,0.0,0.0,0.0,0.0,0.0,0.0,0.0,0.0,0.0,0.0,0.0,0.0,0.0,0.0,0.0,0.0,0.0,0.0,0.0,0.0,0.0,0.0,0.0,0.0,0.0,0.0,0.0,0.0,0.0,0.0,0.0,0.0,0.0,0.0,0.0,0.0,0.0,-0.1145,-0.1943,-0.2481,-0.2572,-0.2554,-0.2707,-0.3096,-0.3319,-0.3685,-0.4166,0.0,0.0,0.0,0.0,0.0,0.0,0.0,0.0,0.0,0.0,0.0,0.0,0.0,0.0,0.0,0.0,0.0,0.0,0.0,0.0,0.0,0.0,0.0,0.0,0.0,0.0,0.0,0.0,0.0,0.0,0.0,0.0,0.0,0.0,0.0,0.0,0.0,0.0,0.0,0.0,0.0,0.0,0.0,0.0,0.0,0.0,0.0,0.0,0.0,0.0,0.0,0.0,0.0,0.0,0.0,0.0,0.0,0.0,0.0,0.0,0.0,0.0,0.0,0.0,0.0,0.0,0.0,0.0,0.0,0.0,0.0,0.0,0.0,0.0,0.0,0.0,0.0,0.0,0.0,0.0,0.0,0.0,0.0,0.0,0.0,0.0,0.0,0.0,0.0,0.0,0.0,0.0,0.0,0.0,0.0,0.0,0.0,0.0,0.0,0.0,0.0,0.0,-0.1638,-0.2036,-0.2355,-0.2457,-0.267,-0.2937,-0.3322,-0.3562,-0.3939,-0.4512,0.0,0.0,0.0,0.0,0.0,0.0,0.0,0.0,0.0,0.0,0.0,0.0,0.0,0.0,0.0,0.0,0.0,0.0,0.0,0.0,0.0,0.0,0.0,0.0,0.0,0.0,0.0,0.0,0.0,0.0,0.0,0.0,0.0,0.0,0.0,0.0,0.0,0.0,0.0,0.0,0.0,0.0,0.0,0.0,0.0,0.0,0.0,0.0,0.0,0.0,0.0,0.0,0.0,0.0,0.0,0.0,0.0,0.0,0.0,0.0,0.1152,0.0,0.0,0.0,0.0,0.0,0.0,0.0,0.0,0.0,0.0,0.0,0.0,0.0,0.0,0.0,0.0,0.0,0.0,0.0,0.0,0.0,0.0,0.0,0.0,0.0,0.0,0.0,0.0,0.0,0.0,0.0,0.0,0.0,0.0,0.0,0.0,0.0,0.0,0.0,0.0,0.0,-0.1685,-0.1994,-0.2381,-0.2846,-0.2793,-0.2987,-0.3691,-0.3743,-0.402,-0.4856,-0.542,0.0,0.0,0.0,0.0,0.0,0.0,0.0,0.0,0.0,0.0,0.0,0.0,0.0,0.0,0.0,0.0,0.0,0.0,0.0,0.0,0.0,0.0,0.0,0.0,0.0,0.0,0.0,0.0,0.0,0.0,0.0,0.0,0.0,0.0,0.0,0.0,0.0,0.0,0.0,0.0,0.0,0.0,0.0,0.0,0.0,0.0,0.0,0.0,0.0,0.0,0.0,0.0,0.0,0.0,0.0,0.0,0.0,0.0,0.0,0.0,0.0535,0.0,0.0,0.0,0.0,0.0,0.0,0.0,0.0,0.0,0.0,0.0,0.0,0.0,0.0,0.0,0.0,0.0,0.0,0.0,0.0,0.0,0.0,0.0,0.0,0.0,0.0,0.0,0.0,0.0,0.0,0.0,0.0,0.0,0.0,0.0,0.0,0.0,0.0,0.0,0.0,-0.201,-0.2291,-0.2549,-0.2845,-0.3069,-0.3334,-0.3767,-0.3924,-0.4268,-0.4966,-0.5437,0.0,0.0,0.0,0.0,0.0,0.0,0.0,0.0,0.0,0.0,0.0,0.0,0.0,0.0,0.0,0.0,0.0,0.0,0.0,0.0,0.0,0.0,0.0,0.0,0.0,0.0,0.0,0.0,0.0,0.0,0.0,0.0,0.0,0.0,0.0,0.0,0.0,0.0,0.0,0.0,0.0,0.0,0.0,0.0,0.0,0.0,0.0,0.0,0.0,0.0,0.0,0.0,0.0,0.0199,0.0201,0.0267,0.0324,0.0064,-0.0316,0.0058,0.0,-0.0305,-0.0347,0.0,0.0,0.0,0.0,0.0,0.0,0.0,0.0,0.0,0.0,0.0,0.0,0.0,0.0,0.0,0.0,0.0,0.0,0.0,0.0,0.0,0.0,0.0,0.0,-0.0889,-0.1152,0.0,0.0,0.0,0.0,0.0,0.0,0.0,0.0,0.0,0.0,0.0,0.0,-0.2417,-0.2635,-0.2729,-0.2862,-0.3391,-0.3744,-0.3785,-0.4096,-0.453,-0.5096,-0.548,-0.5927,0.0,0.0,0.0,0.0,0.0,0.0,0.0,0.0,0.0,0.0,0.0,0.0,0.0,0.0,0.0,0.0,0.0,0.0,0.0,0.0,0.0,0.0,0.0,0.0,0.0,0.0,0.0,0.0,0.0,0.0,0.0,0.0,0.5272,0.5408,0.0,0.0,0.0,0.0,0.0,0.0,0.0,0.0,0.0,0.0,0.0,0.0,0.0,0.026,-0.0267,-0.0134,-0.0401,-0.0869,-0.0872,-0.0863,-0.0779,-0.0819,-0.0796,-0.0833,-0.0742,0.0,-0.083,-0.0823,0.0,0.0,0.0,0.0,0.0,0.0,0.0,0.0,0.0,0.0,0.0,0.0,0.0,0.0,0.0,0.0,0.0,0.0,0.0,0.0,0.0,0.0,-0.2061,-0.1972,-0.2161,-0.2399,0.0,-0.1596,-0.0922,-0.0918,-0.0958,0.0,0.0,0.0,0.0,0.0,0.0,0.0,-0.2866,-0.2775,-0.2907,-0.3524,-0.3653,-0.3832,-0.4184,-0.4276,-0.4661,-0.5567,-0.5653,-0.618,-0.7306,-0.7291,0.0,0.0,0.0,0.0,0.0,0.0,0.0,0.0,0.0,0.0,0.0,0.0,0.0,0.0,0.0,0.0,0.0,0.0,0.0,0.0,0.0,0.0,0.0,0.0,0.0,0.0,0.0,0.0,0.0,0.5282,0.5416,0.5167,0.484,0.4515,0.0,0.0,0.0,0.0,0.0,0.0,0.0,0.0,0.0,0.0396,0.0132,-0.02,-0.0472,-0.0539,-0.074,-0.1075,-0.1059,-0.1046,-0.0968,-0.0984,-0.0956,-0.0883,-0.0911,-0.1074,-0.1374,-0.1031,-0.1091,-0.138,0.0,0.0,0.0,0.0,-0.2291,-0.2347,-0.2625,-0.2512,0.0,-0.2597,0.0,0.0,0.0,0.0,0.0,0.0,0.0,0.0,0.0,0.0,-0.238,-0.2399,-0.2634,-0.2851,-0.2935,-0.2475,-0.2092,0.0,-0.2041,-0.1987,-0.1951,0.0,0.0,0.0,0.0,-0.2568,-0.2966,-0.3006,-0.317,-0.3653,-0.3921,-0.4096,-0.4272,-0.4535,-0.4966,-0.5653,-0.591,-0.6386,-0.7165,-0.7601,-0.8062,0.0,0.0,0.0,0.0,0.0,0.0,0.0,0.0,0.0,0.0,0.0,0.0,0.0,0.0,0.0,0.0,0.0,0.0,0.0,0.0,0.0,0.0,0.0,0.0,0.0,0.0,0.0,0.0,0.5711,0.5669,0.525,0.5068,0.4723,0.0,0.0,0.0,0.0,0.0,0.0,0.2008,0.0712,0.0,0.0,-0.0202,-0.0404,-0.0472,-0.0741,-0.0942,-0.1075,-0.1054,-0.1037,-0.102,-0.0975,-0.0887,-0.093,-0.1076,-0.14,-0.179,-0.1288,-0.1477,-0.2026,-0.2033,-0.2291,-0.2736,-0.2847,-0.2903,-0.2959,-0.3125,-0.3081,-0.2975,-0.3102,0.0,-0.2941,-0.3151,0.0,0.0,0.0,0.0,-0.2366,-0.2679,-0.2803,-0.2834,-0.3013,-0.3173,-0.3308,-0.3411,-0.3354,-0.3229,0.0,-0.2885,-0.2805,-0.2906,0.0,0.0,0.0,0.0,-0.2866,-0.3213,-0.3333,-0.348,-0.3832,-0.4228,-0.4491,-0.4491,-0.4923,-0.5351,-0.5825,-0.6124,-0.655,-0.7147,-0.7838,-0.8467,-0.8974,0.0,0.0,0.0,0.0,0.0,0.0,0.0,0.0,0.0,0.0,0.0,0.0,0.0,0.0,0.0,0.0,0.0,0.0,0.0,0.0,0.0,0.0,0.0,0.0,0.0,0.0,0.0,0.0,0.0,0.632,0.5935,0.0,0.0,0.0,0.0,0.4099,0.2812,0.2019,0.207,0.0785,0.0,0.0,-0.0337,-0.0472,-0.0472,-0.0875,-0.1076,-0.1076,-0.1074,-0.1044,-0.099,-0.0987,-0.0954,-0.0956,-0.1513,-0.179,-0.179,-0.179,-0.2127,-0.2631,-0.2683,-0.2681,-0.2792,-0.3347,-0.3572,-0.3627,-0.4239,-0.4047,-0.3671,-0.4228,-0.4021,-0.3522,-0.3403,-0.3125,0.0,0.0,-0.3741,-0.3599,-0.4007,-0.4008,-0.3987,-0.4183,-0.4204,-0.4142,-0.4215,-0.4201,-0.391,0.0,-0.2885,-0.2943,-0.3404,0.0,-0.3469,-0.3858,-0.3684,-0.3661,-0.4005,-0.384,-0.3832,-0.4228,-0.4705,-0.4966,-0.4966,-0.5394,-0.5825,-0.6246,-0.6289,-0.6713,-0.7641,-0.7904,-0.8372,-0.9158,-0.9796,0.0,0.0,0.0,0.0,0.0,0.0,0.0,0.0,0.0,0.0,0.0,0.0,0.0,0.0,0.0,0.0,0.0,0.0,0.0,0.0,0.0,0.0,0.0,0.0,0.0,0.0,0.0,0.0,0.5927,0.5864,0.0,0.4623,0.4252,0.3908,0.3558,0.2574,0.1868,0.1475,0.0533,-0.0067,-0.0202,-0.0404,-0.0539,-0.0674,-0.0942,-0.1076,-0.1075,-0.1037,-0.1018,-0.1016,-0.1464,-0.1596,-0.1503,-0.2193,-0.2679,-0.2959,-0.2959,-0.307,-0.3292,-0.3292,-0.3514,-0.3904,-0.4125,-0.4184,-0.4184,-0.4408,-0.4386,-0.4191,-0.4425,-0.4349,-0.4184,-0.4239,-0.3907,-0.3572,-0.4184,-0.3962,-0.3694,-0.3964,-0.4054,-0.399,-0.4026,-0.4002,-0.3941,-0.4017,-0.3999,-0.3889,-0.368,-0.3615,-0.3645,-0.3812,-0.3775,-0.3828,-0.3848,-0.3731,-0.3679,-0.3928,-0.383,-0.3873,-0.4272,-0.4705,-0.5009,-0.5009,-0.5653,-0.6161,-0.6289,-0.6592,-0.6937,-0.737,-0.8311,-0.9144,-0.9773,-1.0895,-1.1612,0.0,0.0,0.0,0.0,0.0,0.0,0.0,0.0,0.0,0.0,0.0,0.0,0.0,0.0,0.0,0.0,0.0,0.0,0.0,0.0,0.0,0.0,0.0,0.0,0.0,0.6623,0.6497,0.5742,0.5735,0.5415,0.4303,0.4202,0.4014,0.3616,0.2635,0.1842,0.1476,0.0539,-0.0067,-0.027,-0.0404,-0.0607,-0.0809,-0.1009,-0.1076,-0.1075,-0.1295,-0.1272,-0.1017,-0.1969,-0.2205,-0.1852,-0.2803,-0.334,-0.3627,-0.3793,-0.3904,-0.3904,-0.3904,-0.4128,-0.4519,-0.4519,-0.4519,-0.4519,-0.4519,-0.4519,-0.4519,-0.4519,-0.4519,-0.4519,-0.4632,-0.4463,-0.4236,-0.4629,-0.446,-0.4239,-0.4408,-0.4426,-0.4334,-0.4331,-0.4217,-0.4133,-0.4181,-0.4177,-0.4189,-0.4237,-0.4123,-0.4076,-0.419,-0.4245,-0.4265,-0.4277,-0.4141,-0.4073,-0.4168,-0.4009,-0.4008,-0.4272,-0.4879,-0.5221,-0.5221,-0.6039,-0.655,-0.655,-0.6972,-0.7356,-0.7621,-0.8572,-0.9495,-1.0312,-1.141,-1.2148,-1.2479,0.0,0.0,0.0,0.0,0.0,0.0,0.0,0.0,0.0,0.0,0.0,0.0,0.0,0.0,0.0,0.0,0.0,0.0,0.0,0.0,0.0,0.0,0.0,0.6763,0.6791,0.6497,0.5801,0.5627,0.5185,0.4174,0.4219,0.4289,0.4289,0.2947,0.2076,0.2076,0.074,-0.0067,-0.027,-0.0404,-0.0607,-0.0809,-0.1009,-0.1143,-0.1143,-0.1811,-0.1759,-0.1114,-0.2536,-0.2751,-0.1908,-0.324,-0.374,-0.3683,-0.4239,-0.4519,-0.4519,-0.4519,-0.4519,-0.4519,-0.4519,-0.4519,-0.4519,-0.4519,-0.4519,-0.4519,-0.4519,-0.4519,-0.4519,-0.4632,-0.4794,-0.4956,-0.5069,-0.5183,-0.5297,-0.5293,-0.5214,-0.508,-0.5068,-0.4926,-0.4796,-0.4796,-0.4796,-0.4796,-0.4804,-0.4407,-0.4177,-0.4625,-0.4743,-0.4853,-0.523,-0.5031,0.0,-0.4788,-0.4487,-0.4316,-0.4316,-0.5135,-0.5696,-0.5696,-0.6507,-0.6979,-0.6979,-0.7433,-0.7931,-0.8472,-0.8651,-0.9401,-1.0813,-1.1348,-1.1606,-1.1606,0.0,0.0,0.0,0.0,0.0,0.0,0.0,0.0,0.0,0.0,0.0,0.0,0.0,0.0,0.0,0.0,0.0,0.0,0.0,0.0,0.0,0.6473,0.6548,0.6763,0.6547,0.6138,0.5575,0.5153,0.4664,0.4047,0.4015,0.3783,0.3342,0.2506,0.1822,0.1238,0.0466,-0.0067,-0.027,-0.0404,-0.0607,-0.0809,-0.1009,-0.1344,-0.1812,-0.2041,-0.2197,-0.248,-0.3381,-0.3517,-0.3127,-0.4088,-0.4371,-0.4239,-0.4408,-0.4519,-0.4519,-0.4519,-0.4519,-0.4519,-0.4519,-0.4519,-0.4519,-0.4519,-0.4519,-0.4519,-0.4519,-0.4519,-0.4519,-0.4632,-0.4794,-0.4956,-0.5069,-0.5183,-0.5269,-0.519,-0.5121,-0.5015,-0.4755,-0.4606,-0.457,-0.457,-0.457,-0.4606,-0.478,-0.4684,-0.4687,-0.4922,-0.505,-0.5101,-0.4943,-0.4869,0.0,-0.4451,-0.4337,-0.4316,-0.4316,-0.5135,-0.5696,-0.5696,-0.6507,-0.6979,-0.6979,-0.753,-0.7946,-0.8144,-0.9164,-1.026,-1.1377,-1.1504,-1.1606,0.0,0.0,0.0,0.0,0.0,0.0,0.0,0.0,0.0,0.0,0.0,0.0,0.0,0.0,0.0,0.0,0.0,0.0,0.0,0.0,0.0,0.0,0.6759,0.6894,0.7057,0.647,0.588,0.5348,0.4872,0.4398,0.392,0.3906,0.375,0.3322,0.2528,0.1799,0.1415,0.0464,-0.0067,-0.027,-0.0404,-0.0539,-0.0809,-0.0932,-0.1321,-0.2045,-0.2308,-0.2638,-0.2913,-0.3944,-0.4079,0.0,-0.4371,-0.4606,-0.4519,-0.4519,-0.4519,0.0,0.0,0.0,0.0,0.0,-0.4426,-0.4382,-0.4494,-0.4423,-0.4382,-0.4498,-0.4519,-0.4519,-0.4577,-0.4684,-0.4849,-0.4959,-0.5074,-0.5107,-0.5108,-0.497,-0.4804,-0.455,-0.4441,-0.4434,-0.4434,-0.4434,-0.4463,-0.456,-0.4646,0.0,-0.484,-0.5003,-0.5076,-0.4938,-0.4792,-0.4621,-0.4414,-0.4321,-0.436,-0.4574,-0.5265,-0.5782,-0.5953,-0.6755,0.0,0.0,0.0,-0.8152,-0.8267,-0.9641,0.0,0.0,0.0,0.0,0.0,0.0,0.0,0.0,-1.3171,-1.3222,0.0,0.0,0.0,0.0,0.0,0.0,0.0,0.0,0.0,0.0,0.0,0.0,0.0,0.0,0.0,0.0,0.7155,0.738,0.7372,0.6504,0.569,0.5239,0.466,0.4195,0.3793,0.383,0.3895,0.3895,0.2699,0.1983,0.1983,0.0,0.0,0.0,0.0,-0.0471,-0.0735,-0.0781,-0.1152,-0.1905,-0.2593,-0.2875,-0.2847,-0.4183,-0.4394,-0.3701,-0.4345,-0.4565,-0.4494,-0.4512,-0.4508,-0.4494,-0.4512,-0.4508,-0.4491,-0.4491,-0.4348,-0.419,-0.4368,0.0,0.0,-0.4392,-0.4481,-0.4474,-0.4508,-0.4553,-0.4692,-0.4816,-0.4862,-0.4884,-0.4972,-0.4784,-0.4497,-0.4473,-0.439,-0.4316,-0.4316,-0.4316,-0.4316,-0.4316,-0.4402,-0.4473,-0.4497,-0.469,-0.4853,-0.4999,-0.4751,-0.4493,-0.4566,-0.4463,-0.4578,-0.5048,0.0,0.0,-0.6289,-0.7175,-0.7516,-0.7105,-0.7897,-0.8521,-0.8837,-1.0067,-1.0381,-0.9667,-1.0433,-1.0654,-1.0283,-1.1136,-1.1738,-1.22,-1.2598,-1.2724,0.0,0.0,0.0,0.0,0.0,0.0,0.0,0.0,0.0,0.0,0.0,0.0,0.0,0.0,0.0,0.6492,0.6921,0.7241,0.7369,0.6412,0.5503,0.5005,0.4228,0.373,0.3674,0.3637,0.3651,0.3651,0.2527,0.1864,0.1864,0.0654,0.0,-0.0067,-0.0202,-0.033,-0.0377,-0.0625,-0.1093,-0.1842,0.0,0.0,-0.3353,-0.4034,-0.4171,-0.3958,-0.4214,-0.4264,-0.4244,-0.4412,-0.4395,-0.4247,-0.4419,-0.4392,-0.4237,-0.4237,-0.4143,-0.4066,-0.4097,-0.4087,-0.4087,-0.4187,-0.4206,-0.4151,-0.4443,-0.4403,0.0,-0.4512,-0.4639,-0.4634,-0.4542,-0.4502,-0.4461,-0.4361,-0.43,-0.4316,-0.4316,-0.4316,-0.4316,-0.4316,-0.4304,-0.4373,-0.4473,-0.469,-0.4767,-0.4618,-0.4546,-0.4583,-0.487,-0.4902,-0.5053,-0.5524,-0.5953,-0.6204,-0.6289,-0.7175,-0.7682,-0.7558,-0.8472,-0.9257,-0.9734,-1.0047,-1.0165,-1.0,-1.0283,-1.0361,-1.0283,-1.0791,-1.1445,-1.2209,-1.3006,-1.3522,0.0,0.0,0.0,0.0,0.0,0.0,0.0,0.0,0.0,0.0,0.0,0.4638,0.4941,0.0,0.6504,0.6946,0.7296,0.7507,0.7472,0.6465,0.5526,0.5095,0.419,0.3525,0.3406,0.34,0.34,0.34,0.2341,0.1676,0.1703,0.0625,0.0,0.0,-0.0129,-0.019,-0.0302,-0.0409,-0.0847,-0.1581,-0.1926,-0.2521,-0.3303,-0.3616,-0.3837,-0.4022,-0.405,-0.4083,-0.4093,-0.4294,-0.4311,-0.4204,-0.4328,-0.4263,-0.4083,-0.4083,-0.4036,-0.3917,-0.3992,-0.3968,-0.3931,-0.4033,-0.403,-0.405,-0.4195,-0.4189,-0.4136,-0.4317,-0.4324,-0.4278,-0.429,-0.4299,-0.4304,-0.4212,-0.4232,-0.4316,-0.4316,-0.4316,-0.436,-0.4618,-0.4661,-0.4736,-0.5058,-0.5207,-0.5181,-0.4912,-0.5011,-0.5173,-0.5323,-0.5351,-0.5524,-0.5947,-0.6161,-0.6374,-0.6634,-0.7301,-0.7807,-0.7979,-0.8683,-0.9257,-0.9585,-0.9813,-1.001,-1.0079,-1.0166,-1.0235,-1.0283,-1.0703,-1.1133,-1.1592,-1.2461,-1.3213,0.0,0.0,0.0,0.0,0.0,0.0,0.0,0.4351,0.4237,0.4433,0.4739,0.5055,0.5253,0.6209,0.7035,0.7388,0.766,0.777,0.7553,0.6597,0.5756,0.5321,0.4261,0.3485,0.3279,0.3218,0.3218,0.3218,0.2289,0.1721,0.1603,0.0646,0.0121,0.0,0.0,-0.006,-0.0229,-0.0217,-0.0523,-0.1183,-0.1348,-0.187,-0.2754,-0.305,-0.3395,-0.3785,-0.3912,-0.3992,-0.4029,-0.4103,-0.4133,-0.4107,-0.4107,-0.4016,-0.3938,-0.3965,-0.388,-0.3768,-0.389,-0.3853,-0.3775,-0.3927,-0.3958,-0.3944,-0.4002,-0.3978,-0.3941,-0.407,-0.4013,-0.3986,-0.4083,-0.4078,-0.4064,-0.4196,-0.432,-0.4403,-0.4491,-0.4535,-0.4661,-0.5048,-0.5135,-0.5265,-0.5653,-0.5782,-0.5717,-0.5374,-0.5512,-0.5739,-0.5825,-0.5825,-0.5996,-0.638,-0.6501,-0.6797,-0.7356,-0.7724,-0.8144,-0.8561,-0.8935,-0.9185,-0.9306,-0.9625,-0.9892,-1.0088,-1.0088,-1.0166,-1.0283,-1.0625,-1.083,-1.0928,-1.1641,-1.2385,-0.0557,0.0718,0.2265,0.334,0.3686,0.3922,0.0,0.4351,0.4237,0.4433,0.4556,0.4714,0.5222,0.5828,0.649,0.7063,0.7396,0.7644,0.7593,0.6806,0.6055,0.5519,0.4355,0.3542,0.3374,0.3371,0.3321,0.3218,0.2603,0.2023,0.1602,0.0999,0.0454,0.0,0.0,0.0,-0.0052,-0.0153,-0.0245,-0.0321,-0.0864,-0.1271,-0.1543,-0.2398,-0.2847,-0.3035,-0.3572,-0.3894,-0.4022,-0.4039,-0.3965,-0.3843,-0.3843,-0.3754,-0.3646,-0.3771,-0.3727,-0.3605,-0.3626,-0.3619,-0.3629,-0.3771,-0.3731,-0.368,-0.3941,-0.3836,-0.3656,-0.3828,-0.3802,-0.3725,-0.3769,-0.3847,-0.4012,-0.4443,-0.4666,-0.4845,-0.5275,-0.5443,-0.5567,-0.561,-0.561,-0.5653,-0.5696,-0.599,-0.6087,-0.5685,-0.5669,-0.5825,-0.6204,-0.6246,-0.6416,-0.6852,-0.7308,-0.7889,-0.8683,-0.8814,-0.9056,-0.9515,-0.9603,-0.9643,-0.9634,-0.9744,-0.9862,-1.0019,-1.0088,-1.0166,-1.0283,-1.0371,-1.0547,-1.0908,-1.1016,-1.1533,0.0748,0.1975,0.3169,0.3476,0.3913,0.4307,0.4502,0.4499,0.4605,0.514,0.5445,0.5773,0.6367,0.6858,0.725,0.7373,0.7514,0.7486,0.7182,0.6429,0.5825,0.5413,0.4682,0.3984,0.3488,0.3443,0.3342,0.3097,0.258,0.2046,0.1496,0.0983,0.0475,0.0,0.0,0.0,0.0,-0.0048,-0.0093,-0.009,-0.0404,-0.0762,-0.1074,-0.1919,-0.2677,-0.3309,-0.3597,-0.3751,-0.3887,-0.3887,-0.3849,-0.3792,-0.3792,-0.3883,-0.398,-0.3781,-0.3632,-0.3581,-0.3581,-0.3581,-0.3592,-0.3649,-0.3629,-0.3691,-0.4042,-0.4078,-0.4028,-0.4096,-0.4062,-0.3965,-0.3707,-0.3751,-0.3968,-0.414,-0.4578,-0.4884,-0.484,-0.5053,-0.5394,-0.5653,-0.5696,-0.5867,-0.638,-0.6592,-0.6634,-0.6465,-0.6465,-0.6507,-0.6677,-0.6719,-0.6888,-0.7349,-0.7807,-0.8185,-0.857,-0.8854,-0.9096,-0.9266,-0.9554,-0.9683,-0.9683,-0.9753,-0.998,-1.0361,-1.0428,-1.0649,-1.0992,-1.0764,-1.075,-1.0893,-1.0913,-1.1113,0.272,0.3465,0.4012,0.4113,0.447,0.484,0.4935,0.4947,0.5087,0.569,0.6039,0.6408,0.6985,0.7361,0.7593,0.7478,0.7486,0.7328,0.6872,0.6261,0.5784,0.5538,0.5182,0.4736,0.4078,0.3791,0.3528,0.3287,0.2765,0.2174,0.1495,0.1106,0.0684,0.0195,0.0049,0.0048,0.0188,0.0046,-0.0045,-0.0179,-0.0269,-0.0583,-0.1119,-0.1832,-0.2635,-0.3534,-0.3534,-0.3636,-0.3734,-0.3734,-0.3734,-0.3734,-0.3734,-0.3893,-0.4056,-0.3711,-0.3667,-0.3755,-0.3622,-0.3581,-0.3581,-0.3581,-0.3581,-0.3667,-0.4012,-0.41,-0.41,-0.41,-0.41,-0.4016,-0.3667,-0.3711,-0.384,-0.3968,-0.4447,-0.4831,-0.4618,-0.4923,-0.5308,-0.5782,-0.5782,-0.5996,-0.6852,-0.6894,-0.6852,-0.6979,-0.6979,-0.6979,-0.6979,-0.6979,-0.7231,-0.7807,-0.8103,-0.8406,-0.8643,-0.8975,-0.9185,-0.9185,-0.9515,-0.9762,-0.9872,-0.9941,-1.0235,-1.0774,-1.0829,-1.1057,-1.1516,-1.1217,-1.1067,-1.1078,-1.1062,-1.1055,0.5591,0.5346,0.4941,0.5716,0.5671,0.5531,0.5731,0.578,0.578,0.579,0.579,0.5941,0.6444,0.6734,0.7013,0.7158,0.7212,0.7121,0.6848,0.6536,0.6265,0.6027,0.5951,0.5785,0.5303,0.4537,0.4041,0.3862,0.3296,0.2588,0.1654,0.1436,0.1168,0.0674,0.0225,0.0225,0.0672,0.0225,-0.0224,-0.0671,-0.0671,-0.0985,-0.1614,-0.2192,-0.2815,-0.3398,-0.3398,-0.349,-0.3588,-0.3588,-0.3588,-0.3588,-0.3588,-0.3629,-0.3622,-0.3626,-0.3884,-0.4228,-0.3755,-0.3581,-0.3581,-0.3581,-0.3581,-0.3626,-0.3626,-0.3622,-0.3622,-0.3622,-0.3622,-0.3622,-0.3626,-0.3626,-0.3711,-0.4188,-0.4447,-0.4744,-0.5178,-0.5475,-0.5782,-0.6204,-0.5947,-0.5996,-0.6852,-0.6634,-0.6465,-0.6937,-0.6979,-0.6979,-0.6979,-0.6979,-0.7314,-0.8193,-0.8275,-0.8692,-0.9594,-0.9683,-0.9683,-0.9683,-0.9683,-0.9872,-1.0283,-1.0351,-1.0649,-1.118,-1.1244,-1.1356,-1.1516,-1.1479,-1.1479,-1.1479,-1.149,-1.1463,0.7117,0.7079,0.6948,0.678,0.6766,0.6756,0.6717,0.6734,0.688,0.744,0.7437,0.7532,0.8064,0.8146,0.8126,0.8014,0.8011,0.786,0.7466,0.7162,0.6901,0.6686,0.6882,0.6949,0.6778,0.5625,0.4768,0.4509,0.4299,0.3723,0.2578,0.2492,0.2051,0.1208,0.1031,0.0851,0.0716,0.0537,0.0224,-0.0224,-0.0537,-0.097,-0.1502,-0.2013,-0.2571,-0.3124,-0.3214,-0.3298,-0.3393,-0.3537,-0.3581,-0.3581,-0.3581,-0.3799,-0.4016,-0.3711,-0.3884,-0.4232,-0.3755,-0.3581,-0.3581,-0.3581,-0.3581,-0.3667,-0.3972,-0.4056,-0.4056,-0.4056,-0.4056,-0.3972,-0.3667,-0.3619,-0.3704,-0.3877,-0.4268,-0.4661,-0.4923,-0.5275,-0.5701,-0.6204,-0.6204,-0.6295,-0.6894,-0.6852,-0.693,-0.7391,-0.7474,-0.7474,-0.7474,-0.7979,-0.8439,-0.8732,-0.9056,-0.9355,-0.9683,-0.9683,-0.9683,-0.9683,-0.9683,-0.9762,-0.9911,-1.0235,-1.0649,-1.118,-1.1542,-1.1909,-1.2294,-1.2041,-1.1884,-1.1884,-1.1627,-1.1516,0.9625,0.9407,0.9224,0.8333,0.8053,0.8038,0.799,0.7893,0.7935,0.8591,0.866,0.8668,0.8985,0.8962,0.8797,0.8621,0.859,0.8465,0.816,0.7967,0.7803,0.7653,0.7941,0.8055,0.7886,0.7166,0.6373,0.57,0.5197,0.4438,0.3359,0.3135,0.2669,0.1744,0.1566,0.1298,0.094,0.0805,0.0358,-0.0269,-0.0882,-0.1337,-0.1637,-0.206,-0.2494,-0.2904,-0.2989,-0.3133,-0.3271,-0.3413,-0.3614,-0.384,-0.384,-0.4144,-0.4535,-0.4232,-0.4272,-0.4447,-0.3843,-0.3581,-0.3581,-0.3581,-0.3581,-0.3667,-0.3972,-0.4056,-0.41,-0.4272,-0.4316,-0.4232,-0.3928,-0.4008,-0.4136,-0.3961,-0.4355,-0.4792,-0.4884,-0.5188,-0.5572,-0.6087,-0.6081,-0.6209,-0.6859,-0.6985,-0.7147,-0.7641,-0.7807,-0.7938,-0.7938,-0.8398,-0.8814,-0.8975,-0.9266,-0.9515,-0.9683,-0.9683,-0.9683,-0.9683,-0.9832,-0.998,-1.0137,-1.0572,-1.0981,-1.133,-1.1836,-1.221,-1.2401,-1.233,-1.2294,-1.2294,-1.2029,-1.192,1.2917,1.2239,1.1588,1.0338,0.9682,0.9392,0.9522,0.9276,0.9114,0.9449,0.946,0.9421,0.9301,0.9198,0.9114,0.9047,0.9015,0.9004,0.9007,0.8947,0.8859,0.8859,0.9156,0.917,0.866,0.898,0.8704,0.7348,0.0,0.4945,0.4008,0.3542,0.3025,0.2413,0.1919,0.1606,0.1429,0.0937,0.0223,-0.0667,-0.1499,-0.1929,-0.1918,-0.231,-0.2529,-0.2642,-0.2689,-0.2878,-0.3159,-0.3166,-0.3588,-0.4248,-0.4248,-0.4509,-0.4904,-0.4904,-0.4913,-0.4792,-0.3928,-0.3622,-0.3667,-0.3667,-0.3667,-0.3667,-0.3667,-0.3667,-0.3711,-0.4188,-0.4316,-0.4316,-0.4316,-0.4661,-0.4879,-0.4403,-0.4709,-0.5058,-0.5101,-0.5183,-0.5437,-0.5933,-0.5798,-0.5879,-0.6787,-0.6985,-0.7231,-0.7682,-0.8103,-0.8357,-0.8357,-0.8357,-0.8561,-0.9016,-0.9056,-0.9266,-0.9723,-0.9762,-0.9753,-0.9723,-1.0098,-1.0505,-1.084,-1.1356,-1.1616,-1.1605,-1.221,-1.2318,-1.1945,-1.2449,-1.2709,-1.2709,-1.2709,-1.2709,1.3953,1.3282,1.2703,1.1833,1.1573,1.1502,1.1485,1.1676,1.1966,1.2293,1.1866,1.152,1.175,1.1216,1.0809,1.1105,1.0872,1.0644,1.0479,1.0172,0.9855,0.963,0.9876,1.0004,0.9835,0.9872,0.9723,0.935,0.8018,0.6781,0.5855,0.5149,0.4387,0.351,0.3246,0.2721,0.1916,0.1025,0.0421,0.0203,-0.0622,-0.0972,-0.0909,-0.164,-0.1958,-0.1961,-0.2366,-0.2646,-0.276,-0.2907,-0.3089,-0.3242,-0.3326,-0.347,-0.365,-0.3696,-0.3816,-0.3928,-0.3667,-0.4056,-0.4661,-0.4661,-0.4661,-0.4661,-0.4661,-0.4403,-0.4144,-0.4276,-0.4316,-0.4316,-0.4316,-0.4661,-0.4879,-0.4403,-0.4403,-0.4622,-0.5014,-0.5145,-0.5443,-0.6483,-0.6647,-0.6768,-0.728,-0.769,-0.8144,-0.8602,-0.9056,-0.9226,-0.8854,-0.9145,-0.9506,-0.9932,-0.9971,-1.0118,-1.0544,-1.0582,-1.0467,-1.0176,-1.0505,-1.0659,-1.0467,-1.1207,-1.1653,-1.1737,-1.2246,-1.2508,-1.2484,-1.2627,-1.2709,-1.2709,-1.2709,-1.2838,1.5167,1.4653,1.4235,1.3244,1.3141,1.3271,1.3216,1.3811,1.4314,1.4298,1.4197,1.4111,1.4001,1.3275,1.2839,1.3182,1.2782,1.2378,1.2149,1.1811,1.1486,1.1084,1.1318,1.1388,1.1105,1.107,1.0934,1.0633,0.9056,0.7722,0.6846,0.6083,0.5346,0.4517,0.414,0.3385,0.223,0.1262,0.0765,0.0745,-0.0039,-0.0345,-0.029,-0.1136,-0.1554,-0.168,0.0,-0.2272,-0.2582,-0.2661,-0.2914,-0.3204,-0.3243,-0.3449,-0.369,-0.3812,-0.3947,-0.4042,-0.416,-0.4578,-0.4923,-0.4535,-0.4403,-0.4403,-0.4403,-0.4188,-0.4016,-0.4232,-0.4316,-0.4316,-0.4316,-0.4661,-0.4879,-0.4403,-0.4447,-0.4705,-0.5009,-0.5053,-0.5394,-0.6592,-0.6846,-0.7098,-0.7731,-0.8103,-0.8439,-0.8935,-0.9226,-0.9395,-0.9315,-0.9704,-1.0059,-1.0283,-1.0467,-1.0659,-1.0878,-1.0916,-1.0802,-1.0582,-1.0954,-1.1067,-1.084,-1.1468,-1.1774,-1.1664,-1.2258,-1.2579,-1.252,-1.2803,-1.2908,-1.2931,-1.3012,-1.3104,1.6144,1.5868,1.5617,1.443,1.4423,1.4737,1.4737,1.5614,1.6335,1.5995,1.6364,1.6599,1.6157,1.5457,1.5019,1.5272,1.4748,1.4223,1.39,1.3617,1.3289,1.2818,1.2949,1.2864,1.2334,1.2316,1.2121,1.1584,0.9863,0.8461,0.7579,0.681,0.6064,0.5348,0.4687,0.3802,0.2616,0.1698,0.1234,0.1226,0.048,0.0108,0.0036,-0.0652,-0.1142,-0.144,-0.1509,0.0,-0.2333,-0.2368,-0.2722,-0.3286,-0.3403,-0.3675,-0.4016,-0.4258,-0.4392,-0.4441,-0.4676,-0.4787,-0.4661,-0.4012,-0.3799,-0.3799,-0.3799,-0.3755,-0.3799,-0.4188,-0.4316,-0.4316,-0.4316,-0.4661,-0.4879,-0.4403,-0.4661,-0.5009,-0.5009,-0.5091,-0.548,-0.6452,-0.6784,-0.7175,-0.8103,-0.8316,-0.8561,-0.9016,-0.9105,-0.9226,-0.9643,-1.0088,-1.0351,-1.0428,-1.084,-1.1105,-1.118,-1.1169,-1.1142,-1.1105,-1.1479,-1.1653,-1.1627,-1.1993,-1.2066,-1.1763,-1.2437,-1.2708,-1.2472,-1.2953,-1.3207,-1.3263,-1.3344,-1.3378,1.5669,1.5367,1.5233,1.4833,1.5322,1.592,1.59,1.68,1.7817,1.855,1.805,1.7745,1.8527,1.7783,1.7064,1.6987,1.6701,1.6324,1.5879,1.4985,1.4362,1.4258,1.3771,1.3357,1.3276,1.3122,1.2972,1.2889,1.1895,1.0703,0.9333,0.815,0.686,0.5438,0.463,0.4043,0.3648,0.26,0.2011,0.1821,0.1211,0.0745,0.0409,0.0,-0.0369,-0.0705,-0.1041,0.0,-0.1364,-0.1633,-0.1675,-0.1589,-0.2279,-0.2481,-0.2441,-0.2956,-0.3199,-0.3319,-0.3604,-0.366,-0.3788,-0.453,-0.4748,-0.4748,-0.4748,-0.4491,-0.4188,-0.4276,-0.4316,-0.4316,-0.4316,-0.4661,-0.4879,-0.4403,-0.4661,-0.5009,-0.5009,-0.5658,-0.6264,-0.6447,-0.6937,-0.7516,-0.7979,-0.8521,-0.9016,-0.9515,-0.9594,-0.9603,-0.9683,-1.0254,-1.0771,-1.1094,-1.1678,-1.2198,-1.2532,-1.2567,-1.2425,-1.2079,-1.2413,-1.2496,-1.2151,-1.265,-1.2943,-1.2998,-1.3229,-1.3399,-1.3454,-1.3285,-1.3331,-1.3602,-1.3082,-1.3288,1.5478,1.5251,1.5347,1.5703,1.6388,1.7073,1.7473,1.8901,2.013,2.0127,1.9965,1.9864,1.9968,1.8935,1.815,1.844,1.7946,1.7547,1.7561,1.6909,1.6235,1.5754,1.5368,1.5012,1.4564,1.4259,1.3992,1.3794,1.3162,1.1954,1.006,0.8583,0.7296,0.6202,0.5561,0.5046,0.4648,0.3745,0.3227,0.3078,0.2281,0.1843,0.1698,0.0703,0.0168,-0.0067,-0.0571,0.0,-0.1111,-0.1278,-0.1244,-0.1145,-0.1512,-0.1631,-0.1572,-0.1922,-0.2094,-0.2273,-0.3032,-0.3426,-0.3683,-0.4613,-0.4797,-0.4661,-0.4923,-0.4487,-0.3917,-0.3917,-0.3917,-0.3917,-0.3917,-0.4487,-0.4923,-0.4705,-0.5,-0.5293,-0.5293,-0.5936,-0.6622,-0.7056,-0.7467,-0.7957,-0.8586,-0.9293,-0.9746,-0.9634,-1.0264,-1.0619,-1.0254,-1.1116,-1.1634,-1.1345,-1.1788,-1.2162,-1.2354,-1.2378,-1.2306,-1.209,-1.227,-1.2461,-1.2603,-1.3022,-1.3195,-1.3091,-1.3454,-1.3656,-1.3648,-1.3635,-1.3689,-1.3835,-1.3689,-1.3868,1.5655,1.5373,1.5485,1.6369,1.7148,1.7916,1.8663,2.0348,2.1639,2.1187,2.1301,2.137,2.1045,1.9887,1.9171,1.9766,1.92,1.8837,1.9203,1.8864,1.8263,1.7471,1.709,1.6665,1.6089,1.5577,1.5169,1.4859,1.4045,1.2628,1.0523,0.9111,0.7986,0.7123,0.6649,0.6092,0.5411,0.4745,0.437,0.421,0.3325,0.2907,0.2882,0.1599,0.0903,0.07,0.0301,0.0,0.0,-0.0374,-0.0511,-0.0857,-0.0725,-0.0777,-0.0988,-0.1283,-0.1382,-0.1519,-0.25,-0.3014,-0.3359,-0.4081,-0.4264,-0.4264,-0.4613,-0.4041,-0.3296,-0.3296,-0.3296,-0.3296,-0.3296,-0.3822,-0.4391,-0.4517,-0.4765,-0.5139,-0.5727,-0.6187,-0.6857,-0.7993,-0.8407,-0.877,-0.9442,-1.0215,-1.0532,-1.003,-1.0939,-1.1476,-1.0966,-1.1902,-1.239,-1.1754,-1.2067,-1.2306,-1.2306,-1.2306,-1.2306,-1.2306,-1.2306,-1.2555,-1.3082,-1.3331,-1.3399,-1.3263,-1.3696,-1.394,-1.3967,-1.4084,-1.4181,-1.4292,-1.4406,-1.4452,1.6394,1.5802,1.5415,1.629,1.7161,1.7999,1.88,1.9668,2.0627,2.1832,2.1147,2.0735,2.1995,2.1291,2.0614,2.0908,2.0914,2.096,2.1061,2.0515,1.9959,1.9562,1.8408,1.7642,1.7743,1.7082,1.6606,1.658,1.46,1.2702,1.1103,1.0593,0.952,0.7785,0.7378,0.6721,0.5667,0.5342,0.4973,0.4535,0.4146,0.3621,0.3001,0.278,0.2356,0.1767,0.2021,0.0,0.0,0.1976,0.1453,-0.0036,0.0487,0.0187,-0.0626,-0.113,-0.1296,-0.135,-0.1627,-0.1782,-0.1914,-0.2527,-0.3274,-0.3894,-0.3778,-0.3028,-0.2233,-0.2233,-0.2233,-0.2233,-0.2233,-0.2322,-0.2495,-0.2885,-0.3014,-0.3695,-0.6079,-0.6661,-0.7277,-0.9247,-1.0012,-1.0376,-1.0462,-1.0956,-1.1324,-1.1387,-1.1524,-1.1597,-1.1623,-1.1987,-1.2471,-1.2979,-1.3374,-1.3641,-1.3641,-1.3641,-1.3641,-1.3641,-1.3641,-1.3641,-1.3721,-1.3741,-1.396,-1.4342,-1.4406,-1.4672,-1.5147,-1.48,-1.4831,-1.5178,-1.4519,-1.4582,1.7336,1.6971,1.6919,1.7833,1.8352,1.8849,1.9668,2.0812,2.1869,2.2345,2.2318,2.2192,2.2161,2.1188,2.0548,2.1022,2.0789,2.0926,2.2048,2.1743,2.1256,2.0927,2.0321,1.9603,1.875,1.8358,1.7895,1.7215,1.6175,1.4837,1.3172,1.1306,0.9967,0.9207,0.8739,0.8299,0.7878,0.7605,0.7185,0.6576,0.6087,0.571,0.5444,0.4366,0.4082,0.4432,0.3639,0.0,0.0,0.3717,0.3524,0.3089,0.3324,0.3182,0.2739,0.1496,0.1047,0.0817,-0.0883,-0.1601,-0.1906,-0.2566,-0.283,-0.2917,-0.3325,-0.2796,-0.2002,-0.2093,-0.2093,-0.2093,-0.2093,-0.2534,-0.2976,-0.319,-0.3447,-0.3951,-0.4957,-0.6428,-0.7779,-0.8635,-1.0491,-1.1741,-1.1175,-1.2135,-1.2657,-1.1757,-1.2855,-1.3428,-1.2436,-1.329,-1.3906,-1.3596,-1.365,-1.3736,-1.3736,-1.3537,-1.3517,-1.3736,-1.3361,-1.3421,-1.4072,-1.43,-1.4383,-1.4369,-1.4672,-1.4797,-1.4811,-1.4658,-1.4738,-1.5058,-1.489,-1.5013,1.8662,1.8273,1.8236,1.8899,1.9308,1.9772,2.0609,2.1863,2.2892,2.303,2.3114,2.3016,2.253,2.1491,2.0934,2.1586,2.1301,2.1467,2.2906,2.302,2.2816,2.2464,2.2114,2.1357,2.0091,1.9275,1.8461,1.7631,1.7226,1.6452,1.519,1.2991,1.1402,1.0515,1.0102,0.9805,0.9629,0.9375,0.8987,0.8426,0.7925,0.7718,0.7753,0.646,0.6316,0.7062,0.6,0.0,0.0,0.6543,0.6546,0.6428,0.683,0.6765,0.6249,0.5091,0.4649,0.4373,0.247,0.1657,0.1366,0.0881,0.1002,0.1206,0.056,-0.0126,-0.0616,-0.0175,-0.0902,-0.1841,-0.1882,-0.3231,-0.4595,-0.4595,-0.4849,-0.526,-0.5894,-0.7488,-0.896,-0.957,-1.1483,-1.2801,-1.2134,-1.3275,-1.3908,-1.2808,-1.405,-1.4822,-1.3981,-1.4716,-1.5193,-1.4832,-1.4846,-1.4576,-1.3808,-1.3491,-1.347,-1.371,-1.3281,-1.334,-1.4138,-1.4461,-1.4588,-1.4461,-1.4859,-1.5013,-1.4876,-1.4876,-1.4968,-1.5165,-1.5314,-1.5448,2.0485,1.9638,1.8992,1.8996,1.9703,2.0619,2.1483,2.2363,2.321,2.3928,2.3199,2.2633,2.3356,2.2604,2.2157,2.2953,2.3065,2.3235,2.3717,2.4481,2.4827,2.4427,2.3554,2.2717,2.2051,1.9699,1.8146,1.8005,1.7386,0.0,1.677,1.6111,1.4385,1.1485,1.1321,1.1002,1.0399,1.0191,0.9943,0.9674,0.9404,0.9324,0.9369,0.9162,0.912,0.0,0.0,0.0,0.0,1.0965,1.0767,0.9579,1.0917,1.0616,0.9443,0.9431,0.942,0.942,0.9409,0.9379,0.9379,0.9368,0.9368,0.9368,0.9285,0.5929,0.2519,0.4244,0.1873,-0.123,-0.1386,-0.4266,-0.7154,-0.7154,-0.7154,-0.7753,-0.9883,-1.0354,-1.0984,-1.3039,-1.3473,-1.3493,-1.3473,-1.427,-1.4945,-1.5056,-1.4971,-1.5317,-1.6502,-1.605,-1.5992,-1.7057,-1.7461,-1.6612,-1.4032,-1.3788,-1.3788,-1.3788,-1.3788,-1.3788,-1.3788,-1.4138,-1.4461,-1.4808,-1.5118,-1.5448,-1.5799,-1.5799,-1.5799,-1.5799,-1.5799,-1.5799,2.2003,2.1914,2.1723,2.1723,2.1979,2.2318,2.2584,2.2832,2.3218,2.3952,2.3697,2.3408,2.36,2.321,2.3103,2.3923,2.3985,2.4376,2.5665,2.5474,2.5155,2.5032,2.3705,2.2479,2.1662,2.0402,1.9379,1.8717,1.8485,1.8127,1.7591,1.7397,1.6139,1.3604,1.3406,1.2959,1.2186,1.211,1.1851,1.1419,1.1885,1.2072,1.2,1.2129,1.251,0.0,0.0,0.0,0.0,1.3399,1.3352,1.3109,1.3715,1.3685,1.3112,1.1934,1.1597,1.1579,1.039,0.998,0.9967,0.9973,1.0018,1.0259,1.1372,0.9505,0.7084,0.7474,0.6682,0.5687,0.5665,0.1983,-0.1736,-0.1736,-0.4535,-0.7392,-0.8064,-0.9401,-1.0665,-1.1315,-1.3197,-1.4468,-1.3821,-1.4482,-1.4905,-1.4305,-1.4719,-1.4985,-1.4641,-1.4982,-1.5396,-1.5723,-1.586,-1.6081,-1.6418,-1.5634,-1.5213,-1.5429,-1.4401,-1.3921,-1.4138,-1.4235,-1.4365,-1.4461,-1.4641,-1.4814,-1.4907,-1.5058,-1.5314,-1.5668,-1.561,-1.561,2.3132,2.3467,2.3402,2.3077,2.3279,2.3547,2.3558,2.3766,2.409,2.4515,2.4436,2.4255,2.417,2.3978,2.3995,2.4484,2.4512,2.4943,2.6302,2.6228,2.5986,2.5871,2.4337,2.2812,2.1551,2.077,1.9986,1.915,1.917,1.9041,1.8573,1.866,1.7913,1.6143,1.5502,1.4927,1.4328,1.4294,1.4109,1.3803,1.4263,1.4552,1.4666,1.478,1.5217,0.0,0.0,0.0,0.0,1.604,1.6237,1.6629,1.6813,1.6835,1.6692,1.5592,1.5308,1.5275,1.4185,1.3818,1.3813,1.3792,1.3806,1.4047,1.5062,1.3565,1.1508,1.1322,1.0224,0.9087,0.9035,0.5407,0.1782,0.1782,-0.0763,-0.3216,-0.3306,-0.6047,-0.8526,-0.86,-1.1886,-1.449,-1.3899,-1.4583,-1.5005,-1.4413,-1.4784,-1.5029,-1.48,-1.4955,-1.5244,-1.5587,-1.5624,-1.6062,-1.7112,-1.6512,-1.5983,-1.5796,-1.5235,-1.4993,-1.5213,-1.5343,-1.54,-1.54,-1.5598,-1.571,-1.571,-1.5823,-1.5884,-1.5834,-1.62,-1.6173,0.0,2.4316,2.4107,2.3305,2.3751,2.4407,2.4392,2.4961,0.0,2.5408,2.5188,2.501,2.4972,2.4832,2.4745,2.4858,2.4876,2.5177,2.6057,2.6754,2.706,2.6693,2.5282,2.3603,2.1735,2.0943,2.0181,1.9298,1.9473,1.9613,1.9613,1.9817,1.9568,1.8818,1.7591,1.6817,1.6562,1.6504,1.6468,1.6468,1.6461,1.6718,1.7199,1.7066,1.7305,0.0,0.0,0.0,0.0,1.872,1.9141,1.9805,1.9827,1.9835,1.9827,1.9812,1.9819,1.9841,1.9838,1.9851,1.9822,1.9773,1.9735,1.972,1.9653,1.7786,1.5678,1.5537,1.2892,1.0057,0.9941,0.6978,0.3998,0.3946,0.3679,0.3375,0.3135,-0.0975,-0.4679,-0.4885,-0.9076,-1.2625,-1.2587,-1.3313,-1.4037,-1.4427,-1.4379,-1.4821,-1.6282,-1.5608,-1.5351,-1.6286,-1.6391,-1.6362,-1.6291,-1.645,-1.6146,-1.5147,-1.6026,-1.659,-1.659,-1.6975,-1.7154,-1.7154,-1.7461,-1.7637,-1.7659,-1.7659,-1.7203,-1.6333,-1.7294,-1.7242,2.3935,0.0,2.4327,2.4113,2.4724,2.5352,0.0,2.4937,2.4738,2.5158,2.4648,2.4448,2.5529,2.517,2.512,2.6397,2.6604,2.6904,2.773,2.7467,2.6701,2.5344,2.4841,2.3945,2.2275,2.1952,2.1258,1.9835,1.9794,1.9836,1.9836,2.0012,2.0,1.9697,1.9494,1.865,1.7132,1.7094,1.7083,1.7105,1.7713,1.8056,1.8193,1.8802,1.9164,0.0,0.0,0.0,1.9602,1.9766,1.9806,1.9812,2.002,2.0071,2.0033,2.0029,2.0098,2.0188,2.024,2.026,2.0263,2.0305,2.018,1.9996,1.9981,1.9335,1.8581,1.845,1.7645,1.6817,1.6846,1.3426,0.9834,0.9278,0.6438,0.3685,0.3017,0.1836,0.0898,0.0864,-0.0208,-0.1045,-0.0907,-0.1066,-0.2648,-0.6917,-0.7514,-0.9151,-1.374,-1.4121,-1.4295,-1.5178,-1.5274,-1.5238,-1.5182,-1.5267,-1.5212,-1.4968,-1.5268,-1.5465,-1.5465,-1.6336,-1.6825,-1.6825,-1.6888,-1.7053,-1.7317,-1.7317,-1.7334,-1.7339,-1.7334,-1.735,2.2851,2.3784,2.45,2.4902,2.5331,2.5637,2.5612,2.5234,2.4956,2.5195,2.4821,2.466,2.5362,2.5096,2.5213,2.65,2.6707,2.6973,2.7749,2.7167,2.6303,2.5405,2.4967,2.4091,2.2456,2.2388,2.1757,2.0126,2.0087,2.0122,2.0086,2.0215,2.0263,2.0183,2.025,1.9741,1.8554,1.8571,1.858,1.8581,1.9082,1.9334,1.9385,1.9853,2.0094,0.0,0.0,0.0,2.0172,2.0288,2.0241,2.0133,2.0285,2.0292,2.024,2.024,2.0279,2.036,2.0383,2.0408,2.041,2.0441,2.0371,2.0243,2.0243,2.0114,1.9921,1.9766,1.9707,1.9804,2.0234,1.8434,1.6493,1.6451,1.4192,1.1876,1.1375,0.8866,0.6834,0.7114,0.5101,0.3377,0.3506,0.3505,0.2391,-0.0902,-0.1481,-0.2566,-0.5428,-0.5888,-0.6083,-0.6424,-0.6457,-0.7469,-0.9994,-1.026,-1.1582,-1.4652,-1.5385,-1.5706,-1.5706,-1.6256,-1.657,-1.657,-1.657,-1.6409,-1.6139,-1.6611,-1.6693,-1.6431,-1.7205,-1.7153,2.1721,2.3085,2.4409,2.5273,2.5538,2.5598,2.5601,2.5604,2.5543,2.536,2.5254,2.5201,2.5146,2.5118,2.5362,2.6174,2.6295,2.6472,2.6989,2.6465,2.5992,2.5857,2.5135,2.4055,2.2502,2.2388,2.1808,2.0263,2.0302,2.0383,2.0326,2.0371,2.0418,2.0413,2.0422,2.0323,2.0094,2.0141,2.0134,2.0122,2.024,2.0329,2.039,2.0372,2.0428,2.0479,0.0,0.0,2.0488,2.0488,2.048,2.0489,2.048,2.0441,2.0394,2.0405,2.0381,2.0381,2.0376,2.0371,2.0354,2.038,2.034,2.0299,2.0306,2.0313,2.0292,2.0271,2.0366,2.0643,2.1353,2.1733,2.2082,2.2649,2.2238,2.1633,2.1337,1.6908,1.3139,1.3645,0.9949,0.6735,0.6745,0.6759,0.6261,0.4768,0.4417,0.4044,0.3385,0.3189,0.3183,0.3385,0.3461,0.1598,-0.3149,-0.3526,-0.6304,-1.2863,-1.5081,-1.6235,-1.638,-1.639,-1.639,-1.639,-1.639,-1.5968,-1.5127,-1.5987,-1.5958,-1.5177,-1.6947,-1.6804,2.2467,2.3096,2.3505,2.4316,2.5067,2.5598,2.5609,2.5595,2.5557,2.541,2.5293,2.5405,2.6048,2.6085,2.6276,2.7143,2.7199,2.6968,2.6498,2.6228,2.5868,2.5298,2.4472,2.361,2.2719,2.2043,2.1311,2.0416,2.0371,2.0394,2.0394,2.0447,2.048,2.0477,2.0531,2.0554,2.0514,2.0414,2.032,2.0262,2.0292,2.0318,2.0321,2.0316,2.0326,2.0328,0.0,2.0419,2.0414,2.0429,2.0426,2.0413,2.0413,2.0362,2.0326,2.0377,2.0353,2.0327,2.0315,2.0248,2.0153,2.028,2.0086,1.9809,1.9874,1.9884,2.0036,2.0755,2.0884,2.0826,2.084,2.1708,2.2438,2.1916,2.2249,2.2491,2.1775,2.0871,2.0225,2.0318,1.9651,1.9112,1.9292,1.9321,1.7462,1.1958,1.1113,0.9101,0.3591,0.3023,0.3078,0.2991,0.329,0.3136,0.2221,0.2235,-0.0173,-0.5968,-1.1814,-1.5454,-1.6349,-1.639,-1.639,-1.639,-1.639,-1.6317,-1.6177,-1.6317,-1.6317,-1.6187,-1.6495,-1.6467,2.2578,2.3046,2.335,2.4671,2.5308,2.5609,2.5593,2.5595,2.557,2.5468,2.5401,2.5455,2.5803,2.5808,2.6022,2.6826,2.6874,2.6708,2.6403,2.5901,2.5272,2.45,0.0,2.3419,2.2171,2.1789,2.128,2.0454,2.0437,2.0444,2.0458,2.0529,2.0559,2.0558,2.0584,2.0586,2.0546,2.0487,2.0463,2.0455,2.0426,2.039,2.0351,2.0388,2.0404,2.0417,0.0,2.0489,2.0458,2.0441,2.0405,2.0349,2.0349,2.0328,2.0306,2.0332,2.0325,2.0304,2.0306,2.0253,2.0231,2.0272,2.0429,2.0543,2.0146,2.0288,2.0682,2.1005,2.1058,2.1204,2.2085,2.2697,2.3116,2.3241,2.3161,2.2967,2.2629,2.2127,2.1896,2.2354,2.2446,2.2513,2.2716,2.2666,2.1525,1.837,1.77,1.6554,1.3701,1.2941,1.269,1.274,1.251,1.1162,0.8188,0.8005,0.568,0.0131,-0.8858,-1.1423,-0.5769,-1.1414,-1.3379,-1.0633,-1.3575,-1.5299,-1.5608,-1.5608,-1.5608,-1.5593,-1.6177,-1.6005,2.2241,2.2843,2.3426,2.5154,2.5595,2.5595,2.5593,2.5601,2.5589,2.5531,2.551,2.5488,2.5445,2.5595,2.5869,2.6438,2.6463,2.6354,2.62,2.5576,2.4847,2.3994,2.3813,2.3165,2.1679,2.1479,2.1133,2.0476,2.046,2.05,2.0497,2.0546,2.0585,2.0583,2.0583,2.0559,2.0506,2.048,2.0511,2.0585,2.0518,2.046,2.0422,2.0483,2.049,2.0484,2.051,2.0483,2.0437,2.0456,2.039,2.0295,2.0295,2.0299,2.035,2.0735,2.0762,2.0604,2.0804,2.0855,2.0835,2.0889,2.1248,2.1541,2.0935,2.1024,2.1375,2.1658,2.1547,2.1718,2.3208,2.3609,2.3799,2.4411,2.397,2.3433,2.3452,2.2808,2.2447,2.3088,2.3253,2.3308,2.3449,2.3407,2.3177,2.2683,2.2393,2.2271,2.2353,2.1707,2.1229,2.1128,2.0666,1.8665,1.4508,1.2925,1.1043,0.8408,-0.2756,-0.5358,0.3333,-0.4625,-0.7318,-0.3195,-0.7396,-0.9733,-0.9964,-1.1591,-1.2399,-1.2448,-1.3272,-1.299,2.1347,2.2377,2.3426,2.5154,2.5601,2.5607,2.5601,2.5601,2.5601,2.5595,2.5538,2.551,2.5583,2.6144,2.6605,2.6593,2.6545,2.6256,2.5575,2.5367,2.5011,2.4254,2.348,2.2649,2.1773,2.1013,2.0564,2.049,2.0508,2.05,2.05,2.0509,2.051,2.0511,2.0519,2.0503,2.0499,2.0441,2.0437,2.0506,2.0503,2.05,2.0497,2.0508,2.0468,2.0396,2.0359,2.0269,2.0223,2.0289,2.0308,2.03,2.03,2.0292,2.0485,2.2043,2.21,2.1532,2.2337,2.2536,2.246,2.2575,2.2537,2.2424,2.242,2.1953,2.1703,2.3202,2.2924,2.238,2.3064,2.3787,2.4296,2.4155,2.4137,2.4062,2.3906,2.385,2.3852,2.3925,2.3983,2.404,2.4023,2.4241,2.4129,2.3343,2.3423,2.3307,2.2585,2.2585,2.2281,2.1301,2.1487,2.1512,2.1111,1.6295,1.5687,2.1347,0.9607,0.2849,0.3671,0.2926,0.3039,0.4212,0.3832,0.3972,0.4672,-0.1885,-0.5058,-0.5051,-0.5147,-0.5111,2.125,2.2338,2.3426,2.5154,2.5601,2.5601,2.5601,2.5601,2.5601,2.5601,2.5583,2.5577,2.5595,2.5835,2.601,2.5989,2.5948,2.5657,2.4819,2.4689,2.4173,2.2807,2.2347,2.1838,2.1021,2.0689,2.0492,2.0495,2.0547,2.0543,2.0497,2.0504,2.0509,2.0503,2.0496,2.0496,2.0496,2.0476,2.0443,2.0439,2.0405,2.0355,2.0301,2.0357,2.0363,2.0346,2.032,2.0308,2.0308,2.0306,2.0281,2.0291,2.0826,2.1383,2.1929,2.2581,2.2581,2.2342,2.2595,2.2631,2.259,2.2555,2.2779,2.2986,2.2635,2.2654,2.2923,2.3667,2.3591,2.3422,2.3994,2.4267,2.4372,2.4301,2.432,2.432,2.4284,2.4337,2.4355,2.421,2.4248,2.4301,2.4335,2.4433,2.4437,2.4321,2.4388,2.4331,2.4017,2.3621,2.3199,2.2795,2.2569,2.2191,2.1667,2.0123,2.0299,2.2929,1.1864,0.8419,1.5479,0.9003,0.6893,1.0407,0.7029,0.5232,0.5195,0.2538,0.124,0.124,0.124,0.1412,2.125,2.2532,2.3756,2.5232,2.5601,2.5601,2.5601,2.5601,2.5601,2.5601,2.5601,2.5601,2.5601,2.5601,2.5601,2.5601,2.5601,2.5304,2.4418,2.4296,2.3648,2.1904,2.171,2.1375,2.0577,2.0495,2.0504,2.0507,2.0546,2.0537,0.0,2.0467,2.0464,2.0473,2.0473,2.0468,2.0473,2.0432,2.039,2.0341,2.0248,2.02,2.0227,2.0283,2.0296,2.027,2.0296,2.0315,2.0321,2.0299,2.04,2.0687,2.1549,2.2249,2.2844,2.339,2.3419,2.3217,2.3389,2.3445,2.3435,2.3347,2.3632,2.3922,2.3511,2.3557,2.3845,2.42,2.4128,2.4066,2.4693,2.4746,2.4514,2.4174,2.4288,2.4493,2.4459,2.4522,2.4535,2.4389,2.4437,2.4511,2.4557,2.4643,2.4777,2.4968,2.5071,2.512,2.5158,2.4675,2.424,2.3942,2.3314,2.2768,2.2438,2.2926,2.344,2.3883,1.6634,1.5588,2.2803,1.5647,1.3313,1.7065,1.3365,1.1347,1.1254,0.9001,0.7907,0.7907,0.7907,0.8118,2.125,2.2974,2.4508,2.5387,2.5601,2.5601,2.5601,2.5601,2.5601,2.5601,2.5601,2.5601,2.5601,2.5601,2.5601,2.5601,2.5601,2.531,2.4411,2.4282,2.3634,2.1901,2.1699,2.139,2.058,2.0503,2.0508,2.049,2.0492,0.0,0.0,2.0402,2.0399,2.0399,2.0399,2.0399,2.0399,2.0277,2.0192,2.0211,2.0069,2.0114,2.0302,2.0302,2.0262,2.0188,2.0269,2.0257,2.0201,2.0199,2.0725,2.1588,2.2393,2.271,2.294,2.4667,2.4744,2.413,2.5005,2.5303,2.5303,2.5303,2.5303,2.5303,2.5303,2.4745,2.4264,2.5003,2.4638,2.4197,2.4979,2.5141,2.4822,2.3695,2.4073,2.4642,2.4441,2.447,2.4514,2.4498,2.4599,2.4695,2.4695,2.4969,2.5197,2.5204,2.5434,2.5619,2.5699,2.5699,2.5368,2.4491,2.3634,2.3478,2.4335,2.4413,2.4783,2.564,2.5699,2.4923,2.3199,2.3124,2.3539,2.44,2.442,2.4849,2.5687,1.864,1.5205,1.5205,1.5205,1.5194,2.1561,2.2974,2.4508,2.5387,2.5601,2.5601,2.5601,2.5601,2.5601,2.5601,2.5601,2.5601,2.5601,2.5601,2.5601,2.5601,2.5601,2.5302,2.4427,2.3766,2.2987,2.1905,2.1223,2.0778,2.0585,2.0565,2.0542,2.0504,2.0501,0.0,0.0,2.0404,2.0402,2.0399,2.0313,2.0294,2.0399,2.0299,2.0254,2.0192,2.0159,2.0152,2.0171,2.0115,2.0131,2.0208,2.0171,2.0171,2.0195,2.0143,2.0977,2.2296,2.2594,2.3417,2.4509,2.5039,2.5069,2.4867,2.508,2.5153,2.5141,2.5043,2.5019,2.5043,2.5138,2.4988,2.4875,2.5245,2.5178,2.4899,2.4466,2.48,2.5141,2.4755,2.4822,2.4966,2.4907,2.4902,2.4883,2.4747,2.478,2.4815,2.4728,2.4939,2.5149,2.5178,2.5428,2.5613,2.5701,2.569,2.5369,2.4489,2.4712,2.4787,2.4436,2.4783,2.5226,2.5675,2.5515,2.5277,2.4939,2.4923,2.5044,2.5317,2.5304,2.536,2.5401,2.35,2.2462,2.2277,2.246,2.2561,2.2546,2.375,2.4941,2.5463,2.5599,2.5604,2.5595,2.5599,2.5601,2.5601,2.5601,2.5607,2.559,2.5595,2.5605,2.5604,2.5609,2.5305,2.4453,2.3595,2.2732,2.1894,2.1035,2.0526,2.0551,2.0568,2.0538,2.0476,0.0,0.0,0.0,2.0352,2.0359,2.0366,2.0287,2.0275,2.0354,2.0284,2.0238,2.0195,2.0162,2.0098,2.0058,2.002,2.0031,2.0114,2.0098,2.0117,2.015,2.0116,2.09,2.2171,2.2526,2.3492,2.4736,2.5075,2.5201,2.519,2.5145,2.5141,2.5141,2.5075,2.5063,2.5068,2.5149,2.5171,2.5192,2.5332,2.5361,2.5236,2.4707,2.4947,2.5235,2.479,2.4927,2.513,2.5141,2.5157,2.5149,2.501,2.5069,2.5113,2.5019,2.5157,2.5272,2.5307,2.5471,2.5623,2.5689,2.5703,2.5503,2.4974,2.5388,2.5483,2.4963,2.5247,2.5535,2.5684,2.5552,2.5522,2.5694,2.5707,2.5699,2.5699,2.5703,2.5624,2.5465,2.5613,2.5629,2.5464,2.5626,2.5709,2.3867,2.4935,2.5607,2.56,2.5591,2.5595,2.5598,2.561,2.5593,2.5593,2.5599,2.5595,2.5601,2.5551,2.5503,2.5588,2.5531,2.526,2.4617,2.3682,2.2808,2.2011,2.1073,2.0481,2.048,2.05,2.0453,0.0,0.0,0.0,0.0,2.0287,2.0287,2.0287,2.0255,2.0262,2.0288,2.0211,2.018,2.018,2.0077,2.0015,1.9998,2.0,2.0001,2.0001,2.0059,2.0079,2.0108,2.0088,2.0604,2.1483,2.2276,2.3135,2.4014,2.4889,2.5206,2.5187,2.5201,2.5212,2.5212,2.5282,2.5282,2.5292,2.5293,2.5303,2.5284,2.5303,2.5303,2.5313,2.538,2.5389,2.5159,2.4244,2.4635,2.5209,2.5212,2.5254,2.5283,2.5293,2.5404,2.5484,2.5511,2.5511,2.5507,2.5499,2.5551,2.5613,2.5685,2.5687,2.5687,2.5709,2.5709,2.5709,2.5707,2.5709,2.5691,2.5693,2.5701,2.5696,2.5701,2.5697,2.5699,2.5699,2.5699,2.5695,2.5667,2.5695,2.5679,2.5664,2.5691,2.5707,2.4197,2.4935,2.5607,2.56,2.5604,2.5598,2.5601,2.5593,2.5603,2.5603,2.5598,2.5609,2.5607,2.5043,2.4793,2.5497,2.5027,2.4777,2.5332,2.4042,2.2963,2.2845,2.1396,2.0414,2.0418,2.0418,0.0,0.0,0.0,0.0,2.0292,2.0211,2.0139,2.0145,1.9984,1.9973,2.0152,2.0089,2.0069,0.0,2.0098,2.0048,2.0004,2.0004,2.0007,1.999,2.002,2.004,2.0098,2.004,2.0546,2.1405,2.2263,2.3122,2.3999,2.4885,2.5203,2.5203,2.5187,2.5198,2.5209,2.5212,2.5222,2.5222,2.5222,2.5233,2.5233,2.5292,2.5302,2.5302,2.5313,2.5322,2.5284,2.5111,2.5178,2.5282,2.5283,2.5262,2.5233,2.5283,2.533,2.5376,2.5484,2.5511,2.5503,2.5498,2.5515,2.5561,2.5687,2.5644,2.5644,2.5697,2.57,2.5698,2.5709,2.5697,2.5698,2.5709,2.5709,2.5709,2.5691,2.5701,2.5699,2.5699,2.5699,2.5605,2.5395,2.5605,2.56,2.5393,2.5593,2.5705,2.4197,2.4932,2.562,2.5632,2.5654,2.5644,2.5652,2.5641,2.5644,2.5644,2.5291,2.4997,2.5019,2.4316,2.3867,2.4335,2.4023,2.3905,2.4386,2.3261,2.2405,2.2465,2.1258,2.0381,2.036,2.0355,0.0,0.0,0.0,2.0311,2.0214,2.0143,2.0079,2.0003,1.9912,1.989,2.0002,1.9979,1.9988,2.0049,2.0028,1.9996,2.0012,2.0012,2.0004,1.9998,2.0,2.002,2.0059,2.0011,2.0259,2.0755,2.164,2.2498,2.3385,2.4259,2.4812,2.5168,2.5184,2.5195,2.5195,2.5209,2.519,2.5201,2.5212,2.5192,2.5212,2.5252,2.5252,2.5262,2.5283,2.5322,2.535,2.5395,2.5379,2.5361,2.5341,2.5322,2.5313,2.5339,2.5348,2.5385,2.5484,2.5511,2.5503,2.5504,2.5532,2.5574,2.5687,2.5673,2.5658,2.5702,2.5703,2.5702,2.5699,2.5702,2.5703,2.5701,2.5698,2.5698,2.5699,2.5701,2.5704,2.5701,2.5693,2.5639,2.5498,2.5639,2.5632,2.5496,2.5627,2.5698,2.3828,2.472,2.5446,2.5648,2.57,2.5703,2.5701,2.5691,2.5698,2.5698,2.4957,2.4336,2.439,2.3567,2.292,2.3076,2.2951,2.2909,2.3065,2.2275,2.1701,2.1764,2.0949,2.0332,2.0289,2.0283,0.0,0.0,0.0,2.026,2.0144,2.0088,2.0001,1.9888,1.9877,1.9858,1.9869,1.9862,1.9892,1.9955,1.9908,1.9915,1.9979,1.9979,1.9982,1.9988,1.9988,2.0009,2.0001,1.9991,1.9991,2.0096,2.0972,2.1828,2.2685,2.3564,2.4395,2.5101,2.5168,2.518,2.518,2.5195,2.5206,2.5206,2.519,2.5201,2.5201,2.5201,2.5201,2.5212,2.5282,2.5341,2.5401,2.5398,2.5421,2.5415,2.5423,2.5415,2.5395,2.541,2.5434,2.5449,2.5488,2.5488,2.551,2.5499,2.5551,2.5617,2.5679,2.5676,2.5683,2.5703,2.5703,2.5703,2.5703,2.5703,2.5703,2.5703,2.5703,2.5702,2.5703,2.5698,2.5691,2.5705,2.5696,2.5696,2.5703,2.5696,2.5701,2.5702,2.5702,2.5703,2.294,2.3856,2.4742,2.5515,2.5703,2.5701,2.57,2.5691,2.5698,2.5698,2.5007,2.4394,2.4394,2.3065,2.2224,2.2987,2.2419,2.2146,2.2905,2.2208,2.1617,2.1636,2.0807,2.0223,2.0208,0.0,0.0,0.0,2.0312,2.0285,2.0269,2.006,1.9928,1.9907,1.9745,1.9673,1.9738,1.9738,1.9763,1.9832,1.982,1.982,1.9832,1.9832,1.9892,1.9993,1.9993,1.9996,1.9998,1.9996,1.9996,2.0085,2.0959,2.1795,2.2612,2.3503,2.4359,2.5095,2.5101,2.5113,2.5125,2.518,2.5191,2.5203,2.5203,2.5203,2.5203,2.5187,2.5198,2.5198,2.5212,2.5322,2.5395,2.5401,2.5437,2.5492,2.5495,2.5432,2.5415,2.549,2.5523,2.5556,2.5517,2.5511,2.5493,2.5495,2.5515,2.5531,2.5598,2.5613,2.5637,2.5683,2.5703,2.5703,2.5703,2.5703,2.5703,2.5703,2.5703,2.5703,2.5703,2.5702,2.5703,2.5701,2.5697,2.5694,2.5693,2.5698,2.57,2.57,2.57,2.5701,2.3392,2.4417,2.5162,2.5586,2.5697,2.5709,2.5698,2.5707,2.5697,2.5697,2.5008,2.4257,2.3758,2.2643,2.174,2.1609,2.1239,2.1099,2.1438,2.1107,2.1005,2.1494,2.0757,2.0389,2.0877,0.0,0.0,0.0,2.019,2.0126,1.9971,1.9843,1.9786,1.9786,1.9673,1.962,1.9701,1.966,1.9679,1.9738,1.9782,1.9807,1.9807,1.9807,1.9832,1.9892,1.9926,1.993,1.9952,1.9982,1.9993,2.0053,2.0413,2.1362,2.2538,2.2935,2.3916,2.5057,2.5095,2.5088,2.5113,2.5125,2.5168,2.5191,2.5191,2.5191,2.5191,2.5203,2.5214,2.5195,2.5198,2.5274,2.5348,2.5441,2.5473,2.5505,2.5549,2.5471,2.5429,2.5483,2.5518,2.5554,2.5556,2.5561,2.5546,2.5506,2.5531,2.556,2.5556,2.5585,2.5613,2.5642,2.5644,2.5668,2.5697,2.567,2.567,2.5698,2.5699,2.5677,2.5648,2.5677,2.5677,2.5642,2.568,2.5681,2.5648,2.5677,2.57,2.57,2.5662,2.5664,2.3575,2.451,2.5071,2.5579,2.5698,2.5707,2.5703,2.5699,2.5695,2.5663,2.5137,2.4412,2.3523,2.2676,2.1792,2.0852,2.0695,2.0571,2.0302,2.0231,2.0414,2.1075,2.0591,2.0469,2.1119,0.0,0.0,0.0,2.0079,1.996,1.9762,1.9713,1.9701,1.9701,1.9628,1.962,1.9669,1.962,1.9643,1.9679,1.9731,1.9744,1.9744,1.9744,1.9744,1.9757,1.9844,1.9873,1.9896,1.9949,1.9982,2.0012,2.0012,2.1017,2.2495,2.25,2.3556,2.5012,2.5057,2.5063,2.5088,2.5082,2.5125,2.518,2.518,2.518,2.518,2.518,2.518,2.518,2.5195,2.5243,2.533,2.5422,2.5479,2.5504,2.5561,2.5504,2.5473,2.5512,2.5543,2.5576,2.5613,2.5636,2.5609,2.5546,2.5576,2.5589,2.5566,2.5598,2.5636,2.5636,2.5636,2.5642,2.5676,2.5636,2.5613,2.5676,2.5679,2.5648,2.5601,2.5648,2.5648,2.5601,2.5654,2.5659,2.5595,2.565,2.5676,2.5676,2.562,2.5624,2.2698,2.3207,2.3632,2.5291,2.5698,2.5699,2.5699,2.5699,2.5667,2.554,2.5465,2.5156,2.423,2.3437,2.2627,2.1688,2.149,2.1147,2.0312,2.0142,2.0117,2.0174,2.0202,2.0211,2.0249,0.0,0.0,0.0,1.9979,1.9896,1.9896,1.9774,1.9701,1.9701,1.9628,1.9597,1.9615,1.9597,1.9602,1.9615,1.9615,1.9615,1.9615,1.9615,1.9615,1.9629,1.9744,1.9844,1.9896,1.9896,1.9949,2.0012,2.0012,2.1017,2.2495,2.2495,2.3569,2.4991,2.4999,2.5012,2.5025,2.5088,2.5113,2.5113,2.5113,2.5113,2.5113,2.5113,2.5113,2.5125,2.518,2.525,2.5303,2.5321,2.5413,2.5496,2.551,2.5547,2.5598,2.5586,2.5654,2.5685,2.569,2.5687,2.5678,2.5609,2.5604,2.5625,2.5681,2.5685,2.5685,2.5685,2.5685,2.5676,2.5605,2.5601,2.5601,2.5605,2.5605,2.5601,2.5601,2.5601,2.5601,2.5601,2.5605,2.5593,2.5597,2.5609,2.5615,2.5615,2.5595,2.5595,2.2084,2.2669,2.3379,2.4571,2.4879,2.5017,2.5563,2.5699,2.5663,2.5523,2.5498,2.537,2.4887,2.4196,2.3403,2.2458,2.2282,2.2142,2.1799,2.1283,2.1129,2.1645,2.0776,2.0356,2.0919,0.0,0.0,0.0,0.0,1.9781,1.9655,1.9596,1.9604,1.9695,1.9633,1.9602,1.9602,1.9602,1.9602,1.9602,1.9602,1.9602,1.9602,1.9602,1.9602,1.9615,1.9638,1.9718,1.9776,1.9832,1.988,1.9938,1.9938,2.0982,2.2495,2.2495,2.3556,2.501,2.5051,2.505,2.5056,2.508,2.5122,2.516,2.512,2.5095,2.5095,2.5101,2.5122,2.5179,2.5184,2.525,2.5293,2.5293,2.5406,2.5507,2.5551,2.5576,2.5593,2.5605,2.5616,2.5651,2.5685,2.5707,2.5681,2.5678,2.5655,2.5655,2.5644,2.5644,2.5648,2.5632,2.5632,2.5629,2.5601,2.5552,2.5532,2.554,2.554,2.5517,2.5466,2.5505,2.5511,2.5479,2.5479,2.5486,2.5542,2.5547,2.5532,2.5532,2.5537,2.5559,2.1706,2.2219,2.2949,2.4104,2.4391,2.4627,2.5504,2.5667,2.56,2.5486,2.5439,2.5387,2.5234,2.4793,2.4177,2.3256,2.3103,2.2987,2.2649,2.1923,2.1598,2.2123,2.0958,2.0327,2.09,0.0,0.0,0.0,0.0,0.0,1.9516,1.9508,1.9541,1.9636,1.9606,1.9583,1.9569,1.9583,1.9602,1.9602,1.9602,1.9602,1.9602,1.9602,1.9602,1.9615,1.962,1.966,1.9699,1.9757,1.982,1.988,1.988,2.0903,2.2413,2.2483,2.355,2.5018,2.5082,2.5118,2.5138,2.5115,2.5157,2.5217,2.5125,2.5101,2.5101,2.5106,2.5126,2.5173,2.5261,2.5273,2.5303,2.5339,2.5376,2.5467,2.5551,2.5604,2.5625,2.5632,2.5632,2.5642,2.5683,2.5707,2.5705,2.5698,2.5696,2.5671,2.5636,2.5632,2.5632,2.5625,2.5621,2.5621,2.5593,2.5561,2.5535,2.5523,2.5523,2.5499,2.5464,2.5506,2.5506,2.5434,2.5434,2.5452,2.5492,2.5499,2.5506,2.5506,2.5499,2.5515,0.0,0.0,0.0,2.3906,2.4319,2.4553,2.5465,2.5547,2.5428,2.541,2.532,2.5244,2.5214,2.5191,2.4924,2.4033,2.3915,2.3637,2.2811,2.198,2.1464,2.1464,2.069,2.0165,0.0,0.0,0.0,0.0,1.956,1.9438,1.9501,1.9489,1.9499,1.9499,1.9564,1.9564,1.9518,1.9564,1.9597,1.9597,1.9615,1.9615,1.9615,1.9597,1.9597,1.9597,1.9675,1.9701,1.9705,1.9699,1.9744,1.9795,1.9795,2.077,2.2224,2.242,2.3556,2.5012,2.507,2.5149,2.5182,2.5138,2.519,2.5282,2.5138,2.5096,2.5096,2.5115,2.5115,2.5141,2.536,2.5351,2.5313,2.5371,2.5339,2.533,2.5473,2.5593,2.5687,2.571,2.571,2.571,2.571,2.571,2.5693,2.5705,2.5707,2.5691,2.5699,2.5699,2.5696,2.5693,2.569,2.5678,2.5615,2.5591,2.5591,2.561,2.561,2.561,2.5605,2.5605,2.5565,2.5499,2.5499,2.5506,2.5499,2.5503,2.5492,2.5499,2.5499,2.5498,2.0876,0.0,0.0,0.0,0.0,0.0,2.441,2.4232,2.4088,2.524,2.4919,2.4598,2.5109,2.5164,2.487,2.4022,2.4435,2.4759,2.4522,2.3747,2.3212,2.3212,2.2448,2.1683,0.0,0.0,0.0,0.0,1.9701,1.9591,1.9509,1.9541,1.9623,1.9713,1.9694,1.9673,1.963,1.9662,1.9675,1.9669,1.9769,1.9823,1.9804,1.9726,1.9669,1.9675,1.9641,1.9638,1.9625,1.9675,1.9701,1.9731,1.9731,2.0744,2.221,2.2252,2.3402,2.4947,2.5063,2.5184,2.5282,2.5241,2.5262,2.5283,2.5209,2.5179,2.5171,2.5231,2.5274,2.5339,2.5441,2.5429,2.5387,2.5398,2.539,2.539,2.5418,2.5453,2.5529,2.5678,2.571,2.571,2.571,2.571,2.569,2.5696,2.5696,2.5696,2.5701,2.5705,2.5705,2.5703,2.5707,2.5681,2.5678,2.5675,2.564,2.5595,2.5609,2.5585,2.5535,2.5535,2.5535,2.5562,2.5562,2.5574,2.5571,2.5525,2.5531,2.5561,2.5561,2.5546,2.1557,2.1837,2.2348,2.2754,0.0,0.0,2.4502,2.4208,2.393,2.5232,2.5033,2.4775,2.5168,2.5212,2.5023,2.4522,2.4549,2.4664,2.4664,2.39,2.3498,2.3861,2.3135,2.2409,0.0,2.1557,2.1067,2.0497,1.9993,1.9676,1.9625,1.9656,1.9726,1.9804,1.9757,1.9738,1.9751,1.9713,1.9707,1.975,1.9793,1.9858,1.9896,1.9828,1.9774,1.9786,1.98,1.9782,1.9732,1.9828,1.9788,1.9665,1.9681,2.0685,2.2125,2.2265,2.3409,2.4923,2.5087,2.5231,2.5332,2.5302,2.5322,2.5332,2.5262,2.5233,2.5253,2.5303,2.5367,2.5449,2.5485,2.5449,2.5401,2.5406,2.5398,2.5418,2.543,2.5414,2.5444,2.5595,2.5613,2.564,2.5694,2.5697,2.5697,2.5701,2.5704,2.5704,2.571,2.5693,2.5693,2.5665,2.5668,2.5639,2.5585,2.5604,2.5591,2.5568,2.5576,2.5586,2.5537,2.558,2.5576,2.5554,2.5554,2.5549,2.5523,2.5529,2.5551,2.5609,2.5609,2.5571,2.2829,2.2953,2.3213,2.3961,2.3608,0.0,2.4978,2.4608,2.4179,2.5046,2.5098,2.4993,2.5042,2.512,2.5081,2.4823,2.4304,2.3911,2.39,2.3231,2.304,2.3804,2.3307,0.0,2.2753,2.1991,2.1411,2.124,2.0281,1.9757,1.9811,1.9811,1.9823,1.9835,1.9809,1.9809,1.9823,1.9757,1.9751,1.9813,1.9775,1.9818,1.9936,1.9926,1.9926,1.9928,2.0011,2.0001,1.9918,2.005,1.9915,1.9652,1.9695,2.061,2.1943,2.2338,2.3474,2.4797,2.5099,2.5274,2.5369,2.5322,2.5351,2.5397,2.5332,2.5313,2.5303,2.5321,2.5398,2.5511,2.5492,2.5471,2.5422,2.5422,2.541,2.5421,2.5471,2.5441,2.5398,2.5473,2.5498,2.5535,2.5663,2.5695,2.5703,2.571,2.5691,2.5694,2.5704,2.5707,2.5678,2.5619,2.5615,2.5561,2.5447,2.5492,2.5517,2.5523,2.558,2.5605,2.5601,2.5651,2.5639,2.5504,2.5504,2.548,2.5406,2.554,2.5595,2.561,2.56,2.5604,2.2815,2.3253,2.3755,2.3295,2.3067,0.0,2.3413,2.2851,2.2512,2.3396,2.2956,2.2627,2.3321,2.3932,2.3863,2.2448,2.3208,2.3966,2.3911,2.3747,2.3709,2.3881,2.4358,0.0,2.3709,2.3476,2.2798,2.1453,2.0424,1.9873,1.9885,1.9885,1.9928,2.004,1.9939,1.9907,1.9966,1.9945,1.9947,1.9952,2.006,2.0126,2.0144,2.0021,2.002,2.0059,1.9928,1.9866,1.9915,2.003,1.999,1.9839,1.9862,2.0414,2.1287,2.2111,2.3057,2.4043,2.4832,2.5222,2.5322,2.5303,2.5351,2.5398,2.537,2.5369,2.5385,2.5448,2.5484,2.5495,2.5505,2.5492,2.5492,2.5557,2.5471,2.5406,2.5422,2.5376,2.534,2.5414,2.5453,2.5505,2.5523,2.563,2.5699,2.5703,2.5703,2.5703,2.5707,2.5691,2.5694,2.5687,2.5675,2.5678,2.5632,2.5652,2.5655,2.5662,2.5671,2.5665,2.5601,2.5609,2.5589,2.5504,2.5504,2.5498,2.5486,2.5554,2.5605,2.5591,2.5657,2.5683,2.3807,2.4143,2.4466,2.4207,2.3857,0.0,0.0,2.3625,2.3296,2.418,2.3657,2.3153,2.3536,2.3576,2.3385,2.2887,2.2761,2.289,2.3285,2.3665,2.4072,2.4492,2.4943,0.0,2.4587,2.4167,2.3365,2.2085,2.1166,2.0648,2.0648,2.0249,2.004,2.0088,2.0021,2.002,2.0059,1.9979,1.9971,2.006,2.006,2.0098,2.019,2.0126,2.0117,2.0135,2.0031,2.0011,2.005,2.0116,2.0116,2.006,2.0011,2.0429,2.1117,2.1688,2.2685,2.3831,2.4394,2.4908,2.5303,2.5303,2.5322,2.5351,2.5389,2.5397,2.5412,2.5448,2.5456,2.5464,2.5495,2.5503,2.551,2.5543,2.5498,2.5444,2.5444,2.5401,2.5359,2.539,2.5422,2.5452,2.5453,2.5518,2.555,2.555,2.5556,2.5554,2.56,2.561,2.5595,2.5595,2.5576,2.5546,2.5546,2.5529,2.5529,2.56,2.5636,2.5644,2.5604,2.5625,2.5621,2.5556,2.5515,2.5504,2.5504,2.5574,2.5578,2.5546,2.5578,2.5605,2.4676,2.4847,2.5022,2.5254,2.4846,2.4559,0.0,0.0,0.0,2.477,2.4335,2.3803,2.3532,2.3085,0.0,2.3328,0.0,0.0,0.0,2.3199,0.0,2.4618,2.5,0.0,2.5191,2.4415,2.3613,2.2906,2.2085,2.156,2.1407,2.0728,2.027,2.0108,2.0088,2.0088,2.0088,1.9991,1.9991,2.0088,1.9991,2.002,2.0183,2.0183,2.0182,2.0208,2.018,2.018,2.0208,2.0205,2.0203,2.0195,2.0143,2.045,2.0945,2.1291,2.2334,2.3624,2.3976,2.462,2.5303,2.5303,2.5303,2.5313,2.5389,2.5407,2.5406,2.5393,2.5401,2.5429,2.5484,2.5511,2.5511,2.5511,2.5495,2.5505,2.5505,2.5434,2.5393,2.5393,2.5367,2.5348,2.5368,2.5387,2.539,2.5374,2.539,2.5403,2.5447,2.548,2.548,2.548,2.5425,2.5387,2.5387,2.5346,2.5365,2.5476,2.5543,2.5581,2.5576,2.5632,2.5636,2.5591,2.5535,2.5498,2.5498,2.5542,2.5566,2.5521,2.5532,2.5537,2.4137,2.4444,2.4845,2.4943,2.5064,2.5005,2.4411,0.0,2.3816,2.2434,0.0,2.185,2.1073,0.0,0.0,0.0,0.0,0.0,2.1849,2.2376,2.2844,2.2898,2.4255,0.0,0.0,2.4415,2.3861,2.3766,2.2944,2.2142,2.1445,2.1311,2.09,2.0108,2.0088,2.0088,2.0088,2.0079,2.0079,2.0088,2.0079,2.0079,2.0117,2.0117,2.0135,2.0201,2.0135,2.0155,2.0201,2.0201,2.0199,2.0197,2.0269,2.0257,2.0318,2.1165,2.2019,2.2861,2.3784,2.462,2.5303,2.5303,2.5303,2.5313,2.5389,2.5398,2.5407,2.5393,2.5401,2.5429,2.5484,2.5511,2.5511,2.5511,2.5492,2.5499,2.5499,2.5393,2.5302,2.5302,2.5222,2.5176,2.5293,2.5363,2.5383,2.5327,2.5318,2.5299,2.5316,2.5371,2.5418,2.5418,2.5406,2.5387,2.5387,2.5387,2.5395,2.5406,2.5473,2.551,2.5512,2.5518,2.5518,2.5512,2.5506,2.5506,2.5505,2.5518,2.5535,2.5593,2.5648,2.5679,2.3868,2.4263,2.4708,2.4818,2.5061,2.5206,2.4861,0.0,2.3946,0.0,0.0,0.0,0.0,0.0,0.0,0.0,2.1374,0.0,0.0,0.0,2.2343,0.0,0.0,0.0,0.0,0.0,0.0,0.0,2.3842,2.3212,2.2868,2.1942,2.1235,2.0862,2.0365,2.0088,2.0088,2.0088,2.0088,2.0088,2.0088,2.0088,2.0088,2.0088,2.0117,2.0145,2.0117,2.0117,2.0135,2.0183,2.0201,2.019,2.0225,2.0225,2.0255,2.0661,2.1613,2.2786,2.3207,2.4197,2.5303,2.5303,2.5303,2.5313,2.5322,2.5351,2.5361,2.5397,2.5406,2.5406,2.5432,2.5432,2.5432,2.5432,2.5432,2.5432,2.5432,2.5404,2.5339,2.5313,2.5244,2.5222,2.5187,2.5214,2.5236,2.5284,2.5293,2.5293,2.5311,2.532,2.5329,2.5346,2.5311,2.5311,2.539,2.5357,2.5357,2.5403,2.5439,2.5439,2.5437,2.5473,2.5498,2.5498,2.5581,2.5624,2.5628,2.5624,2.5636,2.5658,2.5613,2.5585,2.3678,0.0,0.0,0.0,0.0,0.0,0.0,0.0,0.0,0.0,0.0,0.0,0.0,0.0,2.1294,2.1735,0.0,2.0991,0.0,2.1418,0.0,0.0,0.0,0.0,0.0,0.0,0.0,0.0,0.0,2.4148,2.3919,2.2753,2.1866,2.1407,2.0786,2.0346,2.0088,2.0088,2.0088,2.0088,2.0088,2.0088,2.0088,2.0088,2.0088,2.0088,2.0088,2.0088,2.0098,2.0155,2.0183,2.0192,2.0199,2.0225,2.0277,2.0277,2.118,2.2476,2.2726,2.3899,2.5303,2.5303,2.5303,2.5303,2.5303,2.5303,2.5313,2.5389,2.5398,2.5398,2.5406,2.5406,2.5406,2.5406,2.5406,2.5406,2.5406,2.5387,2.5369,2.5313,2.5264,2.5234,2.5176,2.5122,2.5122,2.5206,2.5228,2.5231,2.5214,2.5224,2.5215,2.5216,2.5184,2.5203,2.5303,2.5264,2.5274,2.5337,2.5346,2.5354,2.5398,2.5453,2.5466,2.5473,2.5566,2.5613,2.5613,2.5613,2.5613,2.5617,2.5561,2.5551,0.0,0.0,0.0,2.4229,0.0,0.0,0.0,0.0,2.4441,0.0,0.0,0.0,2.301,2.2835,2.2595,2.1906,2.177,0.0,0.0,0.0,0.0,0.0,0.0,0.0,0.0,0.0,0.0,0.0,0.0,0.0,2.3957,2.3861,2.3078,2.1445,2.1369,2.0938,2.0108,2.0088,2.0088,2.0088,2.0088,2.0088,2.0088,2.0088,2.0088,2.0088,2.0088,2.0088,2.0088,2.0098,2.0145,2.0192,2.0192,2.019,2.0197,2.0197,2.0762,2.1662,2.2507,2.3909,2.5303,2.5303,2.5303,2.5303,2.5303,2.5303,2.5313,2.5389,2.5398,2.5398,2.5406,2.5406,2.5406,2.5406,2.5406,2.5406,2.5406,2.5351,2.5292,2.5292,2.519,2.5149,2.5264,2.5187,2.5076,2.5004,2.5023,2.5023,2.5004,2.5012,2.5006,2.5006,2.507,2.5095,2.5114,2.512,2.5153,2.5205,2.5215,2.5265,2.5401,2.5401,2.5398,2.5395,2.5422,2.5403,2.5403,2.5403,2.5418,2.5401,2.5589,2.5687,0.0,0.0,2.2701,2.305,0.0,0.0,0.0,0.0,0.0,0.0,0.0,0.0,0.0,2.279,2.2766,2.2552,2.2524,2.2357,0.0,0.0,0.0,0.0,2.346,2.4696,0.0,0.0,0.0,0.0,2.5228,0.0,0.0,2.4313,2.3792,2.3276,2.2119,2.1386,2.1097,2.0523,2.0204,2.0167,2.0167,2.0133,2.0088,2.0088,2.0088,2.0088,2.0088,2.0088,2.0088,2.0088,2.0117,2.0126,2.0126,2.0135,2.0144,2.018,2.0753,2.1711,2.3103,2.4341,2.5302,2.5302,2.5302,2.5302,2.5302,2.5293,2.5313,2.5322,2.5322,2.5322,2.5332,2.5332,2.5332,2.5332,2.5332,2.5332,2.5332,2.5351,2.5332,2.5252,2.5241,2.5231,2.519,2.5126,2.5122,2.5126,2.5063,2.4961,2.4874,2.4855,2.4861,2.4813,2.4898,2.4959,2.4959,2.5101,2.5198,2.5264,2.5222,2.5222,2.5273,2.5274,2.5264,2.5274,2.532,2.5335,2.5335,2.5335,2.5335,2.5352,2.5394,2.546,2.0773,2.0826,0.0,2.128,2.1313,0.0,2.1626,0.0,2.1501,0.0,0.0,0.0,0.0,2.3245,2.3403,2.2572,2.271,2.2532,0.0,2.1572,0.0,2.1676,2.3114,2.43,2.4846,2.5129,2.5264,2.5273,2.5252,0.0,0.0,0.0,2.4447,2.421,2.3107,2.2224,2.1604,2.103,2.0598,2.0234,2.0234,2.0204,2.0175,2.0175,2.0175,2.0175,2.0175,2.0175,2.0167,2.0161,2.0143,2.0124,2.0107,2.0088,2.0117,2.0153,2.0899,2.2087,2.316,2.4332,2.5332,2.5292,2.5312,2.5322,2.5302,2.5302,2.5293,2.5293,2.5283,2.5264,2.5264,2.5283,2.5293,2.5293,2.5303,2.5303,2.5303,2.5322,2.5341,2.5253,2.5273,2.5273,2.5212,2.5149,2.5107,2.5163,2.5049,2.4923,2.4855,2.478,2.476,2.4689,2.4783,2.4842,2.4884,2.5019,2.513,2.5179,2.5153,2.513,2.513,2.5157,2.519,2.5201,2.5274,2.5283,2.5236,2.5245,2.5245,2.5186,2.5215,2.5255]}]]